[[{"header":{"parameterUnit":"m.s-1","parameterCategory":1,"la1":30.6,"la2":28.766,"lo1":-90.7593,"lo2":-88.6598,"dy":0.0162,"dx":0.0183,"nx":116,"ny":114,"refTime":"2023-03-21T06:00:00:Z","depth":0,"parameterNumber":2,"parameterNumberName":"U-component_of_WINDS"},"data":[0.0,0.0,0.0,0.0,0.0,0.0,0.0,0.0,0.0,0.0,0.0,0.0,0.0,0.0,0.0,0.0,0.0,0.0,0.0,0.0,0.0,0.0,0.0,0.0,0.0,0.0,0.0,0.0,0.0,0.0,0.0,0.0,0.0,0.0,0.0,0.0,0.0,0.0,0.0,0.0,0.0,0.0,0.0,0.0,0.0,0.0,0.0,0.0,0.0,0.0,0.0,0.0,0.0,0.0,0.0,0.0,0.0,0.0,0.0,0.0,0.0,0.0,0.0,0.0,0.0,0.0,0.0,0.0,0.0,0.0,0.0,0.0,0.0,0.0,0.0,0.0,0.0,0.0,0.0,0.0,0.0,0.0,0.0,0.0,0.0,0.0,0.0,0.0,0.0,0.0,0.0,0.0,0.0,0.0,0.0,0.0,0.0,0.0,0.0,0.0,0.0,0.0,0.0,0.0,0.0,0.0,0.0,0.0,0.0,0.0,0.0,0.0,0.0,0.0,0.0,0.0,0.0,0.0,0.0,0.0,0.0,0.0,0.0,0.0,0.0,0.0,0.0,0.0,0.0,0.0,0.0,0.0,0.0,0.0,0.0,0.0,0.0,0.0,0.0,0.0,0.0,0.0,0.0,0.0,0.0,0.0,0.0,0.0,0.0,0.0,0.0,0.0,0.0,0.0,0.0,0.0,0.0,0.0,0.0,0.0,0.0,0.0,0.0,0.0,0.0,0.0,0.0,0.0,0.0,0.0,0.0,0.0,0.0,0.0,0.0,0.0,0.0,0.0,0.0,0.0,0.0,0.0,0.0,0.0,0.0,0.0,0.0,0.0,0.0,0.0,0.0,0.0,0.0,0.0,0.0,0.0,0.0,0.0,0.0,0.0,0.0,0.0,0.0,0.0,0.0,0.0,0.0,0.0,0.0,0.0,0.0,0.0,0.0,0.0,0.0,0.0,0.0,0.0,0.0,0.0,0.0,0.0,0.0,0.0,0.0,0.0,0.0,0.0,0.0,0.0,0.0,0.0,0.0,0.0,0.0,0.0,0.0,0.0,0.0,0.0,0.0,0.0,0.0,0.0,0.0,0.0,0.0,0.0,0.0,0.0,0.0,0.0,0.0,0.0,0.0,0.0,0.0,0.0,0.0,0.0,0.0,0.0,0.0,0.0,0.0,0.0,0.0,0.0,0.0,0.0,0.0,0.0,0.0,0.0,0.0,0.0,0.0,0.0,0.0,0.0,0.0,0.0,0.0,0.0,0.0,0.0,0.0,0.0,0.0,0.0,0.0,0.0,0.0,0.0,0.0,0.0,0.0,0.0,0.0,0.0,0.0,0.0,0.0,0.0,0.0,0.0,0.0,0.0,0.0,0.0,0.0,0.0,0.0,0.0,0.0,0.0,0.0,0.0,0.0,0.0,0.0,0.0,0.0,0.0,0.0,0.0,0.0,0.0,0.0,0.0,0.0,0.0,0.0,0.0,0.0,0.0,0.0,0.0,0.0,0.0,0.0,0.0,0.0,0.0,0.0,0.0,0.0,0.0,0.0,0.0,0.0,0.0,0.0,0.0,0.0,0.0,0.0,0.0,0.0,0.0,0.0,0.0,0.0,0.0,0.0,0.0,0.0,0.0,0.0,0.0,0.0,0.0,0.0,0.0,0.0,0.0,0.0,0.0,0.0,0.0,0.0,0.0,0.0,0.0,0.0,0.0,0.0,0.0,0.0,0.0,0.0,0.0,0.0,0.0,0.0,0.0,0.0,0.0,0.0,0.0,0.0,0.0,0.0,0.0,0.0,0.0,0.0,0.0,0.0,0.0,0.0,0.0,0.0,0.0,0.0,0.0,0.0,0.0,0.0,0.0,0.0,0.0,0.0,0.0,0.0,0.0,0.0,0.0,0.0,0.0,0.0,0.0,0.0,0.0,0.0,0.0,0.0,0.0,0.0,0.0,0.0,0.0,0.0,0.0,0.0,0.0,0.0,0.0,0.0,0.0,0.0,0.0,0.0,0.0,0.0,0.0,0.0,0.0,0.0,0.0,0.0,0.0,0.0,0.0,0.0,0.0,0.0,0.0,0.0,0.0,0.0,0.0,0.0,0.0,0.0,0.0,0.0,0.0,0.0,0.0,0.0,0.0,0.0,0.0,0.0,0.0,0.0,0.0,0.0,0.0,0.0,0.0,0.0,0.0,0.0,0.0,0.0,0.0,0.0,0.0,0.0,0.0,0.0,0.0,0.0,0.0,0.0,0.0,0.0,0.0,0.0,0.0,0.0,0.0,0.0,0.0,0.0,0.0,0.0,0.0,0.0,0.0,0.0,0.0,0.0,0.0,0.0,0.0,0.0,0.0,0.0,0.0,0.0,0.0,0.0,0.0,0.0,0.0,0.0,0.0,0.0,0.0,0.0,0.0,0.0,0.0,0.0,0.0,0.0,0.0,0.0,0.0,0.0,0.0,0.0,0.0,0.0,0.0,0.0,0.0,0.0,0.0,0.0,0.0,0.0,0.0,0.0,0.0,0.0,0.0,0.0,0.0,0.0,0.0,0.0,0.0,0.0,0.0,0.0,0.0,0.0,0.0,0.0,0.0,0.0,0.0,0.0,0.0,0.0,0.0,0.0,0.0,0.0,0.0,0.0,0.0,0.0,0.0,0.0,0.0,0.0,0.0,0.0,0.0,0.0,0.0,0.0,0.0,0.0,0.0,0.0,0.0,0.0,0.0,0.0,0.0,0.0,0.0,0.0,0.0,0.0,0.0,0.0,0.0,0.0,0.0,0.0,0.0,0.0,0.0,0.0,0.0,0.0,0.0,0.0,0.0,0.0,0.0,0.0,0.0,0.0,0.0,0.0,0.0,0.0,0.0,0.0,0.0,0.0,0.0,0.0,0.0,0.0,0.0,0.0,0.0,0.0,0.0,0.0,0.0,0.0,0.0,0.0,0.0,0.0,0.0,0.0,0.0,0.0,0.0,0.0,0.0,0.0,0.0,0.0,0.0,0.0,0.0,0.0,0.0,0.0,0.0,0.0,0.0,0.0,0.0,0.0,0.0,0.0,0.0,0.0,0.0,0.0,0.0,0.0,0.0,0.0,0.0,0.0,0.0,0.0,0.0,0.0,0.0,0.0,0.0,0.0,0.0,0.0,0.0,0.0,0.0,0.0,0.0,0.0,0.0,0.0,0.0,0.0,0.0,0.0,0.0,0.0,0.0,0.0,0.0,0.0,0.0,0.0,0.0,0.0,0.0,0.0,0.0,0.0,0.0,0.0,0.0,0.0,0.0,0.0,0.0,0.0,0.0,0.0,0.0,0.0,0.0,0.0,0.0,0.0,0.0,0.0,0.0,0.0,0.0,0.0,0.0,0.0,0.0,0.0,0.0,0.0,0.0,0.0,0.0,0.0,0.0,0.0,0.0,0.0,0.0,0.0,0.0,0.0,0.0,0.0,0.0,0.0,0.0,0.0,0.0,0.0,0.0,0.0,0.0,0.0,0.0,0.0,0.0,0.0,0.0,0.0,0.0,0.0,0.0,0.0,0.0,0.0,0.0,0.0,0.0,0.0,0.0,0.0,0.0,0.0,0.0,0.0,0.0,0.0,0.0,0.0,0.0,0.0,0.0,0.0,0.0,0.0,0.0,0.0,0.0,0.0,0.0,0.0,0.0,0.0,0.0,0.0,0.0,0.0,0.0,0.0,0.0,0.0,0.0,0.0,0.0,0.0,0.0,0.0,0.0,0.0,0.0,0.0,0.0,0.0,0.0,0.0,0.0,0.0,0.0,0.0,0.0,0.0,0.0,0.0,0.0,0.0,0.0,0.0,0.0,0.0,0.0,0.0,0.0,0.0,0.0,0.0,0.0,0.0,0.0,0.0,0.0,0.0,0.0,0.0,0.0,0.0,0.0,0.0,0.0,0.0,0.0,0.0,0.0,0.0,0.0,0.0,0.0,0.0,0.0,0.0,0.0,0.0,0.0,0.0,0.0,0.0,0.0,0.0,0.0,0.0,0.0,0.0,0.0,0.0,0.0,0.0,0.0,0.0,0.0,0.0,0.0,0.0,0.0,0.0,0.0,0.0,0.0,0.0,0.0,0.0,0.0,0.0,0.0,0.0,0.0,0.0,0.0,0.0,0.0,0.0,0.0,0.0,0.0,0.0,0.0,0.0,0.0,0.0,0.0,0.0,0.0,0.0,0.0,0.0,0.0,0.0,0.0,0.0,0.0,0.0,0.0,0.0,0.0,0.0,0.0,0.0,0.0,0.0,0.0,0.0,0.0,0.0,0.0,0.0,0.0,0.0,0.0,0.0,0.0,0.0,0.0,0.0,0.0,0.0,0.0,0.0,0.0,0.0,0.0,0.0,0.0,0.0,0.0,0.0,0.0,0.0,0.0,0.0,0.0,0.0,0.0,0.0,0.0,0.0,0.0,0.0,0.0,0.0,0.0,0.0,0.0,0.0,0.0,0.0,0.0,0.0,0.0,0.0,0.0,0.0,0.0,0.0,0.0,0.0,0.0,0.0,0.0,0.0,0.0,0.0,0.0,0.0,0.0,0.0,0.0,0.0,0.0,0.0,0.0,0.0,0.0,0.0,0.0,0.0,0.0,0.0,0.0,0.0,0.0,0.0,0.0,0.0,0.0,0.0,0.0,0.0,0.0,0.0,0.0,0.0,0.0,0.0,0.0,0.0,0.0,0.0,0.0,0.0,0.0,0.0,0.0,0.0,0.0,0.0,0.0,0.0,0.0,0.0,0.0,0.0,0.0,0.0,0.0,0.0,0.0,0.0,0.0,0.0,0.0,0.0,0.0,0.0,0.0,0.0,0.0,0.0,0.0,0.0,0.0,0.0,0.0,0.0,0.0,0.0,0.0,0.0,0.0,0.0,0.0,0.0,0.0,0.0,0.0,0.0,0.0,0.0,0.0,0.0,0.0,0.0,0.0,0.0,0.0,0.0,0.0,0.0,0.0,0.0,0.0,0.0,0.0,0.0,0.0,0.0,0.0,0.0,0.0,0.0,0.0,0.0,0.0,0.0,0.0,0.0,0.0,0.0,0.0,0.0,0.0,0.0,0.0,0.0,0.0,0.0,0.0,0.0,0.0,0.0,0.0,0.0,0.0,0.0,0.0,0.0,0.0,0.0,0.0,0.0,0.0,0.0,0.0,0.0,0.0,0.0,0.0,0.0,0.0,0.0,0.0,0.0,0.0,0.0,0.0,0.0,0.0,0.0,0.0,0.0,0.0,0.0,0.0,0.0,0.0,0.0,0.0,0.0,0.0,0.0,0.0,0.0,0.0,0.0,0.0,0.0,0.0,0.0,0.0,0.0,0.0,0.0,0.0,0.0,0.0,0.0,0.0,0.0,0.0,0.0,0.0,0.0,0.0,0.0,0.0,0.0,0.0,0.0,0.0,0.0,0.0,0.0,0.0,0.0,0.0,0.0,0.0,0.0,0.0,0.0,0.0,0.0,0.0,0.0,0.0,0.0,0.0,0.0,0.0,0.0,0.0,0.0,0.0,0.0,0.0,0.0,0.0,0.0,0.0,0.0,0.0,0.0,0.0,0.0,0.0,0.0,0.0,0.0,0.0,0.0,0.0,0.0,0.0,0.0,0.0,0.0,0.0,0.0,0.0,0.0,0.0,0.0,0.0,0.0,0.0,0.0,0.0,0.0,0.0,0.0,0.0,0.0,0.0,0.0,0.0,0.0,0.0,0.0,0.0,0.0,0.0,0.0,0.0,0.0,0.0,0.0,0.0,0.0,0.0,0.0,0.0,0.0,0.0,0.0,0.0,0.0,0.0,0.0,0.0,0.0,0.0,0.0,0.0,0.0,0.0,0.0,0.0,0.0,0.0,0.0,0.0,0.0,0.0,0.0,0.0,0.0,0.0,0.0,0.0,0.0,0.0,0.0,0.0,0.0,0.0,0.0,0.0,0.0,0.0,0.0,0.0,0.0,0.0,0.0,0.0,0.0,0.0,0.0,0.0,0.0,0.0,0.0,0.0,0.0,0.0,0.0,0.0,0.0,0.0,0.0,0.0,0.0,0.0,0.0,0.0,0.0,0.0,0.0,0.0,0.0,0.0,0.0,0.0,0.0,0.0,0.0,0.0,0.0,0.0,-5.8106,-5.8655,0.0,0.0,0.0,0.0,0.0,0.0,0.0,0.0,0.0,0.0,0.0,0.0,0.0,0.0,0.0,0.0,0.0,0.0,0.0,0.0,0.0,0.0,0.0,0.0,0.0,0.0,0.0,0.0,0.0,0.0,0.0,0.0,0.0,0.0,0.0,0.0,0.0,0.0,-6.7497,-6.632,-6.4497,-6.493,-6.4892,-6.4572,0.0,0.0,0.0,0.0,0.0,0.0,0.0,0.0,0.0,0.0,0.0,0.0,0.0,0.0,0.0,0.0,0.0,0.0,0.0,0.0,0.0,0.0,0.0,0.0,0.0,0.0,0.0,0.0,0.0,0.0,0.0,0.0,0.0,0.0,0.0,0.0,0.0,0.0,0.0,0.0,0.0,0.0,0.0,0.0,0.0,0.0,0.0,0.0,0.0,0.0,0.0,0.0,0.0,0.0,0.0,0.0,0.0,0.0,0.0,0.0,0.0,0.0,0.0,0.0,0.0,0.0,0.0,0.0,0.0,0.0,-5.6581,-5.7293,0.0,0.0,0.0,0.0,0.0,0.0,0.0,0.0,0.0,0.0,0.0,0.0,0.0,0.0,0.0,0.0,0.0,0.0,0.0,0.0,0.0,0.0,0.0,0.0,0.0,0.0,0.0,0.0,0.0,0.0,0.0,0.0,0.0,0.0,0.0,0.0,0.0,-6.7448,-6.6416,-6.5061,-6.3354,-6.2965,-6.299,-6.3451,-6.4948,0.0,0.0,0.0,0.0,0.0,0.0,0.0,0.0,0.0,0.0,0.0,0.0,0.0,0.0,0.0,0.0,0.0,0.0,0.0,0.0,0.0,0.0,0.0,0.0,0.0,0.0,0.0,0.0,0.0,0.0,0.0,0.0,0.0,0.0,0.0,0.0,0.0,0.0,0.0,0.0,0.0,0.0,0.0,0.0,0.0,0.0,0.0,0.0,0.0,0.0,0.0,0.0,0.0,0.0,0.0,0.0,0.0,0.0,0.0,0.0,0.0,0.0,0.0,-5.4211,-5.4158,-5.4126,-5.4295,-5.4295,-5.4243,-5.5482,-5.6192,-5.6465,-5.6536,0.0,0.0,0.0,0.0,0.0,0.0,0.0,0.0,0.0,0.0,0.0,0.0,0.0,0.0,0.0,0.0,0.0,0.0,0.0,0.0,0.0,0.0,-6.7687,-6.7687,-6.7687,0.0,0.0,0.0,0.0,0.0,0.0,0.0,0.0,-6.7174,-6.6452,-6.5617,-6.407,-6.3162,-6.2904,-6.283,-6.283,-6.2941,-6.3897,-6.4313,-6.4347,0.0,0.0,0.0,0.0,0.0,0.0,0.0,0.0,0.0,0.0,0.0,0.0,0.0,0.0,0.0,0.0,0.0,0.0,0.0,0.0,0.0,0.0,0.0,0.0,0.0,0.0,0.0,0.0,0.0,0.0,0.0,0.0,0.0,0.0,0.0,0.0,0.0,0.0,0.0,0.0,0.0,-6.1251,-6.0479,0.0,0.0,0.0,0.0,0.0,0.0,0.0,0.0,0.0,0.0,0.0,0.0,0.0,-5.4883,-5.4758,-5.3891,-5.3471,-5.3471,-5.2726,-5.2306,-5.2352,-5.3108,-5.3064,-5.2397,-5.3328,0.0,-5.6001,-5.6165,0.0,0.0,0.0,0.0,0.0,0.0,0.0,0.0,0.0,0.0,0.0,0.0,0.0,0.0,0.0,0.0,0.0,0.0,0.0,0.0,0.0,0.0,-6.7687,-6.7687,-6.7687,-6.7687,0.0,0.0,0.0,0.0,0.0,0.0,-6.7687,-6.6916,-6.5888,-6.464,-6.3392,-6.278,-6.278,-6.278,-6.278,-6.2817,-6.3209,-6.3649,-6.42,-6.5815,0.0,0.0,0.0,0.0,0.0,0.0,0.0,0.0,0.0,0.0,0.0,0.0,0.0,0.0,0.0,0.0,0.0,0.0,0.0,0.0,0.0,0.0,0.0,0.0,0.0,0.0,0.0,0.0,0.0,0.0,0.0,0.0,0.0,0.0,0.0,0.0,0.0,0.0,0.0,-6.0994,-6.0322,-5.9577,-5.9844,-5.9945,0.0,0.0,0.0,0.0,0.0,0.0,0.0,0.0,0.0,-5.3699,-5.3656,-5.3309,-5.2709,-5.2336,-5.2109,-5.2109,-5.1711,-5.1556,-5.1556,-5.1957,-5.1911,-5.1556,-5.1957,-5.2887,-5.4084,-5.4421,-5.5166,-5.608,0.0,0.0,0.0,0.0,-5.5876,-5.5876,0.0,0.0,0.0,0.0,0.0,0.0,0.0,0.0,0.0,0.0,0.0,0.0,-6.7687,-6.7687,-6.7687,-6.7687,-6.7687,-6.7687,0.0,0.0,0.0,0.0,0.0,-6.7577,-6.7393,-6.6402,-6.5191,-6.3759,-6.3135,-6.278,-6.278,-6.278,-6.278,-6.2755,-6.2755,-6.3122,-6.3819,-6.5433,-6.5986,-6.5898,0.0,0.0,0.0,0.0,0.0,0.0,0.0,0.0,0.0,0.0,0.0,0.0,0.0,0.0,0.0,0.0,0.0,0.0,0.0,0.0,0.0,0.0,0.0,0.0,0.0,0.0,0.0,0.0,0.0,0.0,0.0,0.0,0.0,0.0,0.0,0.0,0.0,-5.9674,-5.9336,-5.8795,-5.9014,-5.9001,0.0,0.0,0.0,0.0,0.0,0.0,-5.4168,-5.4168,-5.3656,-5.2485,-5.2485,-5.2063,-5.1229,-5.1229,-5.1229,-5.1229,-5.1229,-5.1229,-5.1229,-5.1229,-5.1229,-5.1229,-5.1229,-5.1618,-5.229,-5.2931,-5.3816,-5.4755,-5.4838,-5.5035,-5.5158,-5.4994,-5.4985,-5.4985,0.0,0.0,0.0,0.0,0.0,0.0,0.0,0.0,0.0,0.0,0.0,0.0,0.0,-6.7687,-6.7687,-6.7687,-6.7687,-6.7687,0.0,0.0,0.0,0.0,0.0,-6.732,-6.6586,-6.5007,-6.3796,-6.2879,-6.2817,-6.278,-6.278,-6.278,-6.273,-6.2629,-6.2629,-6.2603,-6.2775,-6.4396,-6.4603,-6.405,-6.6292,0.0,0.0,0.0,0.0,0.0,0.0,0.0,0.0,0.0,0.0,0.0,0.0,0.0,0.0,0.0,0.0,0.0,0.0,0.0,0.0,0.0,0.0,0.0,0.0,0.0,0.0,0.0,0.0,0.0,0.0,0.0,0.0,0.0,0.0,0.0,0.0,0.0,0.0,-5.7949,-5.7248,0.0,0.0,0.0,0.0,-5.4994,-5.492,-5.4337,-5.3077,-5.2989,-5.244,-5.1293,-5.1293,-5.1276,-5.1229,-5.1229,-5.1229,-5.1229,-5.1229,-5.1229,-5.1229,-5.1229,-5.1229,-5.1229,-5.1229,-5.1229,-5.1339,-5.244,-5.3471,-5.4369,-5.4755,-5.4879,-5.4838,-5.4274,-5.4062,-5.4062,0.0,0.0,0.0,0.0,0.0,0.0,0.0,0.0,0.0,0.0,0.0,0.0,0.0,-6.7687,-6.7687,-6.7687,-6.7687,-6.7687,-6.7687,0.0,0.0,0.0,0.0,-6.6292,-6.4971,-6.4383,-6.3686,-6.278,-6.278,-6.2755,-6.2679,-6.2679,-6.2603,-6.2449,-6.2449,-6.2423,-6.2391,-6.3139,-6.3545,-6.3794,-6.4598,-6.5098,0.0,0.0,0.0,0.0,0.0,0.0,0.0,0.0,0.0,0.0,0.0,0.0,0.0,0.0,0.0,0.0,0.0,0.0,0.0,0.0,0.0,0.0,0.0,0.0,0.0,0.0,0.0,0.0,0.0,0.0,0.0,0.0,0.0,0.0,0.0,0.0,0.0,-5.7143,-5.6658,0.0,-5.5563,-5.4421,-5.373,-5.3613,-5.2945,-5.2305,-5.1865,-5.1819,-5.1635,-5.1229,-5.1229,-5.1229,-5.1229,-5.1229,-5.1229,-5.1229,-5.1229,-5.1229,-5.1229,-5.1229,-5.1229,-5.1229,-5.1229,-5.1229,-5.1229,-5.1635,-5.2109,-5.2606,-5.2709,-5.2874,-5.3038,-5.2771,-5.2712,-5.2712,0.0,0.0,0.0,0.0,0.0,0.0,0.0,0.0,0.0,0.0,0.0,-6.7873,-6.7714,-6.7687,-6.7687,-6.7687,-6.7687,-6.7687,-6.7687,0.0,0.0,0.0,-6.6256,0.0,-6.4127,-6.3796,-6.3392,-6.278,-6.278,-6.2755,-6.2679,-6.2629,-6.2526,-6.2407,-6.2344,-6.2275,-6.2087,-6.1846,-6.2271,-6.3244,-6.3747,-6.4133,-6.4428,0.0,0.0,0.0,0.0,0.0,0.0,0.0,0.0,0.0,0.0,0.0,0.0,0.0,0.0,0.0,0.0,0.0,0.0,0.0,0.0,0.0,0.0,0.0,0.0,0.0,0.0,0.0,0.0,0.0,0.0,0.0,0.0,0.0,0.0,-5.7965,-5.7256,-5.6652,-5.5922,-5.5207,-5.4662,-5.3427,-5.2664,-5.2606,-5.1819,-5.1323,-5.1199,-5.1229,-5.1229,-5.1229,-5.1229,-5.1229,-5.1229,-5.1229,-5.1229,-5.1229,-5.1229,-5.1229,-5.1229,-5.1229,-5.1229,-5.1229,-5.1229,-5.1229,-5.1229,-5.1229,-5.1293,-5.1479,-5.1572,-5.1741,-5.188,-5.2017,-5.2109,-5.2109,0.0,0.0,0.0,0.0,0.0,0.0,0.0,0.0,0.0,0.0,-6.7967,-6.7873,-6.7714,-6.7687,-6.7687,-6.7687,-6.7687,-6.7687,-6.7687,-6.7677,0.0,0.0,0.0,0.0,-6.4053,-6.3246,-6.278,-6.278,-6.278,-6.278,-6.278,-6.2654,-6.2526,-6.2407,-6.2275,-6.2141,-6.1923,-6.0595,-6.0844,-6.2319,-6.3783,-6.4,-6.3533,0.0,0.0,0.0,0.0,0.0,0.0,0.0,0.0,0.0,0.0,0.0,0.0,0.0,0.0,0.0,0.0,0.0,0.0,0.0,0.0,0.0,0.0,0.0,0.0,0.0,0.0,0.0,0.0,0.0,0.0,0.0,0.0,0.0,-5.7881,-5.7181,-5.6614,-5.6575,-5.5067,-5.3976,-5.3934,-5.2918,-5.217,-5.2002,-5.1741,-5.1479,-5.1229,-5.1229,-5.1229,-5.1229,-5.1229,-5.1229,-5.1229,-5.1229,-5.1229,-5.1229,-5.1229,-5.1229,-5.1229,-5.1229,-5.1229,-5.1229,-5.1229,-5.1229,-5.1229,-5.1229,-5.1229,-5.1229,-5.1479,-5.1572,-5.1618,-5.2124,-5.2306,-5.2306,0.0,0.0,0.0,0.0,0.0,0.0,0.0,0.0,0.0,0.0,-6.803,-6.7978,-6.7741,-6.7687,-6.7687,-6.7687,-6.7687,-6.7687,-6.7687,0.0,0.0,0.0,0.0,0.0,-6.3172,-6.289,-6.278,-6.278,-6.278,-6.2755,-6.2654,-6.2629,-6.2475,-6.2238,-6.2212,-6.2141,-6.195,-6.1075,-6.1325,-6.215,-6.1534,-6.1847,-6.2774,0.0,0.0,0.0,0.0,0.0,0.0,0.0,0.0,0.0,0.0,0.0,0.0,0.0,0.0,0.0,0.0,0.0,0.0,0.0,0.0,0.0,0.0,0.0,0.0,0.0,0.0,0.0,0.0,0.0,0.0,0.0,-5.8017,-5.7881,-5.7881,-5.7698,-5.7072,-5.5796,-5.4952,-5.3988,-5.2905,-5.217,-5.1757,-5.1741,-5.1618,-5.1479,-5.1229,-5.1229,-5.1229,-5.1229,-5.1229,-5.1229,-5.1229,-5.1229,-5.1229,-5.1229,-5.1229,-5.1229,-5.1229,-5.1229,-5.1229,-5.1229,-5.1229,-5.1229,-5.1229,-5.1229,-5.1229,-5.1229,-5.1276,-5.1323,-5.1339,-5.1665,-5.1926,-5.2109,0.0,0.0,0.0,0.0,0.0,0.0,0.0,0.0,0.0,0.0,-6.8107,-6.8081,-6.7741,-6.7741,-6.7767,-6.7714,-6.7687,-6.7687,-6.7687,0.0,0.0,0.0,0.0,-6.3796,-6.2817,-6.278,-6.278,-6.278,-6.278,-6.2755,-6.2679,-6.2629,-6.2475,-6.2265,-6.2248,-6.2141,-6.195,-6.125,-6.1636,-6.2546,-6.1149,-6.1299,-6.2459,-6.2889,-6.2774,-6.2459,-6.2889,-6.3007,-6.2969,-6.2537,0.0,0.0,0.0,0.0,0.0,0.0,0.0,0.0,0.0,0.0,0.0,0.0,0.0,0.0,0.0,0.0,0.0,0.0,0.0,0.0,0.0,0.0,0.0,0.0,-5.7881,-5.7772,-5.7406,-5.7034,-5.6426,-5.5434,-5.4443,-5.3403,-5.2397,-5.1987,-5.1741,-5.1618,-5.1479,-5.1339,-5.1229,-5.1229,-5.1229,-5.1229,-5.1229,-5.1229,-5.1229,-5.1229,-5.1229,-5.1229,-5.1229,-5.1229,-5.1229,-5.1229,-5.1229,-5.1229,-5.1229,-5.1229,-5.1229,-5.1229,-5.1229,-5.1229,0.0,0.0,0.0,0.0,-5.1803,-5.2155,0.0,0.0,0.0,0.0,0.0,0.0,0.0,0.0,0.0,0.0,0.0,-6.8158,-6.7767,-6.7847,-6.7873,-6.7794,-6.7794,-6.7747,0.0,0.0,0.0,-6.5232,-6.3748,-6.2915,-6.278,-6.278,-6.278,-6.278,-6.278,-6.278,-6.278,-6.2679,-6.2526,-6.237,-6.2301,-6.2141,-6.195,-6.125,-6.1878,-6.3187,-6.1744,-6.1747,-6.2537,-6.242,-6.2381,-6.2381,-6.2381,-6.2381,-6.2381,-6.2381,0.0,0.0,0.0,0.0,0.0,0.0,0.0,0.0,0.0,0.0,0.0,0.0,0.0,0.0,0.0,0.0,0.0,0.0,0.0,0.0,0.0,0.0,0.0,0.0,-5.7881,-5.7625,-5.6729,-5.5836,-5.5239,-5.519,-5.375,-5.2622,-5.2352,-5.2109,-5.1834,-5.1618,-5.1416,-5.1276,-5.1229,-5.1229,0.0,0.0,0.0,-5.1229,-5.1229,-5.1229,-5.1229,-5.1229,-5.1229,-5.1229,-5.1229,-5.1229,-5.1229,-5.1229,-5.1229,-5.1229,-5.1229,-5.1229,-5.1229,-5.1229,-5.1229,-5.1229,-5.1276,-5.1479,-5.1895,-5.2261,0.0,0.0,0.0,0.0,0.0,0.0,0.0,0.0,0.0,-6.89,-6.848,-6.8183,-6.7899,-6.7899,-6.7993,-6.8222,-6.8247,-6.8145,0.0,0.0,-6.5837,-6.4874,-6.4193,-6.3503,-6.2842,-6.278,-6.278,-6.278,-6.278,-6.278,-6.278,-6.2755,-6.2629,-6.2407,-6.2344,-6.2248,-6.195,-6.125,-6.1878,-6.3187,-6.1744,-6.2043,-6.3233,-6.2654,-6.2381,-6.2381,-6.2381,-6.2381,-6.2381,-6.2381,-6.2381,-6.2381,-6.2381,-6.2381,0.0,0.0,0.0,0.0,0.0,0.0,0.0,0.0,0.0,0.0,0.0,0.0,0.0,0.0,0.0,0.0,0.0,0.0,0.0,-5.7915,-5.7881,-5.7625,-5.6729,-5.5836,-5.5067,-5.4317,-5.3632,-5.2962,-5.2352,-5.1895,-5.1695,-5.1572,-5.1741,-5.1649,-5.1229,-5.1416,-5.1386,-5.1229,-5.1229,-5.1229,-5.1229,-5.1229,-5.1229,-5.1229,-5.1229,0.0,-5.1229,-5.1229,-5.1229,-5.1229,-5.1229,-5.1229,-5.1229,-5.1229,-5.1229,-5.1229,-5.1229,-5.1339,-5.1526,-5.1572,-5.1787,-5.2063,0.0,0.0,0.0,0.0,0.0,0.0,0.0,0.0,0.0,0.0,-6.9337,-6.8915,-6.8628,-6.8642,-6.8688,-6.8788,-6.878,0.0,0.0,-6.7672,-6.6728,-6.5671,-6.5076,-6.423,-6.3158,-6.3158,-6.3038,-6.278,-6.278,-6.278,-6.278,-6.278,-6.2679,-6.25,-6.2423,-6.2301,-6.2087,-6.1692,-6.2422,-6.3771,-6.2676,-6.2994,-6.3898,-6.2813,-6.2381,-6.2381,-6.2381,-6.2381,-6.2381,-6.2381,-6.2381,-6.2381,-6.2381,-6.2381,-6.2381,0.0,0.0,0.0,0.0,0.0,0.0,0.0,0.0,0.0,0.0,0.0,0.0,0.0,0.0,-5.8457,-5.8457,0.0,-5.7881,-5.7881,-5.7881,-5.7625,-5.6729,-5.5836,-5.4985,-5.4105,-5.3403,-5.2815,-5.2352,-5.2079,-5.1849,-5.1618,-5.1741,-5.1649,-5.1229,-5.1323,-5.1386,-5.1386,-5.1386,-5.1463,-5.1602,-5.1602,-5.1602,-5.1602,-5.1602,-5.1509,-5.1386,-5.1386,-5.1323,-5.1229,-5.1229,-5.1229,-5.1229,-5.1229,-5.1276,-5.1386,-5.1386,-5.1386,-5.1386,-5.1386,-5.1556,-5.1834,0.0,0.0,0.0,0.0,0.0,0.0,0.0,0.0,0.0,0.0,-7.0233,-6.9625,-6.9353,-6.9371,-6.9408,0.0,0.0,0.0,0.0,-6.8445,-6.7576,-6.6773,-6.5885,-6.4853,-6.3646,-6.3557,-6.3308,-6.2953,-6.2855,-6.278,-6.278,-6.278,-6.273,-6.2603,-6.2475,-6.2453,-6.244,-6.2305,-6.3192,-6.4556,-6.3836,-6.4063,-6.4669,-6.3311,-6.2659,-6.2381,-6.2381,-6.2381,-6.2381,-6.2381,-6.2381,-6.2381,-6.2381,-6.2381,-6.2347,-6.2212,-6.2178,0.0,0.0,0.0,0.0,0.0,0.0,0.0,0.0,-5.9201,-5.8795,-5.8795,-5.8321,-5.7881,-5.7881,-5.7881,-5.7881,-5.7881,-5.7881,-5.7517,-5.6498,-5.5756,-5.4943,-5.3879,-5.3113,-5.2563,-5.2306,-5.2261,-5.2079,-5.1741,-5.1711,-5.1618,-5.1369,-5.1386,-5.1479,-5.1695,-5.1695,-5.1787,-5.2002,-5.2002,-5.2002,-5.2002,-5.2002,-5.188,-5.1695,-5.1695,-5.1556,-5.1369,-5.1369,-5.1369,-5.1369,-5.1369,-5.1509,-5.1695,-5.1695,-5.1556,-5.1369,-5.1369,-5.1419,-5.153,0.0,0.0,0.0,0.0,0.0,0.0,0.0,0.0,0.0,0.0,0.0,0.0,0.0,0.0,0.0,0.0,0.0,0.0,-7.023,-6.879,-6.77,-6.724,-6.6045,-6.4977,-6.4053,-6.3674,-6.3468,-6.3422,-6.299,-6.278,-6.278,-6.278,-6.273,-6.2603,-6.2578,-6.2824,-6.3276,-6.3248,-6.4109,-6.5388,-6.466,-6.4848,-6.5468,-6.4669,-6.3533,-6.2381,-6.2381,-6.2381,-6.2381,-6.2381,-6.2381,-6.2381,-6.2381,-6.2381,-6.2245,-6.1603,-6.1434,-6.1264,-6.0554,-6.0283,-6.0047,-5.9336,-5.9133,-5.8964,0.0,-5.8084,-5.8017,-5.8017,-5.7949,-5.7881,-5.7881,-5.7881,-5.7881,-5.7881,-5.7881,-5.7331,-5.5676,-5.5353,-5.4694,-5.3024,-5.2532,-5.2352,-5.2306,-5.2155,-5.2002,-5.1956,-5.2124,-5.2124,-5.1926,-5.2079,-5.2079,-5.1956,-5.1956,-5.2002,-5.2002,-5.2002,-5.2002,-5.2002,-5.2002,-5.2002,-5.1956,-5.1956,-5.1956,-5.191,-5.191,-5.191,-5.191,-5.191,-5.1956,-5.1956,-5.1956,-5.1956,-5.191,-5.191,-5.1562,-5.1091,0.0,0.0,0.0,0.0,0.0,0.0,0.0,0.0,0.0,0.0,0.0,0.0,0.0,0.0,0.0,0.0,0.0,0.0,-7.0402,-6.9749,-6.9089,-6.8447,-6.7891,-6.6859,-6.5219,-6.4807,-6.4224,-6.349,-6.3014,-6.278,-6.278,-6.278,-6.3037,-6.3463,-6.3361,-6.3696,-6.4356,-6.4239,-6.484,-6.5812,-6.5518,-6.5599,-6.5878,-6.5497,-6.4735,-6.3829,-6.3237,-6.2774,0.0,0.0,-6.2381,-6.2313,-6.1907,-6.1772,-6.1603,-6.0825,-6.0588,-6.0419,-5.9674,-5.9471,-5.9302,-5.8524,-5.8355,-5.8287,-5.7949,-5.7881,-5.7881,-5.7881,-5.7881,-5.7881,-5.7881,-5.7881,-5.7881,-5.7881,-5.7881,-5.748,-5.6231,-5.5636,-5.4861,-5.3577,-5.2935,-5.2518,-5.2518,-5.2473,-5.2337,-5.22,-5.2261,-5.2215,-5.2002,-5.2063,-5.2155,-5.22,-5.22,-5.2246,-5.2413,-5.2413,-5.2413,-5.2413,-5.2413,-5.2337,-5.22,-5.22,-5.2109,-5.2002,-5.2002,-5.2002,-5.2002,-5.1834,-5.1926,-5.2094,-5.1592,-5.1576,-5.1756,-5.1516,-5.1243,-5.0984,0.0,0.0,0.0,0.0,0.0,0.0,0.0,0.0,0.0,0.0,0.0,0.0,0.0,0.0,0.0,0.0,0.0,0.0,0.0,-7.0419,-7.0037,-6.9234,-6.9196,-6.8357,-6.6543,-6.6011,-6.5266,-6.4361,-6.375,-6.3477,-6.3477,-6.3477,-6.3833,-6.442,-6.4281,-6.4642,-6.5384,-6.524,-6.5624,-6.6335,-6.6335,-6.6373,-6.6404,-6.6283,-6.5878,-6.5166,-6.4005,-6.3233,0.0,0.0,-6.2285,-6.2009,-6.1467,-6.1163,-6.0825,-6.0047,-5.9641,-5.937,-5.8863,-5.8693,-5.8592,-5.8017,-5.7881,-5.7881,-5.7881,-5.7881,-5.7881,-5.7881,-5.7881,-5.7881,-5.7881,-5.7881,-5.7881,-5.7881,-5.7881,-5.7517,-5.642,-5.5716,-5.4902,-5.3793,-5.3069,-5.2698,-5.2698,-5.2698,-5.2608,-5.2397,-5.2397,-5.2337,-5.2231,-5.2185,-5.2246,-5.2397,-5.2397,-5.2518,-5.2698,-5.2698,-5.2698,-5.2698,-5.2698,-5.2608,-5.2397,-5.2397,-5.2337,-5.2185,-5.2185,-5.2185,-5.2185,-5.1972,-5.2033,-5.2245,-5.1469,-5.1359,-5.1519,-5.0886,-5.0631,-5.0584,0.0,0.0,0.0,0.0,0.0,0.0,0.0,0.0,0.0,0.0,0.0,0.0,0.0,0.0,0.0,0.0,0.0,0.0,0.0,-7.0451,-7.0037,-6.9234,-6.9196,-6.8776,-6.7859,-6.7014,-6.6537,-6.6516,-6.5656,-6.5228,-6.5228,-6.5228,-6.5264,-6.5264,-6.5238,-6.5563,-6.6162,-6.6162,-6.6555,-6.7174,-6.7174,-6.7174,-6.7182,-6.7182,-6.6707,-6.5842,-6.4358,0.0,0.0,0.0,-6.2096,-6.1332,-6.1298,-6.0757,-5.9979,-5.9268,-5.8524,-5.7949,-5.7915,-5.7915,-5.7915,-5.7881,-5.7881,-5.7881,-5.7881,-5.7881,-5.7881,-5.7881,-5.7881,-5.7881,-5.7881,-5.7881,-5.7881,-5.7881,-5.7881,-5.7331,-5.5595,-5.5312,-5.4653,-5.2966,-5.2729,-5.2698,-5.2698,-5.2698,-5.2698,-5.2698,-5.2698,-5.2684,-5.2684,-5.2684,-5.2653,-5.2698,-5.2698,-5.2698,-5.2698,-5.2698,-5.2698,-5.2698,-5.2698,-5.2698,-5.2698,-5.2698,-5.2653,-5.2684,-5.2684,-5.2684,-5.2684,-5.2653,-5.2518,-5.229,-5.1871,-5.1506,-5.1189,-5.0119,-4.9743,-4.9743,0.0,0.0,0.0,0.0,0.0,0.0,0.0,0.0,0.0,0.0,0.0,0.0,0.0,0.0,0.0,0.0,0.0,0.0,0.0,-7.0585,-7.0423,-7.0155,-7.0031,-6.9616,-6.8776,-6.8164,-6.76,-6.7051,-6.6195,-6.5742,-6.5779,-6.5444,-6.5595,-6.6109,-6.6109,-6.6523,-6.7203,-6.7203,-6.7322,-6.7515,-6.7515,-6.7515,-6.7515,-6.7442,-6.7294,-6.7024,0.0,0.0,0.0,0.0,-6.2832,-6.1963,-6.0849,-5.9979,-5.9235,-5.849,-5.8084,-5.7881,-5.7881,-5.7881,-5.7881,-5.7881,-5.7881,-5.7881,-5.7881,-5.7881,-5.7881,-5.7881,-5.7881,-5.7881,-5.7881,-5.7881,-5.7881,-5.7881,-5.7881,-5.7293,-5.5555,-5.5312,-5.4653,-5.2922,-5.2698,-5.2698,-5.2698,-5.2698,-5.2698,-5.2698,-5.2698,-5.2698,-5.2698,-5.2698,-5.2698,-5.2698,-5.2698,-5.2698,-5.2698,-5.2698,-5.2698,-5.2698,-5.2698,-5.2698,-5.2698,-5.2698,-5.2698,-5.2698,-5.2698,-5.2698,-5.2684,-5.2337,-5.1971,-5.1573,-5.0812,-5.0293,-4.9904,-4.9228,-4.8974,-4.8974,0.0,0.0,0.0,0.0,0.0,0.0,0.0,0.0,0.0,0.0,0.0,0.0,0.0,0.0,0.0,0.0,0.0,-7.0772,0.0,0.0,-7.0632,-7.0632,-7.0538,-7.0222,-6.9703,-6.9219,-6.8697,-6.8204,-6.7298,-6.6858,-6.6858,-6.6367,-6.6439,-6.6916,-6.6916,-6.721,-6.7687,-6.7687,-6.7871,-6.8091,-6.7797,-6.7871,-6.8091,-6.7716,-6.7606,0.0,0.0,0.0,0.0,0.0,-6.3345,-6.202,-6.0926,-5.9667,-5.8524,-5.8017,-5.7881,-5.7881,-5.7881,-5.7881,-5.7881,-5.7881,-5.7881,-5.7881,-5.7881,-5.7881,-5.7881,-5.7881,-5.7881,-5.7881,-5.7881,-5.7881,-5.7881,-5.7881,-5.7881,-5.7406,-5.5955,-5.5515,-5.4778,-5.3346,-5.2877,-5.2698,-5.2698,-5.2698,-5.2698,-5.2698,-5.2698,-5.2698,-5.2698,-5.2698,-5.2698,-5.2698,-5.2698,-5.2698,-5.2698,-5.2698,-5.2698,-5.2698,-5.2698,-5.2698,-5.2698,-5.2698,-5.2698,-5.2698,-5.2698,-5.2698,-5.2653,-5.2137,-5.168,-5.1206,-5.0201,-4.9591,-4.9219,-4.8798,-4.8604,-4.8604,0.0,0.0,0.0,0.0,0.0,0.0,0.0,0.0,0.0,0.0,0.0,0.0,0.0,0.0,0.0,0.0,0.0,0.0,0.0,0.0,0.0,-7.0723,-7.0632,-7.0623,-7.0623,-7.0091,-6.9853,-6.9853,-6.8915,-6.8467,-6.8442,-6.7967,-6.7741,-6.7687,-6.7687,-6.7687,-6.7687,-6.7687,-6.8128,-6.8788,-6.8017,-6.8164,-6.8752,-6.7981,0.0,0.0,0.0,0.0,-6.746,-6.5873,-6.3647,-6.1467,-6.1363,-5.9764,-5.7881,-5.7881,-5.7881,-5.7881,-5.7881,-5.7881,-5.7881,-5.7881,-5.7881,-5.7881,-5.7881,-5.7881,-5.7881,-5.7881,-5.7881,-5.7881,-5.7881,-5.7881,-5.7881,-5.7881,-5.7881,-5.7625,-5.6729,-5.5836,-5.4985,-5.4105,-5.3214,-5.2698,-5.2698,-5.2698,-5.2698,-5.2698,-5.2698,-5.2698,-5.2698,-5.2698,-5.2698,-5.2698,-5.2698,-5.2698,-5.2698,-5.2698,-5.2698,-5.2698,-5.2698,-5.2698,-5.2698,-5.2698,-5.2698,-5.2698,-5.2698,-5.2698,-5.2667,-5.199,-5.1519,-5.1158,-5.0088,-4.9481,-4.9219,-4.8767,-4.8604,-4.8604,0.0,0.0,0.0,0.0,0.0,0.0,0.0,0.0,0.0,0.0,0.0,0.0,0.0,0.0,0.0,0.0,0.0,0.0,0.0,0.0,0.0,0.0,0.0,0.0,0.0,0.0,0.0,0.0,0.0,-6.9261,-6.8915,-6.8442,-6.8033,-6.7687,-6.7687,-6.7687,-6.7687,-6.7687,-6.7797,-6.7981,0.0,-6.7797,-6.7981,0.0,0.0,0.0,0.0,0.0,-6.7515,-6.6493,-6.4076,-6.1189,-5.9382,-5.8405,-5.7881,-5.7881,-5.7881,-5.7881,-5.7881,-5.7881,-5.7881,-5.7881,-5.7881,-5.7881,-5.7881,-5.7881,-5.7881,-5.7881,-5.7881,-5.7881,-5.7881,-5.7881,-5.7881,-5.7881,-5.7881,-5.7625,-5.6729,-5.5836,-5.4985,-5.4105,-5.3214,-5.2698,-5.2698,-5.2698,-5.2698,-5.2698,-5.2698,-5.2698,-5.2698,-5.2698,-5.2698,-5.2698,-5.2698,-5.2698,-5.2698,-5.2698,-5.2698,-5.2698,-5.2698,-5.2698,-5.2698,-5.2698,-5.2698,-5.2698,-5.2698,-5.2698,-5.2622,-5.1782,-5.1067,-5.0472,-4.969,-4.9047,-4.8588,-4.8613,-4.8604,-4.8604,0.0,0.0,0.0,0.0,0.0,0.0,0.0,0.0,0.0,0.0,0.0,0.0,0.0,0.0,0.0,0.0,0.0,0.0,0.0,0.0,0.0,0.0,0.0,0.0,0.0,0.0,0.0,0.0,0.0,0.0,0.0,-6.8595,-6.816,-6.7687,-6.7687,-6.7687,-6.7687,0.0,0.0,0.0,0.0,0.0,0.0,0.0,0.0,0.0,0.0,-6.7467,-6.6966,-6.5465,-6.3229,-6.0739,-5.8583,-5.7881,-5.7881,-5.7881,-5.7881,-5.7881,-5.7881,-5.7881,-5.7881,-5.7881,-5.7881,-5.7881,-5.7881,-5.7881,-5.7881,-5.7881,-5.7881,-5.7881,-5.7881,-5.7881,-5.7881,-5.7881,-5.7881,-5.7735,-5.7256,-5.6074,-5.5149,-5.4653,-5.3477,-5.2698,-5.2698,-5.2698,-5.2698,-5.2698,-5.2698,-5.2698,-5.2698,-5.2698,-5.2698,-5.2698,-5.2698,-5.2698,-5.2698,-5.2698,-5.2698,-5.2698,-5.2698,-5.2698,-5.2698,-5.2698,-5.2698,-5.2698,-5.2698,-5.2698,-5.2592,-5.1519,-5.0831,-5.0401,-4.9377,-4.8764,-4.8469,-4.8563,-4.8604,-4.8604,0.0,0.0,0.0,0.0,0.0,0.0,0.0,0.0,0.0,0.0,0.0,0.0,0.0,0.0,0.0,0.0,0.0,0.0,0.0,0.0,0.0,0.0,0.0,0.0,0.0,0.0,0.0,0.0,0.0,0.0,0.0,0.0,0.0,0.0,0.0,0.0,0.0,0.0,0.0,0.0,0.0,0.0,0.0,0.0,0.0,0.0,0.0,-6.7146,-6.6025,-6.3914,-6.2107,-6.0386,-5.8554,-5.7918,-5.7918,-5.7918,-5.7918,-5.7881,-5.7881,-5.7881,-5.7881,-5.7881,-5.7881,-5.7881,-5.7881,-5.7881,-5.7881,-5.7881,-5.7881,-5.7881,-5.7881,-5.7881,-5.7881,-5.7881,-5.7881,-5.7881,-5.7881,-5.6387,-5.5312,-5.5312,-5.375,-5.2698,-5.2698,-5.2698,-5.2698,-5.2698,-5.2698,-5.2698,-5.2698,-5.2698,-5.2698,-5.2698,-5.2698,-5.2698,-5.2698,-5.2698,-5.2698,-5.2698,-5.2698,-5.2698,-5.2698,-5.2698,-5.2698,-5.2698,-5.2698,-5.2698,-5.2606,-5.1251,-5.0697,-5.0543,-4.9158,-4.8604,-4.8604,-4.8604,-4.8604,-4.8604,0.0,0.0,0.0,0.0,0.0,0.0,0.0,0.0,0.0,0.0,-7.6438,-7.6015,0.0,0.0,0.0,0.0,0.0,0.0,0.0,0.0,0.0,0.0,0.0,0.0,0.0,0.0,-7.0729,-7.0693,-7.0554,0.0,0.0,0.0,0.0,0.0,0.0,0.0,0.0,0.0,0.0,0.0,0.0,0.0,0.0,0.0,0.0,0.0,-6.7687,-6.6829,-6.548,-6.4238,-6.279,-6.1075,-5.9047,-5.8171,-5.7918,-5.8099,-5.8027,-5.7881,-5.7881,-5.7881,-5.7881,-5.7881,-5.7881,-5.7881,-5.7881,-5.7881,-5.7881,-5.7881,-5.7881,-5.7881,-5.7881,-5.7881,-5.7881,-5.7881,-5.7881,-5.7881,-5.7881,-5.6387,-5.5312,-5.5312,-5.375,-5.2698,-5.2698,-5.2698,-5.2698,-5.2698,-5.2698,-5.2698,-5.2698,-5.2698,-5.2698,-5.2698,-5.2698,-5.2698,-5.2698,-5.2698,-5.2698,-5.2698,-5.2698,-5.2698,-5.2698,-5.2698,-5.2698,-5.2698,-5.2698,-5.2698,-5.2606,-5.1251,-5.0697,-5.0543,-4.9158,-4.8604,-4.8604,-4.8604,-4.8604,-4.8604,0.0,0.0,0.0,0.0,0.0,0.0,0.0,-7.9131,-7.8284,-7.74,-7.6938,-7.6515,-7.6053,-7.6015,-7.6015,0.0,0.0,0.0,0.0,0.0,0.0,0.0,0.0,0.0,0.0,-7.2203,-7.216,-7.2033,0.0,-7.118,-7.0455,-7.012,-6.9608,-6.8935,-6.8495,-6.8311,0.0,0.0,0.0,0.0,0.0,0.0,0.0,0.0,0.0,0.0,0.0,-6.6719,-6.525,-6.4452,-6.3012,-6.1289,-5.9518,-5.8841,-5.8633,-5.8314,-5.8135,-5.8027,-5.7918,-5.7881,-5.7881,-5.7881,-5.7881,-5.7881,-5.7881,-5.7881,-5.7881,-5.7881,-5.7881,-5.7881,-5.7881,-5.7881,-5.7881,-5.7881,-5.7881,-5.7881,-5.7881,-5.6806,-5.5796,-5.5353,-5.4147,-5.3201,-5.2743,-5.2698,-5.2698,-5.2698,-5.2698,-5.2698,-5.2698,-5.2698,-5.2698,-5.2698,-5.2698,-5.2698,-5.2698,-5.2698,-5.2698,-5.2698,-5.2698,-5.2698,-5.2698,-5.2698,-5.2698,-5.2698,-5.2698,-5.2698,-5.2606,-5.1251,-5.0697,-5.0543,-4.9158,-4.8604,-4.8604,-4.8604,-4.8604,-4.8604,0.0,0.0,0.0,0.0,0.0,0.0,0.0,-7.9939,-7.9323,-7.8015,-7.7515,-7.7053,-7.6361,-7.6092,-7.6015,0.0,0.0,0.0,0.0,0.0,0.0,0.0,0.0,0.0,0.0,0.0,0.0,-7.3321,-7.2792,0.0,0.0,0.0,0.0,0.0,-6.9449,-6.9155,-6.9119,-6.8311,0.0,0.0,0.0,-6.7687,0.0,0.0,0.0,0.0,0.0,-6.6769,-6.5443,-6.4758,-6.3448,-6.1876,-6.0371,-5.9706,-5.9279,-5.8668,-5.8385,-5.8169,-5.7991,-5.7918,-5.7881,-5.7881,-5.7881,-5.7881,-5.7881,-5.7881,-5.7881,-5.7881,-5.7881,-5.7881,-5.7881,-5.7881,-5.7881,-5.7881,-5.7881,-5.7881,-5.7881,-5.7181,-5.6303,-5.5393,-5.4527,-5.3664,-5.2788,-5.2698,-5.2698,-5.2698,-5.2698,-5.2698,-5.2698,-5.2698,-5.2698,-5.2698,-5.2698,-5.2698,-5.2698,-5.2698,-5.2698,-5.2698,-5.2698,-5.2698,-5.2698,-5.2698,-5.2698,-5.2698,-5.2698,-5.2637,-5.239,-5.119,-5.0605,-5.0359,-4.9097,-4.8604,-4.8604,-4.8604,-4.8604,-4.8604,0.0,0.0,0.0,0.0,0.0,0.0,0.0,-8.0323,-7.9746,-7.9592,-7.8246,-7.7284,-7.7169,-7.6476,-7.6015,0.0,0.0,0.0,0.0,0.0,0.0,0.0,0.0,0.0,0.0,0.0,0.0,-7.3321,-7.2881,0.0,0.0,0.0,0.0,0.0,0.0,-7.0,-6.9926,-6.9119,0.0,0.0,0.0,0.0,0.0,0.0,0.0,0.0,0.0,-6.7136,-6.6292,-6.5506,-6.46,-6.3617,-6.2114,-6.061,-5.9412,-5.9513,-5.8909,-5.8205,-5.8205,-5.8027,-5.7881,-5.7881,-5.7881,-5.7881,-5.7881,-5.7881,-5.7881,-5.7881,-5.7881,-5.7881,-5.7881,-5.7881,-5.7881,-5.7881,-5.7881,-5.7881,-5.7881,-5.7181,-5.6303,-5.5393,-5.4527,-5.3664,-5.2788,-5.2698,-5.2698,-5.2698,-5.2698,-5.2698,-5.2698,-5.2698,-5.2698,-5.2698,-5.2698,-5.2698,-5.2698,-5.2698,-5.2698,-5.2698,-5.2698,-5.2698,-5.2698,-5.2698,-5.2698,-5.2698,-5.2698,-5.2359,-5.1744,-5.1005,-5.0328,-4.9712,-4.8912,-4.8604,-4.8604,-4.8604,-4.8604,-4.8604,0.0,0.0,0.0,0.0,0.0,0.0,-8.1093,-8.0823,-8.04,-7.9862,-7.8746,-7.7823,-7.7361,-7.6515,-7.6015,-7.6015,0.0,0.0,0.0,0.0,0.0,0.0,0.0,0.0,0.0,0.0,-7.5,-7.4932,-7.4157,0.0,0.0,0.0,0.0,0.0,0.0,-7.0844,-7.0734,-6.9449,0.0,0.0,0.0,0.0,0.0,0.0,0.0,0.0,0.0,0.0,-6.5742,-6.5411,-6.442,-6.3195,-6.2625,-6.1751,-6.0766,-5.9966,-5.9314,-5.8841,-5.835,-5.8027,-5.7881,-5.7881,-5.7881,-5.7881,-5.7881,-5.7881,-5.7881,-5.7881,-5.7881,-5.7881,-5.7881,-5.7881,-5.7881,-5.7881,-5.7881,-5.7881,-5.7881,-5.7591,-5.6882,-5.5474,-5.4985,-5.4232,-5.2833,-5.2698,-5.2698,-5.2698,-5.2698,-5.2698,-5.2698,-5.2698,-5.2698,-5.2698,-5.2698,-5.2698,-5.2698,-5.2698,-5.2698,-5.2698,-5.2698,-5.2698,-5.2698,-5.2698,-5.2698,-5.2698,-5.2698,-5.2329,-5.1652,-5.0974,-5.0297,-4.962,-4.8881,-4.8604,-4.8604,-4.8604,-4.8604,-4.8604,0.0,0.0,0.0,0.0,0.0,-8.1093,-8.1093,-8.1093,-8.09,-8.0246,-7.9208,-7.8284,-7.7707,-7.6669,-7.6015,-7.6015,-7.6015,0.0,0.0,0.0,0.0,0.0,0.0,0.0,0.0,0.0,-7.6015,-7.6015,-7.5038,-7.4481,0.0,0.0,-7.2667,-7.2496,0.0,0.0,0.0,0.0,0.0,0.0,0.0,0.0,0.0,0.0,0.0,0.0,0.0,0.0,0.0,0.0,0.0,-6.278,-6.278,-6.249,-6.1897,-6.0463,-5.9739,-5.9247,-5.8491,-5.8099,-5.7881,-5.7881,-5.7881,-5.7881,-5.7881,-5.7881,-5.7881,-5.7881,-5.7881,-5.7881,-5.7881,-5.7881,-5.7881,-5.7881,-5.7881,-5.7881,-5.7881,-5.7881,-5.7368,-5.5876,-5.5676,-5.4985,-5.3246,-5.2833,-5.2698,-5.2698,-5.2698,-5.2698,-5.2698,-5.2698,-5.2698,-5.2698,-5.2698,-5.2698,-5.2698,-5.2698,-5.2698,-5.2698,-5.2698,-5.2698,-5.2698,-5.2698,-5.2698,-5.2698,-5.2698,-5.2206,-5.1374,-5.0882,-5.0174,-4.9312,-4.882,-4.8604,-4.8604,-4.8604,-4.8604,-4.8604,0.0,0.0,0.0,0.0,0.0,0.0,-8.1093,-8.1093,-8.1093,-8.1093,-7.9592,-7.8477,-7.8477,-7.7015,-7.6015,-7.6015,-7.6015,0.0,0.0,0.0,0.0,0.0,0.0,0.0,0.0,0.0,-7.6015,-7.6015,-7.5112,-7.4564,-7.4271,-7.3401,-7.2816,-7.2496,0.0,0.0,0.0,0.0,0.0,0.0,0.0,0.0,0.0,0.0,0.0,0.0,0.0,0.0,0.0,0.0,0.0,0.0,0.0,-6.278,-6.2541,-6.1265,-6.018,-5.9281,-5.8667,-5.8171,-5.7881,-5.7881,-5.7881,-5.7881,-5.7881,-5.7881,-5.7881,-5.7881,-5.7881,-5.7881,-5.7881,-5.7881,-5.7881,-5.7881,-5.7881,-5.7881,-5.7881,-5.7881,-5.7554,-5.6691,-5.6575,-5.5915,-5.4147,-5.3201,-5.2698,-5.2698,-5.2698,-5.2698,-5.2698,-5.2698,-5.2698,-5.2698,-5.2698,-5.2698,-5.2698,-5.2698,-5.2698,-5.2698,-5.2698,-5.2698,-5.2698,-5.2698,-5.2698,-5.2698,-5.2698,-5.1959,-5.0697,-5.0697,-4.9866,-4.8635,-4.8604,-4.8604,-4.8604,-4.8604,-4.8604,-4.8604,0.0,0.0,0.0,0.0,0.0,0.0,0.0,-8.1093,-8.1093,-8.1093,-8.0092,-7.9169,-7.8554,-7.7553,-7.663,-7.6053,-7.6015,0.0,0.0,0.0,0.0,0.0,0.0,0.0,0.0,-7.6015,-7.6015,-7.6015,-7.5112,-7.4564,-7.4271,-7.3401,-7.2816,-7.2496,-7.2496,-7.2202,0.0,0.0,0.0,0.0,0.0,0.0,-6.7687,0.0,0.0,0.0,0.0,0.0,0.0,0.0,0.0,0.0,0.0,0.0,0.0,-6.1806,-6.0974,-6.0121,-5.9347,-5.8632,-5.8063,-5.7918,-5.7881,-5.7881,-5.7881,-5.7881,-5.7881,-5.7881,-5.7881,-5.7881,-5.7881,-5.7881,-5.7881,-5.7881,-5.7881,-5.7881,-5.7881,-5.7881,-5.7588,-5.6691,-5.5555,-5.4359,-5.3246,-5.2877,-5.2698,-5.2698,-5.2698,-5.2698,-5.2698,-5.2698,-5.2698,-5.2698,-5.2698,-5.2698,-5.2698,-5.2698,-5.2698,-5.2698,-5.2698,-5.2698,-5.2698,-5.2698,-5.2698,-5.2698,-5.2698,-5.2206,-5.1344,-5.0882,-5.0174,-4.9281,-4.882,-4.8604,-4.8604,-4.8604,-4.8604,-4.8604,0.0,0.0,0.0,0.0,0.0,0.0,0.0,-8.1093,-8.1093,-8.1093,-8.0323,-7.9592,-7.9054,-7.7977,-7.7092,-7.6553,-7.6207,0.0,0.0,0.0,0.0,0.0,0.0,0.0,-7.6015,-7.6015,-7.6015,-7.6015,-7.5112,-7.4564,-7.4271,-7.3401,-7.2816,-7.2496,-7.2496,-7.2055,0.0,0.0,0.0,0.0,0.0,0.0,-6.7687,0.0,0.0,0.0,0.0,0.0,0.0,0.0,0.0,0.0,0.0,0.0,0.0,0.0,-6.1556,-6.0615,-5.9739,-5.8875,-5.8171,-5.8027,-5.7954,-5.7881,-5.7881,-5.7881,-5.7881,-5.7881,-5.7881,-5.7881,-5.7881,-5.7881,-5.7881,-5.7881,-5.7881,-5.7881,-5.7881,-5.7881,-5.7588,-5.6691,-5.5353,-5.4147,-5.329,-5.2922,-5.2698,-5.2698,-5.2698,-5.2698,-5.2698,-5.2698,-5.2698,-5.2698,-5.2698,-5.2698,-5.2698,-5.2698,-5.2698,-5.2698,-5.2698,-5.2698,-5.2698,-5.2698,-5.2698,-5.2698,-5.2698,-5.2329,0.0,-5.0974,-5.0297,-4.962,-4.8881,-4.8604,-4.8604,-4.8604,-4.8604,-4.8604,0.0,0.0,0.0,0.0,0.0,0.0,0.0,-8.1093,-8.1093,-8.1093,-8.04,-7.9862,-7.9823,-7.84,-7.7438,-7.7323,0.0,0.0,0.0,0.0,0.0,0.0,0.0,0.0,-7.6015,-7.6015,-7.5962,-7.5947,-7.5112,-7.4544,-7.4228,-7.3401,-7.2844,-7.2496,-7.2496,-7.2018,0.0,0.0,0.0,0.0,-6.7687,-6.7687,0.0,0.0,0.0,0.0,0.0,0.0,0.0,0.0,0.0,0.0,0.0,0.0,0.0,0.0,0.0,0.0,0.0,-5.9012,-5.8241,-5.8171,-5.8027,-5.7881,-5.7881,-5.7881,0.0,-5.7881,-5.7881,-5.7881,-5.7881,-5.7881,-5.7881,-5.7881,-5.7881,-5.7881,-5.7881,-5.7881,-5.7588,-5.6691,-5.5836,-5.4985,-5.4062,-5.3214,-5.2698,-5.2698,-5.2698,-5.2698,-5.2698,-5.2698,-5.2698,-5.2698,-5.2698,-5.2698,-5.2698,-5.2698,-5.2698,-5.2698,-5.2698,-5.2698,-5.2698,-5.2698,-5.2698,-5.2698,-5.2698,-5.2359,-5.1713,-5.1005,-5.0328,-4.9682,-4.8912,-4.8604,-4.8604,-4.8604,-4.8604,-4.8604,0.0,0.0,0.0,0.0,0.0,0.0,0.0,0.0,0.0,0.0,-8.0939,-8.0554,-7.9862,-7.9438,-7.8707,0.0,0.0,0.0,0.0,0.0,0.0,0.0,0.0,0.0,-7.6015,-7.6015,-7.5818,-7.5485,-7.4962,-7.4417,-7.3902,-7.3283,-7.2899,-7.2638,-7.2553,-7.1725,0.0,0.0,0.0,0.0,-6.7687,-6.7687,0.0,0.0,0.0,0.0,-6.7687,-6.7173,0.0,0.0,0.0,0.0,0.0,0.0,0.0,0.0,-6.1915,-6.0849,-6.0676,0.0,-5.8384,-5.8241,-5.8027,-5.7881,0.0,-5.7881,-5.7881,-5.7881,-5.7881,-5.7881,-5.7881,-5.7881,-5.7881,-5.7881,-5.7881,-5.7881,-5.7881,-5.7881,-5.7588,-5.6691,-5.5836,-5.4985,-5.4062,-5.3214,-5.2698,-5.2698,-5.2698,-5.2698,-5.2698,-5.2698,-5.2698,-5.2698,-5.2698,-5.2698,-5.2698,-5.2698,-5.2698,-5.2698,-5.2698,-5.2698,-5.2698,-5.2698,-5.2698,-5.2698,-5.2698,-5.2637,-5.239,-5.119,-5.0605,-5.0328,-4.9097,-4.8604,-4.8604,-4.8604,-4.8604,-4.8604,0.0,0.0,0.0,0.0,0.0,0.0,0.0,0.0,0.0,0.0,0.0,0.0,0.0,0.0,0.0,0.0,0.0,0.0,0.0,0.0,0.0,0.0,0.0,-7.6015,-7.6015,-7.6015,-7.5787,-7.531,-7.4923,-7.4374,-7.3798,-7.3257,-7.2899,-7.2658,-7.1782,-7.0697,-6.9486,-6.8201,-6.7687,-6.7687,-6.7687,0.0,0.0,0.0,0.0,0.0,-6.7687,-6.7393,0.0,-6.5705,-6.5007,-6.442,0.0,0.0,0.0,0.0,-6.1696,-6.0855,-6.0555,-5.958,-5.8596,-5.849,-5.8243,-5.8027,-5.8027,-5.7954,-5.7881,-5.7881,-5.7881,-5.7881,-5.7881,-5.7881,-5.7881,-5.7881,-5.7881,-5.7881,-5.7881,-5.7881,-5.7588,-5.6691,-5.6152,-5.5555,-5.4694,-5.3793,-5.3302,-5.3302,-5.2922,-5.2698,-5.2698,-5.2698,-5.2698,-5.2698,-5.2698,-5.2698,-5.2698,-5.2698,-5.2698,-5.2698,-5.2698,-5.2698,-5.2698,-5.2698,-5.2698,-5.2698,-5.2698,-5.2698,-5.2606,-5.1251,-5.0697,-5.0543,-4.9158,-4.8604,-4.8604,-4.8604,-4.8604,-4.8604,0.0,0.0,0.0,0.0,0.0,0.0,0.0,0.0,0.0,0.0,0.0,0.0,0.0,0.0,0.0,0.0,0.0,0.0,0.0,0.0,0.0,0.0,-7.6015,-7.6015,-7.6015,-7.6015,-7.5756,-7.5221,-7.4884,-7.4353,-7.3725,-7.3231,-7.2826,-7.2409,-7.0826,-6.9633,-6.8862,-6.8017,-6.7687,-6.7687,-6.7687,0.0,0.0,0.0,0.0,0.0,0.0,0.0,0.0,-6.5815,-6.5228,-6.4861,-6.3319,0.0,0.0,0.0,0.0,0.0,-6.016,-5.9383,-5.8771,-5.8736,-5.849,-5.8171,-5.8135,-5.8027,-5.7881,-5.7881,-5.7881,-5.7881,-5.7881,-5.7881,-5.7881,-5.7881,-5.7881,-5.7881,-5.7881,-5.7881,-5.7625,-5.6882,-5.6691,-5.6309,-5.5595,-5.4611,-5.3976,-5.3976,-5.3201,-5.2698,-5.2698,-5.2698,-5.2698,-5.2698,-5.2698,-5.2698,-5.2698,-5.2698,-5.2698,-5.2698,-5.2698,-5.2698,-5.2698,-5.2698,-5.2698,-5.2698,-5.2698,-5.2698,-5.2606,-5.1251,-5.0697,-5.0543,-4.9158,-4.8604,-4.8604,-4.8604,-4.8604,-4.8604,0.0,0.0,0.0,0.0,0.0,0.0,0.0,0.0,0.0,0.0,0.0,0.0,0.0,0.0,0.0,0.0,0.0,0.0,0.0,0.0,0.0,-7.5962,-7.6015,-7.6015,-7.6015,-7.6015,-7.5606,-7.4768,-7.4745,-7.4281,-7.3438,-7.3135,-7.2475,-7.1496,-7.0513,-6.9633,-6.8862,-6.8017,-6.7687,-6.7687,-6.7687,0.0,0.0,0.0,0.0,0.0,0.0,0.0,0.0,-6.5632,-6.4861,-6.409,-6.3135,0.0,0.0,0.0,0.0,0.0,-6.016,-5.9383,-5.8736,-5.8596,-5.8384,-5.8135,-5.7991,-5.7918,-5.7881,-5.7881,-5.7881,-5.7881,-5.7881,-5.7881,-5.7881,-5.7881,-5.7881,-5.7881,-5.7881,-5.7881,-5.7845,-5.7735,-5.7067,-5.6536,-5.642,-5.4911,-5.3976,-5.3976,-5.3201,-5.2698,-5.2698,-5.2698,-5.2698,-5.2698,-5.2698,-5.2698,-5.2698,-5.2698,-5.2698,-5.2698,-5.2698,-5.2698,-5.2698,-5.2698,-5.2698,-5.2698,-5.2698,-5.2698,-5.2606,-5.1251,-5.0697,-5.0543,-4.9158,-4.8604,-4.8604,-4.8604,-4.8604,-4.8604,0.0,0.0,0.0,0.0,0.0,0.0,0.0,0.0,0.0,0.0,0.0,0.0,0.0,0.0,0.0,0.0,0.0,0.0,0.0,0.0,-7.567,-7.5638,-7.5638,-7.5718,-7.5976,-7.5772,-7.531,-7.4705,-7.4438,-7.3977,-7.3305,-7.2972,-7.2032,-7.066,-7.0257,-6.9412,-6.8238,-6.7834,-6.7687,-6.7687,0.0,0.0,0.0,0.0,0.0,0.0,0.0,0.0,0.0,0.0,-6.442,-6.3943,-6.3062,0.0,0.0,0.0,0.0,0.0,-5.9711,-5.9149,-5.8736,-5.8561,-5.8348,-5.8205,-5.8063,-5.7954,-5.7881,-5.7881,-5.7881,-5.7881,-5.7881,-5.7881,-5.7881,-5.7881,-5.7881,-5.7881,-5.7881,-5.7881,-5.7881,-5.7881,-5.7554,-5.7293,-5.7293,-5.5756,-5.4694,-5.4694,-5.3477,-5.2698,-5.2698,-5.2698,-5.2698,-5.2698,-5.2698,-5.2698,-5.2698,-5.2698,-5.2698,-5.2698,-5.2698,-5.2698,-5.2698,-5.2698,-5.2698,-5.2698,-5.2698,-5.2698,-5.2637,-5.1652,-5.1036,-5.0605,-4.9589,-4.8943,-4.8604,-4.8604,-4.8604,-4.8604,0.0,0.0,0.0,0.0,0.0,0.0,0.0,0.0,0.0,0.0,0.0,0.0,0.0,0.0,0.0,0.0,0.0,0.0,0.0,-7.6355,-7.5608,-7.5185,-7.5055,-7.5221,-7.5708,-7.5327,-7.4943,-7.4561,-7.4192,-7.3714,-7.3145,-7.2835,-7.1756,-7.011,-7.011,-6.9192,-6.7687,-6.7687,-6.7687,-6.7687,0.0,0.0,0.0,0.0,0.0,0.0,0.0,0.0,0.0,0.0,0.0,0.0,0.0,0.0,0.0,-6.1236,-6.0826,-6.0432,-5.9317,-5.8875,-5.8666,-5.8525,-5.8348,-5.8205,-5.8135,-5.7991,-5.7881,-5.7881,-5.7881,-5.7881,-5.7881,-5.7881,-5.7881,-5.7881,-5.7881,-5.7881,-5.7881,-5.7881,-5.7881,-5.7881,-5.7881,-5.7881,-5.7881,-5.6309,-5.5312,-5.5312,-5.3695,-5.2698,-5.2698,-5.2698,-5.2698,-5.2698,-5.2698,-5.2698,-5.2698,-5.2698,-5.2698,-5.2698,-5.2698,-5.2698,-5.2698,-5.2698,-5.2698,-5.2698,-5.2698,-5.2698,-5.2667,-5.199,-5.1313,-5.0636,-4.9959,-4.9251,-4.8604,-4.8604,-4.8604,-4.8604,0.0,0.0,0.0,0.0,0.0,0.0,0.0,0.0,0.0,0.0,0.0,0.0,0.0,0.0,0.0,0.0,0.0,0.0,0.0,-7.6035,-7.5177,-7.4783,-7.4331,-7.4309,-7.4786,-7.4766,-7.4502,-7.4079,-7.4033,-7.3665,-7.3009,-7.2779,-7.1756,-7.011,-7.011,-6.9192,-6.7687,-6.7687,-6.7687,-6.7687,-6.7687,0.0,0.0,0.0,0.0,0.0,0.0,0.0,0.0,0.0,0.0,0.0,0.0,0.0,-6.1842,-6.112,-6.0494,-5.9905,-5.9182,-5.8736,-5.8525,-5.849,-5.8348,-5.8135,-5.7954,-5.7918,-5.7881,-5.7881,-5.7881,-5.7881,-5.7881,-5.7881,-5.7881,-5.7881,-5.7881,-5.7881,-5.7881,-5.7881,-5.7881,-5.7881,-5.7881,-5.7881,-5.7881,-5.6309,-5.5312,-5.5312,-5.3695,-5.2698,-5.2698,-5.2698,-5.2698,-5.2698,-5.2698,-5.2698,-5.2698,-5.2698,-5.2698,-5.2698,-5.2698,-5.2698,-5.2698,-5.2698,-5.2698,-5.2698,-5.2698,-5.2698,-5.2667,-5.199,-5.1313,-5.0636,-4.9959,-4.9251,-4.8604,-4.8604,-4.8604,-4.8604,0.0,0.0,0.0,0.0,0.0,0.0,0.0,0.0,0.0,0.0,0.0,0.0,0.0,0.0,0.0,0.0,0.0,0.0,0.0,-7.6506,-7.5485,-7.5072,-7.4365,-7.3963,-7.3883,-7.4147,-7.4154,-7.4009,-7.3566,-7.3231,-7.2982,-7.2695,-7.1708,-7.011,-7.011,-6.9192,-6.7687,-6.7687,-6.7687,-6.765,-6.7136,-6.6769,0.0,0.0,0.0,0.0,0.0,0.0,0.0,0.0,-6.3062,-6.278,-6.278,-6.2386,-6.1787,-6.1091,-6.0463,-5.9844,-5.9081,-5.8701,-5.849,-5.8348,-5.8135,-5.7991,-5.7918,-5.7881,-5.7881,-5.7881,-5.7881,-5.7881,-5.7881,-5.7881,-5.7881,-5.7881,-5.7881,-5.7881,-5.7881,-5.7881,-5.7881,-5.7881,-5.7881,-5.7881,-5.7881,-5.6806,-5.5876,-5.5353,-5.419,-5.3258,-5.2698,-5.2698,-5.2698,-5.2698,-5.2698,-5.2698,-5.2698,-5.2698,-5.2698,-5.2698,-5.2698,-5.2698,-5.2698,-5.2698,-5.2698,-5.2698,-5.2698,-5.2698,-5.2698,-5.2452,-5.1929,-5.1221,-5.0112,-4.9251,-4.8604,-4.8604,-4.8604,-4.8604,0.0,0.0,0.0,0.0,0.0,0.0,0.0,0.0,0.0,0.0,0.0,0.0,0.0,0.0,0.0,0.0,0.0,0.0,-7.7904,-7.6609,-7.5628,-7.5108,-7.426,-7.3678,-7.3398,-7.3628,-7.3763,-7.3811,-7.3257,-7.2955,-7.2899,-7.261,-7.1651,-7.011,-7.011,-6.9192,-6.7687,-6.7687,-6.7687,-6.7614,-6.6806,-6.6366,0.0,0.0,0.0,0.0,0.0,0.0,0.0,0.0,-6.278,-6.278,-6.278,-6.2219,-6.15,-6.1033,-6.0313,-5.9483,-5.8944,-5.8596,-5.8384,-5.8207,-5.8027,-5.7881,-5.7881,-5.7881,-5.7881,-5.7881,-5.7881,-5.7881,-5.7881,-5.7881,-5.7881,-5.7881,-5.7881,-5.7881,-5.7881,-5.7881,-5.7881,-5.7881,-5.7881,-5.7881,-5.7881,-5.7143,-5.6381,-5.5756,-5.4902,-5.4147,-5.3565,-5.329,-5.3113,-5.3113,-5.2833,-5.2698,-5.2698,-5.2698,-5.2698,-5.2698,-5.2698,-5.2698,-5.2698,-5.2698,-5.2698,-5.2698,-5.2698,-5.2698,-5.2698,-5.2698,-5.2298,-5.1559,-5.0205,-4.9374,-4.8912,-4.8696,-4.8604,-4.8604,0.0,0.0,0.0,0.0,0.0,0.0,0.0,0.0,0.0,0.0,0.0,0.0,0.0,0.0,0.0,0.0,0.0,0.0,-7.6866,-7.6151,-7.5416,-7.4635,-7.3818,-7.3372,-7.3372,-7.3278,-7.3278,-7.3372,-7.3145,-7.2899,-7.2695,-7.2553,-7.1651,-7.011,-7.011,-6.9192,-6.7687,-6.7687,-6.7687,-6.7614,-6.6806,-6.5999,-6.5191,0.0,0.0,0.0,0.0,0.0,0.0,0.0,-6.278,-6.278,-6.278,-6.1915,-6.0879,-6.0879,-5.9902,-5.8805,-5.8805,-5.8525,-5.8171,-5.8171,-5.8027,-5.7881,-5.7881,-5.7881,-5.7881,-5.7881,-5.7881,-5.7881,-5.7881,-5.7881,-5.7881,-5.7881,-5.7881,-5.7881,-5.7881,-5.7881,-5.7881,-5.7881,-5.7881,-5.7881,-5.7881,-5.7143,-5.6614,-5.6614,-5.5796,-5.5312,-5.5312,-5.4485,-5.3976,-5.3976,-5.3157,-5.2698,-5.2698,-5.2698,-5.2698,-5.2698,-5.2698,-5.2698,-5.2698,-5.2698,-5.2698,-5.2698,-5.2698,-5.2698,-5.2698,-5.2698,-5.2298,-5.1559,-5.0236,-4.9682,-4.9589,-4.8881,-4.8635,-4.8604,0.0,0.0,0.0,0.0,0.0,0.0,0.0,0.0,0.0,0.0,0.0,0.0,0.0,0.0,0.0,0.0,0.0,0.0,-7.7509,-7.6272,-7.5412,-7.519,-7.3858,-7.3118,-7.3118,-7.3091,-7.3091,-7.3118,-7.289,-7.2751,-7.2695,-7.2553,-7.1651,-7.011,-7.011,-6.9192,-6.7687,-6.7687,-6.7357,-6.6769,-6.5999,-6.5191,-6.4347,0.0,0.0,0.0,0.0,0.0,0.0,0.0,0.0,0.0,-6.2308,-6.1584,-6.0826,-6.0406,-5.9646,-5.8909,-5.8666,-5.849,-5.8348,-5.8063,-5.7918,-5.7881,-5.7881,-5.7881,-5.7881,-5.7881,-5.7881,-5.7881,-5.7881,-5.7881,-5.7881,-5.7881,-5.7881,-5.7881,-5.7881,-5.7881,-5.7881,-5.7881,-5.7881,-5.7881,-5.7881,-5.7662,-5.7256,-5.6652,-5.6381,-5.5676,-5.4443,-5.4147,-5.3707,-5.3113,-5.2833,-5.2698,-5.2698,-5.2698,-5.2698,-5.2698,-5.2698,-5.2698,-5.2698,-5.2698,-5.2698,-5.2698,-5.2698,-5.2698,-5.2698,-5.2698,-5.2298,-5.1652,-5.1251,-5.0513,-4.9651,-4.9435,-4.9035,-4.8604,0.0,0.0,0.0,0.0,0.0,0.0,0.0,0.0,0.0,0.0,0.0,0.0,0.0,0.0,0.0,0.0,0.0,0.0,0.0,-7.6249,-7.542,-7.542,-7.3868,-7.2955,-7.2899,-7.2899,-7.2872,-7.2816,-7.2723,-7.2667,-7.261,-7.2524,-7.1651,-7.011,-7.011,-6.9192,-6.7687,-6.7687,-6.7247,-6.6439,-6.5632,-6.4824,-6.398,0.0,0.0,0.0,0.0,0.0,0.0,0.0,0.0,0.0,-6.2086,-6.1443,-6.0766,-6.0062,-5.9383,-5.8736,-5.8455,-5.8348,-5.8171,-5.7954,-5.7881,-5.7881,-5.7881,-5.7881,-5.7881,-5.7881,-5.7881,-5.7881,-5.7881,-5.7881,-5.7881,-5.7881,-5.7881,-5.7881,-5.7881,-5.7881,-5.7881,-5.7881,-5.7881,-5.7881,-5.7881,-5.7881,-5.7698,-5.7181,-5.7143,-5.6652,-5.5603,-5.5198,-5.4653,-5.375,-5.339,-5.3069,-5.2698,-5.2698,-5.2698,-5.2698,-5.2698,-5.2698,-5.2698,-5.2698,-5.2698,-5.2698,-5.2698,-5.2698,-5.2698,-5.2698,-5.2483,-5.2082,-5.1805,-5.1221,-5.0451,-5.0205,-4.9651,-4.9035,0.0,0.0,0.0,0.0,0.0,0.0,0.0,0.0,0.0,0.0,0.0,0.0,0.0,0.0,0.0,0.0,0.0,0.0,0.0,0.0,-7.5363,-7.5363,-7.3804,-7.2872,-7.2695,-7.2695,-7.261,-7.2496,-7.261,-7.261,-7.2496,-7.2422,-7.1578,-7.011,-7.0,-6.9119,-6.7687,-6.7687,-6.7173,-6.6329,-6.5595,-6.4787,-6.3906,-6.3099,0.0,0.0,0.0,0.0,0.0,0.0,0.0,0.0,-6.2005,-6.1379,-6.073,-5.9902,-5.9114,-5.849,-5.8312,-5.8063,-5.7918,-5.7881,-5.7881,-5.7881,-5.7881,-5.7881,-5.7881,-5.7881,-5.7881,-5.7881,-5.7881,-5.7881,-5.7881,-5.7881,-5.7881,-5.7881,-5.7881,-5.7881,-5.7881,-5.7881,-5.7881,-5.7881,-5.7881,-5.7881,-5.7881,-5.7881,-5.7881,-5.7881,-5.7772,-5.703,-5.6192,-5.5353,-5.4443,-5.362,-5.2833,-5.2743,-5.2698,-5.2698,-5.2698,-5.2698,-5.2698,-5.2698,-5.2698,-5.2698,-5.2698,-5.2698,-5.2698,-5.2698,-5.2698,-5.2637,-5.2021,-5.1744,-5.1621,-5.1005,-5.0359,-4.9774,0.0,0.0,0.0,0.0,0.0,0.0,0.0,0.0,0.0,0.0,0.0,0.0,0.0,0.0,0.0,0.0,0.0,0.0,0.0,0.0,-7.5007,-7.5007,-7.3464,-7.2582,-7.2524,-7.2524,-7.2524,-7.2496,-7.2524,-7.2524,-7.2496,-7.1872,-7.1064,-7.0073,-6.9449,-6.8605,-6.7687,-6.7687,-6.688,-6.5558,-6.5375,-6.442,-6.3062,-6.2879,-6.278,0.0,0.0,0.0,0.0,0.0,0.0,0.0,-6.1464,-6.1033,-6.0676,-5.9482,-5.8944,-5.8666,-5.849,-5.8312,-5.8099,-5.7918,-5.7881,-5.7881,-5.7881,-5.7881,-5.7881,-5.7881,-5.7881,-5.7881,-5.7881,-5.7881,-5.7881,-5.7881,-5.7881,-5.7881,-5.7881,-5.7881,-5.7881,-5.7881,-5.7881,-5.7881,-5.7881,-5.7881,-5.7881,-5.7881,-5.7881,-5.7591,-5.692,-5.6691,-5.6192,-5.5353,-5.4443,-5.3891,-5.3707,-5.3024,-5.2698,-5.2698,-5.2698,-5.2698,-5.2698,-5.2698,-5.2698,-5.2698,-5.2698,-5.2698,-5.2698,-5.2698,-5.2698,-5.2698,-5.2544,-5.2175,-5.1682,-5.1528,-5.1067,-5.0482,0.0,0.0,0.0,0.0,0.0,0.0,0.0,0.0,0.0,0.0,0.0,0.0,0.0,0.0,0.0,0.0,0.0,0.0,0.0,0.0,-7.4588,-7.378,-7.2973,-7.2496,-7.2496,-7.2496,-7.2496,-7.2496,-7.2496,-7.2496,-7.2496,-7.1688,-7.0881,-7.0073,-6.9265,-6.8458,-6.7687,-6.7687,-6.6769,-6.5301,-6.5301,-6.431,-6.278,-6.278,-6.278,-6.278,-6.278,0.0,0.0,0.0,0.0,0.0,0.0,0.0,-6.0646,-5.9283,-5.884,-5.877,-5.8455,-5.8277,-5.8135,-5.7954,-5.7881,-5.7881,-5.7881,-5.7881,-5.7881,-5.7881,-5.7881,-5.7881,-5.7881,-5.7881,-5.7881,-5.7881,-5.7881,-5.7881,-5.7881,-5.7881,-5.7881,-5.7881,-5.7881,-5.7881,-5.7881,-5.7881,-5.7881,-5.7881,-5.7881,-5.7698,-5.7256,-5.7218,-5.6806,-5.5955,-5.5108,-5.4443,-5.3976,-5.3157,-5.2698,-5.2698,-5.2698,-5.2698,-5.2698,-5.2698,-5.2698,-5.2698,-5.2698,-5.2698,-5.2698,-5.2698,-5.2698,-5.2698,-5.2698,-5.2513,-5.2175,-5.2175,-5.1744,-5.119,0.0,0.0,0.0,0.0,0.0,0.0,0.0,0.0,0.0,0.0,0.0,0.0,0.0,0.0,0.0,0.0,0.0,0.0,0.0,0.0,0.0,-7.2569,-7.2496,-7.2496,-7.2496,-7.2496,-7.2496,-7.2496,-7.2496,-7.2496,-7.2496,-7.1541,-7.0734,-7.0073,-6.9119,-6.8311,-6.7687,-6.7687,-6.6769,-6.5301,-6.5301,-6.431,-6.278,-6.278,-6.278,-6.278,-6.278,-6.278,-6.278,-6.2679,0.0,0.0,0.0,0.0,-6.0494,-5.9182,-5.8806,-5.8701,-5.8348,-5.8171,-5.8099,-5.7918,-5.7881,-5.7881,-5.7881,-5.7881,-5.7881,-5.7881,-5.7881,-5.7881,-5.7881,-5.7881,-5.7881,-5.7881,-5.7881,-5.7881,-5.7881,-5.7881,-5.7881,-5.7881,-5.7881,-5.7881,-5.7881,-5.7881,-5.7881,-5.7881,-5.7881,-5.7881,-5.7881,-5.7881,-5.7554,-5.6844,-5.5836,-5.4985,-5.4232,-5.3201,-5.2698,-5.2698,-5.2698,-5.2698,-5.2698,-5.2698,-5.2698,-5.2698,-5.2698,-5.2698,-5.2698,-5.2698,-5.2698,-5.2698,-5.2698,-5.2698,-5.2698,-5.2698,-5.2359,-5.1867,0.0,0.0,0.0,0.0,0.0,0.0,0.0,0.0,0.0,0.0,-7.7273,0.0,0.0,0.0,0.0,0.0,0.0,0.0,0.0,0.0,0.0,-7.2532,-7.2496,-7.2496,-7.2496,-7.2496,-7.2496,-7.2496,-7.2496,-7.2496,-7.2459,-7.0954,-7.0183,-7.0036,-6.8531,-6.7797,-6.7687,-6.7687,-6.6769,-6.5301,-6.5301,-6.431,-6.278,-6.278,-6.278,-6.278,-6.278,-6.278,-6.273,-6.2202,-6.2005,0.0,0.0,0.0,-5.9969,-5.9182,-5.8909,-5.8736,-5.8525,-5.8241,-5.7918,-5.7918,-5.7881,-5.7881,-5.7881,-5.7881,-5.7881,-5.7881,-5.7881,-5.7881,-5.7881,-5.7881,-5.7881,-5.7881,-5.7881,-5.7881,-5.7881,-5.7881,-5.7881,-5.7881,-5.7881,-5.7881,-5.7881,-5.7881,-5.7881,-5.7881,-5.7881,-5.7881,-5.7881,-5.7881,-5.7845,-5.7735,-5.6152,-5.5239,-5.5149,-5.3521,-5.2698,-5.2698,-5.2698,-5.2698,-5.2698,-5.2698,-5.2698,-5.2698,-5.2698,-5.2698,-5.2698,-5.2698,-5.2698,-5.2698,-5.2698,-5.2698,-5.2698,-5.2698,-5.2637,-5.2575,0.0,0.0,0.0,0.0,0.0,0.0,0.0,0.0,0.0,0.0,0.0,-7.7273,0.0,0.0,0.0,-7.7273,0.0,0.0,0.0,0.0,0.0,0.0,-7.2496,-7.2496,-7.2496,-7.2496,-7.2496,-7.2496,-7.2496,-7.2496,-7.2459,-7.0844,-7.011,-7.0036,-6.8421,-6.7687,-6.7687,-6.7687,-6.6769,-6.5301,-6.5301,-6.4093,-6.2334,-6.2679,-6.2603,-6.2334,-6.2679,-6.278,-6.2755,-6.249,-6.2412,-6.2255,-6.1329,0.0,0.0,0.0,-5.925,-5.8875,-5.8596,-5.8312,-5.8027,-5.7918,-5.7881,-5.7881,-5.7881,-5.7881,-5.7881,-5.7881,-5.7881,-5.7881,-5.7881,-5.7881,-5.7881,-5.7881,-5.7881,-5.7881,-5.7881,-5.7881,-5.7881,-5.7881,-5.7881,-5.7881,-5.7881,-5.7881,-5.7881,-5.7881,-5.7881,-5.7881,-5.7881,-5.7881,-5.7881,-5.7881,-5.6192,-5.5312,-5.5312,-5.3565,-5.2698,-5.2698,-5.2698,-5.2698,-5.2698,-5.2698,-5.2698,-5.2698,-5.2698,-5.2698,-5.2698,-5.2698,-5.2698,-5.2698,-5.2698,-5.2698,-5.2698,-5.2698,-5.2698,-5.2698,0.0,0.0,0.0,0.0,0.0,0.0,0.0,0.0,0.0,0.0,0.0,0.0,0.0,0.0,0.0,0.0,-7.646,0.0,0.0,0.0,0.0,0.0,0.0,-7.2496,-7.2496,-7.2496,-7.2496,-7.2496,-7.2496,-7.2496,-7.2459,-7.0844,-7.011,-7.0036,-6.8421,-6.7687,-6.7687,-6.7687,-6.6769,-6.5275,-6.5108,-6.3792,-6.1924,-6.2219,-6.2059,-6.1723,-6.236,-6.2567,-6.2567,-6.2567,-6.2464,-6.2219,-6.1584,-6.0944,0.0,0.0,0.0,-5.8875,-5.8631,-5.8384,-5.8135,-5.7991,-5.7918,-5.7881,-5.7881,-5.7881,-5.7881,-5.7881,-5.7881,-5.7881,-5.7881,-5.7881,-5.7881,-5.7881,-5.7881,-5.7881,-5.7881,-5.7881,-5.7881,-5.7881,-5.7881,-5.7881,-5.7881,-5.7881,-5.7881,-5.7881,-5.7881,-5.7881,-5.7881,-5.7881,-5.7881,-5.7881,-5.6192,-5.5312,-5.5312,-5.3565,-5.2698,-5.2698,-5.2698,-5.2698,-5.2698,-5.2698,-5.2698,-5.2698,-5.2698,-5.2698,-5.2698,-5.2698,-5.2698,-5.2698,-5.2698,-5.2698,-5.2698,-5.2698,-5.2698,-5.2698,0.0,0.0,0.0,0.0,0.0,0.0,0.0,0.0,0.0,0.0,0.0,0.0,-7.7273,-7.7273,-7.698,-7.624,-7.613,-7.5432,-7.3817,-7.2973,0.0,0.0,0.0,0.0,-7.2496,-7.2496,-7.2496,-7.2496,-7.2496,-7.2496,-7.2459,-7.0844,-7.011,-7.0036,-6.8421,-6.7687,-6.7687,-6.7687,-6.6769,-6.5249,-6.4603,-6.3365,-6.1842,-6.1236,-6.1003,-6.1062,-6.1696,-6.1951,-6.1951,-6.1951,-6.1528,-6.0915,-6.0282,-5.9648,-5.9115,0.0,0.0,0.0,-5.8805,-5.849,-5.8171,-5.8205,-5.8027,-5.7881,-5.7881,-5.7881,-5.7881,-5.7881,-5.7881,-5.7881,-5.7881,-5.7881,-5.7881,-5.7881,-5.7881,-5.7881,-5.7881,-5.7881,-5.7881,-5.7881,-5.7881,-5.7881,-5.7881,-5.7881,-5.7881,-5.7881,-5.7881,-5.7881,-5.7881,-5.7881,-5.7881,-5.7881,-5.6192,-5.5312,-5.5312,-5.3565,-5.2698,-5.2698,-5.2698,-5.2698,-5.2698,-5.2698,-5.2698,-5.2698,-5.2698,-5.2698,-5.2698,-5.2698,-5.2698,-5.2698,-5.2698,-5.2698,-5.2698,-5.2698,-5.2698,-5.2698,0.0,0.0,0.0,0.0,0.0,0.0,0.0,0.0,0.0,0.0,0.0,0.0,0.0,-7.6864,-7.6423,-7.613,-7.5175,-7.4111,-7.301,-7.2679,0.0,0.0,0.0,0.0,-7.1799,-7.2255,-7.2255,-7.1799,-7.2255,-7.2496,-7.2459,-7.0844,-6.9876,-6.942,-6.822,-6.7687,-6.7687,-6.7687,-6.6545,-6.463,-6.44,-6.2853,-6.0681,-6.0855,-6.0646,-6.0406,-6.0915,-6.1178,-6.1236,-6.1149,-6.1033,-6.0849,-6.0646,-6.0156,-5.9549,-5.9149,-5.8944,-5.8909,-5.8806,-5.8666,-5.8525,-5.8243,-5.8169,-5.8063,-5.7918,-5.7881,-5.7881,-5.7881,-5.7881,-5.7881,-5.7881,-5.7881,-5.7881,-5.7881,-5.7881,-5.7881,-5.7881,-5.7881,-5.7881,-5.7881,-5.7881,-5.7881,-5.7881,-5.7881,-5.7881,-5.7881,-5.7881,-5.7881,-5.7881,-5.7881,-5.7881,-5.7881,-5.6192,-5.4778,-5.3652,-5.298,-5.2698,-5.2698,-5.2698,-5.2698,-5.2698,-5.2698,-5.2698,-5.2698,-5.2698,-5.2698,-5.2698,-5.2698,-5.2698,-5.2698,-5.2698,-5.2698,-5.2698,-5.2698,-5.2698,-5.2698,0.0,0.0,0.0,0.0,0.0,0.0,0.0,0.0,0.0,-7.7273,0.0,0.0,0.0,0.0,-7.5782,-7.4982,-7.3672,-7.2595,-7.1799,-7.1763,-7.1763,0.0,0.0,0.0,-7.1035,-7.1516,-7.1516,-7.1035,-7.1516,-7.1763,-7.1732,-7.0162,-6.9159,-6.8682,-6.7513,-6.6996,-6.6996,-6.6996,-6.5822,-6.3971,-6.4016,-6.2408,-6.0036,-6.0501,-6.0244,-5.9746,-6.0219,-6.0432,-6.0524,-6.0585,-6.0524,-6.0397,-6.0494,-6.0125,-5.9582,-5.9149,-5.9012,-5.8978,-5.8909,-5.884,-5.8701,-5.8384,-5.8277,-5.8169,-5.7954,-5.7881,-5.7881,-5.7881,-5.7881,-5.7881,-5.7881,-5.7881,-5.7881,-5.7881,-5.7881,-5.7881,-5.7881,-5.7881,-5.7881,-5.7881,-5.7881,-5.7881,-5.7881,-5.7881,-5.7881,-5.7881,-5.7881,-5.7881,-5.7881,-5.7881,-5.7772,-5.748,-5.6074,-5.4611,-5.3157,-5.2833,-5.2698,-5.2698,-5.2698,-5.2698,-5.2698,-5.2698,-5.2698,-5.2698,-5.2698,-5.2698,-5.2698,-5.2698,-5.2698,-5.2698,-5.2698,-5.2698,-5.2698,-5.2698,-5.2698,-5.2698,0.0,0.0,0.0,0.0,0.0,0.0,0.0,0.0,-7.7273,-7.7273,0.0,0.0,0.0,0.0,0.0,-7.2722,-7.1825,-7.1067,-7.0334,-7.03,-7.03,-7.03,0.0,0.0,-7.0266,-7.03,-7.03,-7.0266,-7.03,-7.03,-7.0264,-6.873,-6.7983,-6.7912,-6.6307,-6.5558,-6.5526,-6.559,-6.4733,-6.332,-6.3425,-6.2073,-6.0013,-6.015,-5.9668,-5.9047,-5.9515,-5.9644,-5.9741,-6.0184,-5.9931,-5.9412,-5.9611,-5.9349,-5.9012,-5.9012,-5.9012,-5.9012,0.0,0.0,0.0,-5.8561,-5.8348,-5.8135,-5.7954,-5.7881,-5.7881,-5.7881,-5.7881,-5.7881,-5.7881,-5.7881,-5.7881,-5.7881,-5.7881,-5.7881,-5.7881,-5.7881,-5.7881,-5.7881,-5.7881,-5.7881,-5.7881,-5.7881,-5.7881,-5.7881,-5.7881,-5.7881,-5.7881,-5.7881,-5.748,-5.6575,-5.5756,-5.4902,-5.3976,-5.3113,-5.2698,-5.2698,-5.2698,-5.2698,-5.2698,-5.2698,-5.2698,-5.2698,-5.2698,-5.2698,-5.2698,-5.2698,-5.2698,-5.2698,-5.2698,-5.2698,-5.2698,-5.2698,-5.2698,-5.2698,0.0,0.0,0.0,0.0,0.0,0.0,-7.7273,-7.7273,-7.7273,0.0,0.0,0.0,-7.613,-7.4597,-7.2867,-7.1101,-7.0747,-7.0503,-7.03,-7.03,-7.03,-7.03,-7.03,-7.0059,-6.9528,-7.0024,-7.0024,-6.9492,-7.0024,-7.03,-7.0264,-6.873,-6.7749,-6.72,-6.5577,-6.4601,-6.4218,-6.5204,-6.4767,-6.339,-6.284,-6.1531,-5.9875,-5.9392,-5.8942,-5.8666,-5.8597,-5.8702,-5.8806,-5.8806,-5.8875,-5.9012,-5.9148,-5.908,-5.9012,-5.9012,-5.9012,-5.9012,-5.9012,0.0,0.0,0.0,0.0,0.0,-5.7954,-5.7881,-5.7881,-5.7881,-5.7881,-5.7881,-5.7881,-5.7881,-5.7881,-5.7881,-5.7881,-5.7881,-5.7881,-5.7881,-5.7881,-5.7881,-5.7881,-5.7881,-5.7881,-5.7881,-5.7881,-5.7881,-5.7881,-5.7881,-5.7881,-5.7881,-5.7185,-5.5716,-5.5434,-5.4569,-5.3069,-5.2833,-5.2698,-5.2698,-5.2698,-5.2698,-5.2698,-5.2698,-5.2698,-5.2698,-5.2698,-5.2698,-5.2698,-5.2698,-5.2698,-5.2698,-5.2698,-5.2698,-5.2698,-5.2698,-5.2698,-5.2698,0.0,0.0,0.0,0.0,0.0,-7.7273,-7.7273,-7.7273,-7.7163,0.0,0.0,0.0,-7.4738,-7.2834,-7.1139,-6.992,-6.9814,-6.9708,-6.9419,-6.9383,-6.9383,-6.9383,-6.9383,-6.9163,-6.8749,-6.9163,-6.9163,-6.8711,-6.9163,-6.9383,-6.9348,-6.7834,-6.6917,-6.6448,-6.488,-6.3967,-6.3639,-6.4428,-6.4111,-6.3067,-6.2788,-6.1778,-6.0316,-5.9763,-5.9349,-5.8899,-5.8379,-5.8277,-5.8348,-5.8135,-5.8348,-5.8701,-5.8771,-5.8875,-5.9012,-5.9012,-5.9012,-5.9012,-5.9012,-5.9012,-5.8909,-5.8596,0.0,0.0,-5.7991,-5.7881,-5.7881,-5.7881,-5.7881,-5.7881,-5.7881,-5.7881,-5.7881,-5.7881,-5.7881,-5.7881,-5.7881,-5.7881,-5.7881,-5.7881,-5.7881,-5.7881,-5.7881,-5.7881,-5.7881,-5.7881,-5.7881,-5.7881,-5.7881,-5.7881,-5.7293,-5.5876,-5.5515,-5.4653,-5.329,-5.2877,-5.2698,-5.2698,-5.2698,-5.2698,-5.2698,-5.2698,-5.2698,-5.2698,-5.2698,-5.2698,-5.2698,-5.2698,-5.2698,-5.2698,-5.2698,-5.2698,-5.2698,-5.2698,-5.2698,-5.2698,0.0,0.0,0.0,-7.7273,-7.7212,-7.7181,-7.7181,-7.7045,-7.6684,0.0,-7.5696,-7.4717,-7.2488,-7.1,-6.9884,-6.9161,-6.9087,-6.8787,-6.8123,-6.8083,-6.8083,-6.8083,-6.8083,-6.8083,-6.8083,-6.8083,-6.8083,-6.8083,-6.8083,-6.8049,-6.7945,-6.6531,-6.5842,-6.5669,-6.4255,-6.36,-6.36,-6.36,-6.322,-6.2632,-6.3033,-6.2338,-6.1067,-6.0677,-6.0125,-5.9407,-5.8513,-5.8169,-5.8135,-5.7991,-5.8171,-5.849,-5.849,-5.8702,-5.8944,-5.8978,-5.8978,-5.8978,-5.9012,-5.8978,-5.8875,-5.8596,-5.849,0.0,-5.7991,-5.7881,-5.7881,-5.7881,-5.7881,-5.7881,-5.7881,-5.7881,-5.7881,-5.7881,-5.7881,-5.7881,-5.7881,-5.7881,-5.7881,-5.7881,-5.7881,-5.7881,-5.7881,-5.7881,-5.7881,-5.7881,-5.7881,-5.7881,-5.7881,-5.7881,-5.7443,-5.6498,-5.5716,-5.4861,-5.3879,-5.3069,-5.2698,-5.2698,-5.2698,-5.2698,-5.2698,-5.2698,-5.2698,-5.2698,-5.2698,-5.2698,-5.2698,-5.2698,-5.2698,-5.2698,-5.2698,-5.2698,-5.2698,-5.2698,-5.2698,-5.2698,0.0,0.0,0.0,-7.7273,-7.6797,-7.6403,-7.6403,-7.5354,-7.4507,-7.4327,-7.3178,-7.1757,-7.0061,-6.9562,-6.9124,-6.8362,-6.8319,-6.828,-6.8083,-6.8083,-6.8083,-6.8083,-6.8083,-6.8083,-6.8083,-6.8083,-6.8083,-6.8083,-6.8083,-6.7807,-6.7187,-6.629,-6.5531,-6.491,-6.3979,-6.36,-6.36,-6.36,-6.3422,-6.3099,-6.2616,-6.2127,-6.1568,-6.0118,-5.9355,-5.9041,-5.8225,-5.7954,-5.7954,-5.8099,-5.8171,-5.8312,-5.8455,-5.8561,-5.8631,-5.8771,-5.884,-5.8875,-5.8978,-5.8944,-5.8771,-5.8561,-5.8384,0.0,-5.7954,-5.7881,-5.7881,-5.7881,-5.7881,-5.7881,-5.7881,-5.7881,-5.7881,-5.7881,-5.7881,-5.7881,-5.7881,-5.7881,-5.7881,-5.7881,-5.7881,-5.7881,-5.7881,-5.7881,-5.7881,-5.7881,-5.7881,-5.7881,-5.7881,-5.7881,-5.7185,-5.5595,-5.5393,-5.4527,-5.2935,-5.2788,-5.2698,-5.2698,-5.2698,-5.2698,-5.2698,-5.2698,-5.2698,-5.2698,-5.2698,-5.2698,-5.2698,-5.2698,-5.2698,-5.2698,-5.2698,-5.2698,-5.2698,-5.2698,-5.2698,-5.2698,0.0,-7.7273,-7.7181,0.0,0.0,-7.5923,-7.5148,-7.4403,-7.3619,-7.2798,-7.1304,-7.006,-6.9307,-6.8863,-6.8517,-6.8123,-6.8083,-6.8083,-6.8083,-6.8083,-6.8083,-6.8083,-6.8083,-6.8083,-6.8083,-6.8083,-6.8083,-6.8083,-6.8083,-6.7704,-6.698,-6.6221,-6.5424,-6.4518,-6.3873,-6.3563,-6.3452,-6.3563,-6.3489,-6.323,-6.2778,-6.2491,-6.2127,-6.0815,-5.9987,-5.9471,-5.8727,-5.822,-5.7918,-5.7991,-5.8099,-5.8241,-5.8348,-5.8419,-5.8525,-5.8736,-5.8805,-5.8806,-5.8944,-5.8944,-5.8875,-5.8701,-5.8561,0.0,0.0,-5.8171,-5.8171,-5.8063,-5.8027,-5.8027,-5.7918,-5.7881,-5.7881,-5.7881,-5.7881,-5.7881,-5.7881,-5.7881,-5.7881,-5.7881,-5.7881,-5.7881,-5.7881,-5.7881,-5.7881,-5.7881,-5.7881,-5.7881,-5.7881,-5.7881,-5.711,-5.5353,-5.5312,-5.4443,-5.2698,-5.2698,-5.2698,-5.2698,-5.2698,-5.2698,-5.2698,-5.2698,-5.2698,-5.2698,-5.2698,-5.2698,-5.2698,-5.2698,-5.2698,-5.2698,-5.2698,-5.2698,-5.2698,-5.2698,-5.2698,-5.2698,-7.6788,-7.6861,-7.6664,0.0,0.0,0.0,0.0,-7.333,-7.251,-7.1055,-6.9734,-6.8938,-6.8938,-6.8362,-6.7965,-6.7965,-6.7965,-6.7999,-6.8044,-6.8044,-6.8044,-6.8083,-6.8083,-6.8083,-6.8083,-6.8083,-6.8083,-6.8083,-6.7945,-6.7497,-6.6773,-6.6014,-6.5141,-6.4195,-6.3727,-6.3414,-6.3227,-6.3414,-6.3377,-6.3152,-6.3,-6.2847,-6.2586,-6.168,-6.0892,-6.0216,-5.9336,-5.8524,-5.7881,-5.7881,-5.7991,-5.8135,-5.8135,-5.8243,-5.8419,-5.8631,-5.8701,-5.8771,-5.8909,-5.8944,-5.8875,-5.8771,-5.8701,-5.8631,0.0,0.0,0.0,-5.8171,-5.8135,-5.8063,-5.7918,-5.7881,-5.7881,-5.7881,-5.7881,-5.7881,-5.7881,-5.7881,-5.7881,-5.7881,-5.7881,-5.7881,-5.7881,-5.7881,-5.7881,-5.7881,-5.7881,-5.7881,-5.7881,-5.7881,-5.711,-5.5353,-5.5312,-5.4443,-5.2698,-5.2698,-5.2698,-5.2698,-5.2698,-5.2698,-5.2698,-5.2698,-5.2698,-5.2698,-5.2698,-5.2698,-5.2698,-5.2698,-5.2698,-5.2698,-5.2698,-5.2698,-5.2698,-5.2698,-5.2698,-5.2698,-7.4977,-7.5263,-7.5227,0.0,0.0,0.0,0.0,0.0,-6.9505,-6.8605,-6.8157,-6.7965,-6.7965,-6.7719,-6.7557,-6.7557,-6.7557,-6.7638,-6.7839,-6.7839,-6.7919,-6.8083,-6.8083,-6.8083,-6.8083,-6.8083,-6.8083,-6.8083,-6.7428,-6.6738,-6.5979,-6.5221,-6.4315,-6.3439,-6.3336,-6.3227,-6.3038,-6.3076,-6.2962,-6.2765,-6.2731,-6.2693,-6.2586,-6.168,-6.1231,-6.096,-5.9539,-5.8524,-5.7881,-5.7881,-5.7918,-5.7918,-5.7918,-5.7954,-5.7991,-5.8207,-5.8384,-5.8561,-5.8771,-5.8701,-5.8561,-5.8525,-5.8419,-5.8241,-5.7991,0.0,-5.8205,-5.7954,0.0,-5.7918,-5.7881,0.0,0.0,-5.7881,-5.7881,-5.7881,-5.7881,-5.7881,-5.7881,-5.7881,-5.7881,-5.7881,-5.7881,-5.7881,-5.7881,-5.7881,-5.7881,-5.7881,-5.7881,-5.7881,-5.711,-5.5353,-5.5312,-5.4443,-5.2698,-5.2698,-5.2698,-5.2698,-5.2698,-5.2698,-5.2698,-5.2698,-5.2698,-5.2698,-5.2698,-5.2698,-5.2698,-5.2698,-5.2698,-5.2698,-5.2698,-5.2698,-5.2698,-5.2698,-5.2698,-5.2698,-7.3368,-7.3654,-7.3511,-7.3071,0.0,0.0,0.0,0.0,-6.8463,-6.8152,-6.8039,-6.7965,-6.7965,-6.7919,-6.7799,-6.7678,-6.7678,-6.7719,-6.7799,-6.7799,-6.7839,-6.7919,-6.8044,-6.8078,-6.7959,-6.8044,-6.7876,-6.7463,-6.7152,-6.6359,-6.5186,-6.4841,-6.414,-6.3114,-6.3227,-6.3114,-6.2847,-6.2962,-6.2885,-6.2727,-6.2727,-6.2615,-6.2464,-6.2081,-6.167,-6.1095,-5.9573,-5.8795,-5.8457,-5.8017,-5.7881,-5.7881,-5.7881,-5.7881,-5.7918,-5.8135,-5.8277,-5.8384,-5.8561,-5.8561,-5.849,-5.849,-5.8455,-5.8348,-5.8277,-5.8312,-5.8348,-5.8099,0.0,0.0,0.0,0.0,0.0,0.0,-5.7881,-5.7881,-5.7881,-5.7881,-5.7881,-5.7881,-5.7881,-5.7881,-5.7881,-5.7881,-5.7881,-5.7881,-5.7881,-5.7881,-5.7881,-5.7881,-5.711,-5.5353,-5.5312,-5.4443,-5.2698,-5.2698,-5.2698,-5.2698,-5.2698,-5.2698,-5.2698,-5.2698,-5.2698,-5.2698,-5.2698,-5.2698,-5.2698,-5.2698,-5.2698,-5.2698,-5.2698,-5.2698,-5.2698,-5.2698,-5.2698,-5.2698,-7.1223,-7.1796,-7.1895,-7.1361,-7.1105,0.0,-6.9169,-6.8463,-6.8083,-6.8083,-6.8044,-6.8004,-6.8004,-6.7919,-6.7799,-6.7638,-6.7557,-6.7557,-6.7638,-6.7678,-6.7719,-6.7719,-6.7925,-6.8039,-6.7799,-6.7792,-6.7532,-6.698,-6.6566,-6.5807,-6.4703,-6.4496,-6.3893,-6.3,-6.3152,-6.3,-6.2615,-6.277,-6.2731,-6.2649,-6.2649,-6.2537,-6.2381,-6.2381,-6.1941,-6.1163,-6.0047,-5.937,-5.893,-5.8389,-5.8051,-5.7881,-5.7881,-5.7881,-5.7918,-5.8063,-5.8135,-5.8241,-5.8384,-5.8419,-5.8419,-5.8419,-5.8419,-5.8419,-5.8348,-5.8384,-5.8384,-5.8135,-5.8099,0.0,0.0,0.0,-5.7881,-5.7881,0.0,-5.7881,-5.7881,-5.7881,-5.7881,-5.7881,-5.7881,-5.7881,-5.7881,-5.7881,-5.7881,-5.7881,-5.7881,-5.7881,-5.7881,-5.7698,-5.6844,-5.5353,-5.5067,-5.419,-5.2698,-5.2698,-5.2698,-5.2698,-5.2698,-5.2698,-5.2698,-5.2698,-5.2698,-5.2698,-5.2698,-5.2698,-5.2698,-5.2698,-5.2698,-5.2698,-5.2698,-5.2698,-5.2698,-5.2698,-5.2698,-5.2698,-6.8231,-6.944,-7.0476,-7.0435,-6.9854,-6.9089,-6.8256,-6.8118,-6.8083,-6.8083,-6.7959,-6.7799,-6.7799,-6.7469,-6.7222,-6.7222,-6.698,-6.6938,-6.718,-6.7428,-6.7475,-6.7475,-6.7919,-6.8039,-6.7799,-6.7276,-6.7014,-6.698,-6.5497,-6.4738,-6.4669,-6.3979,-6.3377,-6.3,-6.3,-6.2808,-6.242,-6.242,-6.242,-6.242,-6.242,-6.2381,-6.2381,-6.2381,-6.1941,-6.1298,-6.1231,-6.0283,-5.9032,-5.8998,-5.849,-5.7881,-5.7881,-5.7881,-5.7881,-5.7918,-5.8027,-5.8171,-5.8241,-5.8207,-5.8207,-5.8207,-5.8207,-5.8135,-5.7954,-5.8063,-5.8135,-5.7954,-5.7918,-5.7918,-5.7881,-5.7881,-5.7881,-5.7881,-5.7881,0.0,0.0,-5.7881,-5.7881,-5.7881,-5.7881,-5.7881,-5.7881,-5.7881,-5.7881,-5.7881,-5.7881,-5.7881,-5.7881,-5.7105,-5.6231,-5.5353,-5.4485,-5.362,-5.2729,-5.2698,-5.2698,-5.2698,-5.2698,-5.2698,-5.2698,-5.2698,-5.2698,-5.2698,-5.2698,-5.2698,-5.2698,-5.2698,-5.2698,-5.2698,-5.2698,-5.2698,-5.2698,-5.2698,-5.2698,-5.2698,-6.8083,-6.8532,-6.8877,-6.8877,-6.867,-6.8394,-6.8152,-6.8083,-6.8044,-6.7919,-6.7839,-6.7759,-6.7597,-6.751,-6.7346,-6.718,-6.7097,-6.7097,-6.718,-6.6787,-6.6719,-6.727,-6.6633,-6.6331,-6.6602,-6.6244,-6.5822,-6.5306,-6.4869,-6.4462,-6.3945,-6.3555,-6.3265,-6.3,-6.2847,-6.2654,-6.2381,-6.2381,-6.2381,-6.2381,-6.2381,-6.2381,-6.2381,-6.2381,-6.2245,-6.1941,-6.1467,-6.096,-6.0385,-5.9336,-5.8829,-5.8558,-5.8051,-5.7881,-5.7881,-5.7881,-5.7954,-5.7991,-5.7991,-5.7991,-5.7991,-5.7991,-5.7991,-5.7991,-5.7918,-5.7954,-5.7991,-5.7918,-5.7881,-5.7881,-5.7881,-5.7881,-5.7881,-5.7881,-5.7881,-5.7881,0.0,-5.7881,-5.7881,-5.7881,-5.7881,-5.7881,-5.7881,-5.7881,-5.7881,-5.7881,-5.7881,-5.7662,-5.7067,-5.6768,-5.5955,-5.4485,-5.4147,-5.3577,-5.2729,-5.2698,-5.2698,-5.2698,-5.2698,-5.2698,-5.2698,-5.2698,-5.2698,-5.2698,-5.2698,-5.2698,-5.2698,-5.2698,-5.2698,-5.2698,-5.2698,-5.2698,-5.2698,-5.2698,-5.2698,-5.2698,-6.8083,-6.8083,-6.8083,-6.8083,-6.8083,-6.8083,-6.8083,-6.8044,-6.7959,-6.7839,-6.7759,-6.7638,-6.7516,-6.7428,-6.7346,-6.718,-6.7097,-6.6954,-6.6648,-6.6527,-6.6391,-6.6275,-6.592,-6.5687,-6.5617,-6.526,-6.48,-6.4286,-6.4164,-6.3824,-6.3377,-6.3265,-6.3076,-6.2885,-6.2731,-6.2576,-6.2381,-6.2381,-6.2381,-6.2381,-6.2381,-6.2381,-6.2381,-6.2381,-6.2381,-6.2347,-6.1873,-6.1535,-6.1095,-5.9844,-5.9235,-5.8896,-5.8118,-5.7881,-5.7881,-5.7881,-5.7881,-5.7881,-5.7881,-5.7881,-5.7881,-5.7881,-5.7881,-5.7881,-5.7881,-5.7881,-5.7881,-5.7881,-5.7881,-5.7881,-5.7881,-5.7881,-5.7881,-5.7881,-5.7881,-5.7881,0.0,-5.7881,-5.7881,-5.7881,-5.7881,-5.7881,-5.7881,-5.7881,-5.7881,-5.7881,-5.7881,-5.7517,-5.6652,-5.6342,-5.5474,-5.4062,-5.3707,-5.3258,-5.2729,-5.2698,-5.2698,-5.2698,-5.2698,-5.2698,-5.2698,-5.2698,-5.2698,-5.2698,-5.2698,-5.2698,-5.2698,-5.2698,-5.2698,-5.2698,-5.2698,-5.2698,-5.2698,-5.2698,-5.2698,-5.2698,-6.8083,-6.8083,-6.8083,-6.8083,-6.8083,-6.8083,-6.8083,-6.7959,-6.7799,-6.7799,-6.7597,-6.751,-6.7469,-6.7304,-6.718,-6.718,-6.6972,-6.6508,-6.5797,-6.6581,-6.6343,-6.4715,-6.5663,-6.5784,-6.4869,-6.4318,-6.4025,-6.4025,-6.3341,-6.3,-6.3,-6.3,-6.2885,-6.2727,-6.2688,-6.2576,-6.2381,-6.2381,-6.2381,-6.2381,-6.2381,-6.2381,-6.2381,-6.2381,-6.2381,-6.2381,-6.2381,-6.1941,-6.1231,-6.0419,-5.9674,-5.893,-5.8186,-5.7915,-5.7881,-5.7881,-5.7881,-5.7881,-5.7881,-5.7881,-5.7881,-5.7881,-5.7881,-5.7881,-5.7881,-5.7881,-5.7881,-5.7881,-5.7881,-5.7881,-5.7881,-5.7881,-5.7881,-5.7881,-5.7881,-5.7881,-5.7881,-5.7881,-5.7881,-5.7881,-5.7881,-5.7881,-5.7881,-5.7881,-5.7881,-5.7881,-5.7881,-5.748,-5.6575,-5.5756,-5.4902,-5.3934,-5.3113,-5.2698,-5.2698,-5.2698,-5.2698,-5.2698,-5.2698,-5.2698,-5.2698,-5.2698,-5.2698,-5.2698,-5.2698,-5.2698,-5.2698,-5.2698,-5.2698,-5.2698,-5.2698,-5.2698,-5.2698,-5.2698,-5.2698,-5.2698,-6.8083,-6.8083,-6.8044,-6.7919,-6.7999,-6.8083,-6.8083,-6.7959,-6.7759,-6.7597,-6.7428,-6.7222,-6.698,-6.6938,-6.6896,-6.6896,-6.6854,-6.6745,-6.6542,-6.5703,-6.5338,-6.5392,-6.4159,-6.3589,-6.3848,-6.3333,-6.3076,-6.3076,-6.3026,-6.3,-6.3,0.0,0.0,-6.2693,-6.2537,-6.242,-6.2381,-6.2381,-6.2381,-6.2381,-6.2381,-6.2381,-6.2381,-6.2381,-6.2381,-6.2381,-6.2381,-6.2279,-6.2009,-6.1264,-6.0486,-5.9708,-5.8964,-5.8355,-5.7881,-5.7881,-5.7881,-5.7881,-5.7881,-5.7881,-5.7881,-5.7881,-5.7881,-5.7881,-5.7881,-5.7881,-5.7881,-5.7881,-5.7881,-5.7881,-5.7881,-5.7881,-5.7881,-5.7881,-5.7881,-5.7881,-5.7881,-5.7881,-5.7881,-5.7881,-5.7881,-5.7881,-5.7881,-5.7881,-5.7881,-5.7881,-5.7881,-5.7256,-5.5716,-5.5434,-5.4611,-5.3069,-5.2833,-5.2698,-5.2698,-5.2698,-5.2698,-5.2698,-5.2698,-5.2698,-5.2698,-5.2698,-5.2698,-5.2698,-5.2698,-5.2698,-5.2698,-5.2698,-5.2698,-5.2698,-5.2698,-5.2698,-5.2698,-5.2698,-5.2698,-5.2698,-6.7839,-6.7839,-6.7799,-6.7678,-6.7759,-6.7839,-6.7839,-6.7678,-6.751,-6.7387,-6.718,-6.6972,-6.6812,-6.6812,-6.6812,-6.6812,-6.6812,-6.6542,-6.5899,-6.5358,-6.4816,-6.4275,-6.3362,-6.2922,-6.3024,-6.2736,-6.2537,-6.2537,-6.2693,-6.2731,-6.2731,0.0,0.0,-6.2537,-6.242,-6.2381,-6.2381,-6.1951,-6.179,-6.1716,-6.135,-6.1185,0.0,-6.1185,-6.1185,-6.1185,-6.1185,-6.1676,-6.2279,-6.1535,-6.0994,-6.0419,-5.9336,-5.8727,-5.8321,-5.7983,-5.7881,-5.7881,-5.7881,-5.7881,-5.7881,-5.7881,-5.7881,-5.7881,-5.7881,-5.7881,-5.7881,-5.7881,-5.7881,-5.7881,-5.7881,-5.7881,-5.7881,-5.7881,-5.7881,-5.7881,-5.7881,-5.7881,-5.7881,-5.7881,-5.7881,-5.7881,-5.7881,-5.7881,-5.7881,-5.7881,-5.7881,-5.7147,-5.5393,-5.5312,-5.4485,-5.2743,-5.2698,-5.2698,-5.2698,-5.2698,-5.2698,-5.2698,-5.2698,-5.2698,-5.2698,-5.2698,-5.2698,-5.2698,-5.2698,-5.2698,-5.2698,-5.2698,-5.2698,-5.2698,-5.2698,-5.2698,-5.2698,-5.2698,-5.2698,-5.2698,-6.751,-6.751,-6.751,-6.7469,-6.7469,-6.7394,-6.7229,-6.7222,-6.718,-6.718,-6.6972,-6.6812,-6.6812,-6.6812,-6.6812,-6.6812,-6.6711,-6.6136,-6.4816,-6.5155,-6.4546,-6.2618,-6.3057,-6.3057,-6.2415,-6.2381,-6.2381,-6.2381,-6.2381,-6.2381,0.0,0.0,0.0,-6.2381,-6.2381,-6.2341,-6.2183,-6.135,-6.0945,-6.0736,-5.9935,-5.9587,-5.9587,-5.9587,-5.9587,-5.9587,-5.9587,-6.0736,-6.2122,-6.1481,-6.1211,-6.0873,-5.9569,-5.8991,-5.8714,-5.8082,-5.7881,-5.7881,-5.7881,-5.7881,-5.7881,-5.7881,-5.7881,-5.7881,-5.7881,-5.7881,-5.7881,-5.7881,-5.7881,-5.7881,-5.7881,-5.7881,-5.7881,-5.7881,-5.7881,-5.7881,-5.7881,-5.7881,-5.7881,-5.7881,-5.7881,0.0,-5.7881,-5.7881,-5.7881,-5.7881,-5.7881,-5.7147,-5.5393,-5.5312,-5.4485,-5.2743,-5.2698,-5.2698,-5.2698,-5.2698,-5.2698,-5.2698,-5.2698,-5.2698,-5.2698,-5.2698,-5.2698,-5.2698,-5.2698,-5.2698,-5.2698,-5.2698,-5.2698,-5.2698,-5.2698,-5.2698,-5.2698,-5.2698,-5.2698,-5.2698,-6.751,-6.751,-6.7469,-6.7263,-6.7263,-6.6896,-6.5855,-6.6567,-6.718,-6.718,-6.6972,-6.6812,-6.6812,-6.6812,-6.6812,-6.6812,-6.6237,-6.5764,-6.5493,-6.4478,-6.3734,-6.3328,-6.2854,-6.2516,-6.2381,-6.2381,-6.2381,-6.2381,-6.2381,-6.2381,-6.2381,0.0,-6.2381,-6.2381,-6.2381,-6.1951,-6.1235,-6.1069,-6.0567,-5.9805,-5.9674,-5.9587,-5.9587,-5.9587,-5.9587,-5.9587,-5.9587,-6.0312,-6.1235,-6.1102,-6.0628,-6.0118,-5.9953,-5.8945,-5.7847,-5.7901,-5.7881,-5.7881,-5.7881,-5.7881,-5.7881,-5.7881,-5.7881,-5.7881,-5.7881,-5.7881,-5.7881,-5.7881,-5.7881,-5.7881,-5.7881,-5.7881,-5.7881,-5.7881,-5.7881,-5.7881,-5.7881,-5.7881,-5.7881,-5.7881,-5.7881,-5.7881,-5.7881,-5.7881,-5.7881,-5.7881,-5.7881,-5.7147,-5.5393,-5.5312,-5.4485,-5.2743,-5.2698,-5.2698,-5.2698,-5.2698,-5.2698,-5.2698,-5.2698,-5.2698,-5.2698,-5.2698,-5.2698,-5.2698,-5.2698,-5.2698,-5.2698,-5.2698,-5.2698,-5.2698,-5.2698,-5.2698,-5.2698,-5.2698,-5.2698,-5.2698,-6.7146,-6.7146,-6.6938,-6.632,-6.6192,-6.5811,-6.4675,-6.5069,-6.5426,-6.5426,-6.5337,-6.5248,-6.5248,-6.5248,-6.5293,-6.544,-6.5115,-6.4825,-6.4573,-6.3903,-6.3328,-6.2956,-6.2584,-6.2183,-6.1676,-6.1676,-6.1676,-6.1676,-6.1676,-6.1911,-6.2381,-6.2381,-6.2381,-6.2381,-6.1911,-6.1432,-6.0945,-5.9935,-5.9311,-5.8818,-5.8318,-5.8133,-5.8133,-5.8133,-5.8133,-5.8133,-5.8133,-5.8773,-5.9587,-6.0108,-6.004,-5.9699,-5.9325,-5.8437,-5.7429,-5.7146,-5.6801,-5.6542,-5.6542,-5.6882,-5.7218,-5.7218,-5.7554,-5.7881,-5.7881,-5.7881,-5.7881,-5.7881,-5.7881,-5.7881,-5.7881,-5.7881,-5.7881,-5.7881,-5.7881,-5.7881,-5.7881,-5.7881,-5.7881,-5.7881,-5.7881,-5.7881,-5.7881,-5.7881,-5.7881,-5.7881,-5.748,-5.6652,-5.5393,-5.4902,-5.4051,-5.2743,-5.2698,-5.2698,-5.2698,-5.2698,-5.2698,-5.2698,-5.2698,-5.2698,-5.2698,-5.2698,-5.2698,-5.2698,-5.2698,-5.2698,-5.2698,-5.2698,-5.2698,-5.2698,-5.2698,-5.2698,-5.2698,-5.2698,-5.2698,-5.2698,-6.6525,-6.6482,-6.6148,-6.5159,-6.4979,-6.4629,-6.3656,-6.3466,-6.3561,-6.3797,-6.3797,-6.3797,-6.3797,-6.3797,-6.3831,-6.3902,-6.3793,-6.3471,-6.2922,-6.2966,-6.271,-6.2144,-6.207,-6.179,-6.1028,-6.082,-6.0694,-6.0694,-6.0903,-6.1391,-6.211,-6.2302,-6.2302,-6.207,-6.135,-6.0778,-6.0312,-5.8818,-5.8072,-5.784,-5.7067,-5.681,-5.681,-5.681,-5.681,-5.681,-5.681,-5.7258,-5.8026,-5.8773,-5.9145,-5.9194,-5.8594,-5.7797,-5.7001,-5.645,-5.5822,-5.5312,-5.5312,-5.5796,-5.6309,-5.6309,-5.6844,-5.7368,-5.7368,-5.7368,-5.7406,-5.7625,-5.7772,-5.7845,-5.7662,-5.7625,-5.7625,-5.7625,-5.748,-5.7406,-5.7591,-5.7625,-5.7554,-5.7368,-5.7665,-5.7772,-5.7406,-5.7698,-5.7808,-5.7662,-5.6958,-5.6192,-5.5353,-5.4485,-5.3577,-5.2698,-5.2698,-5.2698,-5.2698,-5.2698,-5.2698,-5.2698,-5.2698,-5.2698,-5.2698,-5.2698,-5.2698,-5.2698,-5.2698,-5.2698,-5.2698,-5.2698,-5.2698,-5.2698,-5.2698,-5.2698,-5.2698,-5.2698,-5.2698,-5.2698,-6.5636,-6.5426,-6.5114,-6.4124,-6.3937,-6.3609,-6.2583,-6.2467,-6.2778,-6.3703,-6.3797,-6.3797,-6.3797,-6.3797,-6.3552,-6.2964,-6.2315,-6.1646,-6.0999,-6.1155,-6.1177,-6.1111,-6.1111,-6.1069,-6.0986,-6.0184,-5.9718,-5.9718,-6.0609,-6.1028,-6.1152,-6.1991,-6.1951,-6.1111,-6.1028,-6.0022,-5.8455,-5.8303,-5.77,-5.6954,-5.6858,-5.681,-5.681,-5.681,-5.681,-5.681,-5.681,-5.6858,-5.6954,-5.7019,-5.7606,-5.8328,-5.8408,-5.7364,-5.6169,-5.6282,-5.5822,-5.5312,-5.5312,-5.5353,-5.5434,-5.5434,-5.5474,-5.5523,-5.5523,-5.5523,-5.5756,-5.6575,-5.7331,-5.7662,-5.6844,-5.6729,-5.6729,-5.6729,-5.6074,-5.5836,-5.6614,-5.6729,-5.6459,-5.5636,-5.6958,-5.7293,-5.5716,-5.6958,-5.7554,-5.6768,-5.6652,-5.6192,-5.5353,-5.4485,-5.3577,-5.2698,-5.2698,-5.2698,-5.2698,-5.2698,-5.2698,-5.2698,-5.2698,-5.2698,-5.2698,-5.2698,-5.2698,-5.2698,-5.2698,-5.2698,-5.2698,-5.2698,-5.2698,-5.2698,-5.2698,-5.2698,-5.2698,-5.2698,-5.2698,-5.2698,-6.4492,-6.4401,-6.4077,-6.3068,-6.2923,-6.2534,-6.1551,-6.143,-6.1551,-6.1972,-6.2022,-6.2022,-6.2022,-6.1644,-6.1354,-6.128,-6.0625,-6.0152,-6.0073,-6.0098,-6.0151,-6.0151,-6.0151,-5.9925,-5.9323,-5.8953,-5.8773,-5.8773,-5.9674,-6.044,-6.0986,-6.1391,-6.1069,-6.0141,-5.9543,-5.8908,-5.8165,-5.759,-5.7115,-5.681,-5.681,-5.681,-5.681,-5.681,-5.681,-5.681,-5.681,-5.681,-5.681,-5.681,-5.7019,-5.7386,-5.7448,-5.6667,-5.575,-5.5426,-5.487,-5.4241,-5.3833,-5.4105,-5.4527,-5.4527,-5.4943,-5.5312,-5.5312,-5.5312,-5.5393,-5.5756,-5.6113,-5.6231,-5.5876,-5.5836,-5.5836,-5.5836,-5.5555,-5.5434,-5.5756,-5.5836,-5.5676,-5.5353,-5.5915,-5.6074,-5.5393,-5.5955,-5.6192,-5.5836,-5.627,-5.6192,-5.5353,-5.4485,-5.3577,-5.2698,-5.2698,-5.2698,-5.2698,-5.2698,-5.2698,-5.2698,-5.2698,-5.2698,-5.2698,-5.2698,-5.2698,-5.2698,-5.2698,-5.2698,-5.2698,-5.2698,-5.2698,-5.2698,-5.2698,-5.2698,-5.2698,-5.2698,-5.2698,-5.2698,-6.3419,-6.3371,-6.3036,-6.2022,-6.1853,-6.1602,-6.0897,-6.0794,-6.0794,-6.0794,-6.0794,-6.0732,-6.0517,-6.0086,-5.9711,-5.9516,-5.9063,-5.8798,-5.876,-5.9043,-5.9222,-5.9222,-5.9222,-5.8863,-5.8211,-5.7933,-5.7793,-5.7793,-5.8728,-5.9499,-6.0151,-6.0482,-6.0065,-5.9177,-5.8532,-5.8026,-5.7746,-5.7067,-5.681,-5.681,-5.681,-5.681,-5.681,-5.681,-5.681,-5.681,-5.681,-5.681,-5.681,-5.681,-5.681,-5.681,-5.681,-5.6269,-5.5561,-5.4914,-5.4222,-5.356,-5.2883,-5.3157,-5.362,-5.362,-5.4094,-5.4527,-5.4527,-5.4527,-5.4611,-5.4861,-5.5149,-5.5198,-5.4952,-5.4943,-5.4943,-5.4943,-5.4694,-5.4611,-5.4902,-5.4943,-5.4819,-5.4569,-5.4985,-5.5108,-5.4569,-5.5026,-5.519,-5.4943,-5.5716,-5.5836,-5.4952,-5.4062,-5.3346,-5.2698,-5.2698,-5.2698,-5.2698,-5.2698,-5.2698,-5.2698,-5.2698,-5.2698,-5.2698,-5.2698,-5.2698,-5.2698,-5.2698,-5.2698,-5.2698,-5.2698,-5.2698,-5.2698,-5.2698,-5.2698,-5.2698,-5.2698,-5.2698,-5.2698,-6.2485,-6.2319,-6.1972,-6.1,-6.0794,-6.0794,-6.0794,-6.0794,-6.0794,-6.0794,-6.0794,-6.0547,-5.987,-5.9778,-5.9255,-5.7949,-5.7826,-5.7518,-5.684,-5.77,-5.8211,-5.8211,-5.8211,-5.8211,-5.8211,-5.7306,-5.681,-5.681,-5.7746,-5.8211,-5.8257,-5.9177,-5.9133,-5.8211,-5.8211,-5.7653,-5.681,-5.681,-5.681,-5.681,-5.681,-5.681,-5.681,-5.681,-5.681,-5.681,-5.681,-5.681,-5.681,-5.681,-5.681,-5.681,-5.681,-5.6269,-5.5561,-5.4914,-5.4222,-5.356,-5.2883,-5.2729,-5.2729,-5.2729,-5.2698,-5.2743,-5.2743,-5.2743,-5.3011,-5.3836,-5.4694,-5.5067,-5.419,-5.4019,-5.4019,-5.4019,-5.3302,-5.3024,-5.3891,-5.4019,-5.3707,-5.2833,-5.4232,-5.4611,-5.2922,-5.4306,-5.4911,-5.4062,-5.4819,-5.4943,-5.4062,-5.3201,-5.2698,-5.2698,-5.2698,-5.2698,-5.2698,-5.2698,-5.2698,-5.2698,-5.2698,-5.2698,-5.2698,-5.2698,-5.2698,-5.2698,-5.2698,-5.2698,-5.2698,-5.2698,-5.2698,-5.2698,-5.2698,-5.2698,-5.2698,-5.2698,-5.2698,-5.2698,-6.1328,-6.1277,-6.1175,-6.0845,-6.0794,-6.0794,-6.0794,-6.0794,-6.0794,-6.0794,-6.0794,-6.0363,-5.9224,-5.9101,-5.8731,-5.7888,-5.7395,-5.7056,-5.681,-5.7067,-5.7258,-5.7258,-5.7258,-5.7258,-5.7258,-5.6954,-5.681,-5.681,-5.7746,-5.8211,-5.8211,-5.8501,-5.8165,-5.7258,-5.7258,-5.7067,-5.681,-5.681,-5.681,-5.681,-5.681,-5.681,-5.681,-5.681,-5.681,-5.681,-5.681,-5.681,-5.681,-5.681,-5.681,-5.681,-5.681,-5.6656,-5.6207,-5.5068,-5.4529,-5.4129,-5.3037,-5.2698,-5.2698,-5.2698,-5.2698,-5.2698,-5.2698,-5.2698,-5.2788,-5.3069,-5.3302,-5.3434,-5.3157,-5.3113,-5.3113,-5.3113,-5.2877,-5.2788,-5.3069,-5.3113,-5.3024,-5.2743,-5.3201,-5.3334,-5.2743,-5.3201,-5.339,-5.3157,-5.3346,-5.3695,-5.3976,-5.375,-5.3302,-5.2698,-5.2698,-5.2698,-5.2698,-5.2698,-5.2698,-5.2698,-5.2698,-5.2698,-5.2698,-5.2698,-5.2698,-5.2698,-5.2698,-5.2698,-5.2698,-5.2698,-5.2698,-5.2698,-5.2698,-5.2698,-5.2698,-5.2698,-5.2698,-5.2698,-6.0794,-6.0794,-6.0794,-6.0794,-6.0794,-6.0794,-6.0794,-6.0794,-6.0794,-6.0794,-6.0578,-5.9993,-5.8916,-5.8547,-5.8165,-5.7487,-5.7056,-5.681,-5.681,-5.681,-5.681,-5.681,-5.681,-5.681,-5.681,-5.681,-5.681,-5.681,-5.7401,-5.7653,-5.7653,-5.7653,-5.7353,-5.681,-5.681,-5.681,-5.681,-5.681,-5.681,-5.681,-5.681,-5.681,-5.681,-5.681,-5.681,-5.681,-5.681,-5.681,-5.681,-5.681,-5.681,-5.681,-5.681,-5.681,-5.6532,-5.513,-5.4683,-5.4406,-5.3067,-5.2698,-5.2698,-5.2698,-5.2698,-5.2698,-5.2698,-5.2698,-5.2698,-5.2698,-5.2698,-5.2698,-5.2698,-5.2698,-5.2698,-5.2698,-5.2698,-5.2698,-5.2698,-5.2698,-5.2698,-5.2698,-5.2698,-5.2698,-5.2698,-5.2698,-5.2698,-5.2698,-5.2698,-5.2966,-5.3477,-5.3521,-5.3258,-5.2698,-5.2698,-5.2698,-5.2698,-5.2698,-5.2698,-5.2698,-5.2698,-5.2698,-5.2698,-5.2698,-5.2698,-5.2698,-5.2698,-5.2698,-5.2698,-5.2698,-5.2698,-5.2698,-5.2698,-5.2698,-5.2698,-5.2698,-5.2698,-5.2698,-6.0794,-6.0794,-6.0794,-6.0794,-6.0794,-6.0794,-6.0794,-6.0794,-6.0794,-6.0794,-6.0209,-5.9532,-5.8854,-5.8177,-5.7549,-5.6871,-5.681,-5.681,-5.681,-5.681,-5.681,-5.681,-5.681,-5.681,-5.681,-5.681,-5.681,-5.681,-5.681,-5.681,-5.681,-5.681,-5.681,-5.681,-5.681,-5.681,-5.681,-5.681,-5.681,-5.681,-5.681,-5.681,-5.681,-5.681,-5.681,-5.681,-5.681,-5.681,-5.681,-5.681,-5.681,-5.681,-5.681,-5.681,-5.6563,-5.5191,-5.4714,-5.4406,-5.3129,-5.276,-5.2698,-5.2698,-5.2698,-5.2698,-5.2698,-5.2698,-5.2698,-5.2698,-5.2698,-5.2698,-5.2698,-5.2698,-5.2698,-5.2698,-5.2698,-5.2698,-5.2698,-5.2698,-5.2698,-5.2698,-5.2698,-5.2698,-5.2698,-5.2698,-5.2698,-5.2698,-5.2698,-5.2698,-5.2698,-5.2698,-5.2698,-5.2698,-5.2698,-5.2698,-5.2698,-5.2698,-5.2698,-5.2698,-5.2698,-5.2698,-5.2698,-5.2698,-5.2698,-5.2698,-5.2698,-5.2698,-5.2698,-5.2698,-5.2698,-5.2698,-5.2698,-5.2698,-5.2698,-5.2698,-5.2698,-5.2698,-6.0794,-6.0794,-6.0794,-6.0794,-6.0794,-6.0794,-6.0794,-6.0794,-6.0794,-6.0794,-6.0209,-5.9532,-5.8854,-5.8177,-5.7549,-5.6871,-5.681,-5.681,-5.681,-5.681,-5.681,-5.681,-5.681,-5.681,-5.681,-5.681,-5.681,-5.681,-5.681,-5.681,-5.681,-5.681,-5.681,-5.681,-5.681,-5.681,-5.681,-5.681,-5.681,-5.681,-5.681,-5.681,-5.681,-5.681,-5.681,-5.681,-5.681,-5.681,-5.681,-5.681,-5.681,-5.681,-5.681,-5.681,-5.6625,-5.5715,-5.513,-5.4498,-5.3714,-5.3098,-5.2698,-5.2698,-5.2698,-5.2698,-5.2698,-5.2698,-5.2698,-5.2698,-5.2698,-5.2698,-5.2698,-5.2698,-5.2698,-5.2698,-5.2698,-5.2698,-5.2698,-5.2698,-5.2698,-5.2698,-5.2698,-5.2698,-5.2698,-5.2698,-5.2698,-5.2698,-5.2698,-5.2698,-5.2698,-5.2698,-5.2698,-5.2698,-5.2698,-5.2698,-5.2698,-5.2698,-5.2698,-5.2698,-5.2698,-5.2698,-5.2698,-5.2698,-5.2698,-5.2698,-5.2698,-5.2698,-5.2698,-5.2698,-5.2698,-5.2698,-5.2698,-5.2698,-5.2698,-5.2698,-5.2698,-5.2698,-6.0794,-6.0794,-6.0794,-6.0794,-6.0794,-6.0794,-6.0794,-6.0794,-6.0794,-6.0794,-5.9932,-5.9193,-5.8824,-5.7949,-5.721,-5.684,-5.681,-5.681,-5.681,-5.681,-5.681,-5.681,-5.681,-5.681,-5.681,-5.681,-5.681,-5.681,-5.681,-5.681,-5.681,-5.681,-5.681,-5.681,-5.681,-5.681,-5.681,-5.681,-5.681,-5.681,-5.681,-5.681,-5.681,-5.681,-5.681,-5.681,-5.681,-5.681,-5.681,-5.681,-5.681,-5.681,-5.681,-5.681,-5.6717,-5.6347,-5.5715,-5.5037,-5.436,-5.3683,-5.3098,-5.279,-5.2698,-5.2698,-5.2698,-5.2698,-5.2698,-5.2698,-5.2698,-5.2698,-5.2698,-5.2698,-5.2698,-5.2698,-5.2698,-5.2698,-5.2698,-5.2698,-5.2698,-5.2698,-5.2698,-5.2698,-5.2698,-5.2698,-5.2698,-5.2698,-5.2698,-5.2698,-5.2698,-5.2698,-5.2698,-5.2698,-5.2698,-5.2698,-5.2698,-5.2698,-5.2698,-5.2698,-5.2698,-5.2698,-5.2698,-5.2698,-5.2698,-5.2698,-5.2698,-5.2698,-5.2698,-5.2698,-5.2698,-5.2698,-5.2698,-5.2698,-5.2698,-5.2698,-5.2698,-5.2698,-6.0794,-6.0794,-6.0794,-6.0794,-6.0794,-6.0794,-6.0794,-6.0794,-6.0794,-6.0794,-5.9624,-5.8793,-5.8793,-5.7611,-5.681,-5.681,-5.681,-5.681,-5.681,-5.681,-5.681,-5.681,-5.681,-5.681,-5.681,-5.681,-5.681,-5.681,-5.681,-5.681,-5.681,-5.681,-5.681,-5.681,-5.681,-5.681,-5.681,-5.681,-5.681,-5.681,-5.681,-5.681,-5.681,-5.681,-5.681,-5.681,-5.681,-5.681,-5.681,-5.681,-5.681,-5.681,-5.681,-5.681,-5.681,-5.681,-5.6378,-5.5715,-5.5068,-5.4345,-5.3714,-5.3037,-5.2852,-5.2821,-5.2729,-5.2698,-5.2698,-5.2698,-5.2698,-5.2698,-5.2698,-5.2698,-5.2698,-5.2698,-5.2698,-5.2698,-5.2698,-5.2698,-5.2698,-5.2698,-5.2698,-5.2698,-5.2698,-5.2698,-5.2698,-5.2698,-5.2698,-5.2698,-5.2698,-5.2698,-5.2698,-5.2698,-5.2698,-5.2698,-5.2698,-5.2698,-5.2698,-5.2698,-5.2698,-5.2698,-5.2698,-5.2698,-5.2698,-5.2698,-5.2698,-5.2698,-5.2698,-5.2698,-5.2698,-5.2698,-5.2698,-5.2698,-5.2698,-5.2698,-5.2698,-5.2698,-6.0794,-6.0794,-6.0794,-6.0794,-6.0794,-6.0794,-6.0794,-6.0794,-6.0794,-6.0794,-5.9624,-5.8793,-5.8793,-5.7611,-5.681,-5.681,-5.681,-5.681,-5.681,-5.681,-5.681,-5.681,-5.681,-5.681,-5.681,-5.681,-5.681,-5.681,-5.681,-5.681,-5.681,-5.681,-5.681,-5.681,-5.681,-5.681,-5.681,-5.681,-5.681,-5.681,-5.681,-5.681,-5.681,-5.681,-5.681,-5.681,-5.681,-5.681,-5.681,-5.681,-5.681,-5.681,-5.681,-5.681,-5.681,-5.681,-5.6717,-5.6502,-5.5745,-5.5068,-5.4375,-5.3745,-5.3514,-5.3406,-5.2852,-5.2698,-5.2698,-5.2698,-5.2698,-5.2698,-5.2698,-5.2698,-5.2698,-5.2698,-5.2698,-5.2698,-5.2698,-5.2698,-5.2698,-5.2698,-5.2698,-5.2698,-5.2698,-5.2698,-5.2698,-5.2698,-5.2698,-5.2698,-5.2698,-5.2698,-5.2698,-5.2698,-5.2698,-5.2698,-5.2698,-5.2698,-5.2698,-5.2698,-5.2698,-5.2698,-5.2698,-5.2698,-5.2698,-5.2698,-5.2698,-5.2698,-5.2698,-5.2698,-5.2698,-5.2698,-5.2698,-5.2698,-5.2698,-5.2698,-5.2698,-5.2698,-6.0794,-6.0794,-6.0794,-6.0794,-6.0794,-6.0794,-6.0794,-6.0794,-6.0794,-6.0794,-5.9624,-5.8793,-5.8793,-5.7611,-5.681,-5.681,-5.681,-5.681,-5.681,-5.681,-5.681,-5.681,-5.681,-5.681,-5.681,-5.681,-5.681,-5.681,-5.681,-5.681,-5.681,-5.681,-5.681,-5.681,-5.681,-5.681,-5.681,-5.681,-5.681,-5.681,-5.681,-5.681,-5.681,-5.681,-5.681,-5.681,-5.681,-5.681,-5.681,-5.681,-5.681,-5.681,-5.681,-5.681,-5.681,-5.681,-5.681,-5.6656,-5.5899,-5.5468,-5.5099,-5.4375,-5.4222,-5.4037,-5.3406,-5.3252,-5.316,-5.279,-5.2698,-5.2698,-5.2698,-5.2698,-5.2698,-5.2698,-5.2698,-5.2698,-5.2698,-5.2698,-5.2698,-5.2698,-5.2698,-5.2698,-5.2698,-5.2698,-5.2698,-5.2698,-5.2698,-5.2698,-5.2698,-5.2698,-5.2698,-5.2698,-5.2698,-5.2698,-5.2698,-5.2698,-5.2698,-5.2698,-5.2698,-5.2698,-5.2698,-5.2698,-5.2698,-5.2698,-5.2698,-5.2698,-5.2698,-5.2698,-5.2698,-5.2698,-5.2698,-5.2698,-5.2698,-5.2698,-5.2698,-5.2698,-6.0794,-6.0794,-6.0794,-6.0794,-6.0794,-6.0794,-6.0794,-6.0794,-6.0794,-6.0794,-5.9747,-5.8947,-5.8793,-5.7765,-5.6994,-5.681,-5.681,-5.681,-5.681,-5.681,-5.681,-5.681,-5.681,-5.681,-5.681,-5.681,-5.681,-5.681,-5.681,-5.681,-5.681,-5.681,-5.681,-5.681,-5.681,-5.681,-5.681,-5.681,-5.681,-5.681,-5.681,-5.681,-5.681,-5.681,-5.681,-5.681,-5.681,-5.681,-5.681,-5.681,-5.681,-5.681,-5.681,-5.681,-5.681,-5.681,-5.681,-5.6686,-5.6084,-5.593,-5.5776,-5.513,-5.4945,-5.4791,-5.4114,-5.3914,-5.3775,-5.3098,-5.2944,-5.2883,-5.2729,-5.2698,-5.2698,-5.2698,-5.2698,-5.2698,-5.2698,-5.2698,-5.2698,-5.2698,-5.2698,-5.2698,-5.2698,-5.2698,-5.2698,-5.2698,-5.2698,-5.2698,-5.2698,-5.2698,-5.2698,-5.2698,-5.2698,-5.2698,-5.2698,-5.2698,-5.2698,-5.2698,-5.2698,-5.2698,-5.2698,-5.2698,-5.2698,-5.2698,-5.2698,-5.2698,-5.2698,-5.2698,-5.2698,-5.2698,-5.2698,-5.2698,-5.2698,-5.2698,-5.2698,-5.2698,-6.0794,-6.0794,-6.0794,-6.0794,-6.0794,-6.0794,-6.0794,-6.0794,-6.0794,-6.0794,-6.0178,-5.947,-5.8854,-5.8146,-5.7487,-5.6871,-5.681,-5.681,-5.681,-5.681,-5.681,-5.681,-5.681,-5.681,-5.681,-5.681,-5.681,-5.681,-5.681,-5.681,-5.681,-5.681,-5.681,-5.681,-5.681,-5.681,-5.681,-5.681,-5.681,-5.681,-5.681,-5.681,-5.681,-5.681,-5.681,-5.681,-5.681,-5.681,-5.681,-5.681,-5.681,-5.681,-5.681,-5.681,-5.681,-5.681,-5.681,-5.681,-5.6748,-5.6717,-5.6563,-5.5807,-5.5622,-5.5438,-5.4745,-5.4621,-5.4406,-5.373,-5.3652,-5.3468,-5.2821,-5.2698,-5.2698,-5.2698,-5.2698,-5.2698,-5.2698,-5.2698,-5.2698,-5.2698,-5.2698,-5.2698,-5.2698,-5.2698,-5.2698,-5.2698,-5.2698,-5.2698,-5.2698,-5.2698,-5.2698,-5.2698,-5.2698,-5.2698,-5.2698,-5.2698,-5.2698,-5.2698,-5.2698,-5.2698,-5.2698,-5.2698,-5.2698,-5.2698,-5.2698,-5.2698,-5.2698,-5.2698,-5.2698,-5.2698,-5.2698,-5.2698,-5.2698,-5.2698,-5.2698,-5.2698,-6.0794,-6.0794,-6.0794,-6.0794,-6.0794,-6.0794,-6.0794,-6.0794,-6.0794,-6.0794,-6.0209,-5.9532,-5.8854,-5.8177,-5.7549,-5.6871,-5.681,-5.681,-5.681,-5.681,-5.681,-5.681,-5.681,-5.681,-5.681,-5.681,-5.681,-5.681,-5.681,-5.681,-5.681,-5.681,-5.681,-5.681,-5.681,-5.681,-5.681,-5.681,-5.681,-5.681,-5.681,-5.681,-5.681,-5.681,-5.681,-5.681,-5.681,-5.681,-5.681,-5.681,-5.681,-5.681,-5.681,-5.681,-5.681,-5.681,-5.681,-5.681,-5.681,-5.681,-5.6748,-5.6471,-5.6361,-5.6176,-5.5468,-5.5315,-5.513,-5.4437,-5.4314,-5.4222,-5.3976,-5.3622,-5.3345,-5.3345,-5.2975,-5.2698,-5.2698,-5.2698,-5.2698,-5.2698,-5.2698,-5.2698,-5.2698,-5.2698,-5.2698,-5.2698,-5.2698,-5.2698,-5.2698,-5.2698,-5.2698,-5.2698,-5.2698,-5.2698,-5.2698,-5.2698,-5.2698,-5.2698,-5.2698,-5.2698,-5.2698,-5.2698,-5.2698,-5.2698,-5.2698,-5.2698,-5.2698,-5.2698,-5.2698,-5.2698,-5.2698,-5.2698,-5.2698,-5.2698,-5.2698,-5.2698,-6.0794,-6.0794,-6.0794,-6.0794,-6.0794,-6.0794,-6.0794,-6.0794,-6.0794,-6.0794,-6.0393,-5.9839,-5.9162,-5.8485,-5.7808,-5.7179,-5.6933,-5.681,-5.681,-5.681,-5.681,-5.681,-5.681,-5.681,-5.681,-5.681,-5.681,-5.681,-5.681,-5.681,-5.681,-5.681,-5.681,-5.681,-5.681,-5.681,-5.681,-5.681,-5.681,-5.681,-5.681,-5.681,-5.681,-5.681,-5.681,-5.681,-5.681,-5.681,-5.681,-5.681,-5.681,-5.681,-5.681,-5.681,-5.681,-5.681,-5.681,-5.681,-5.681,-5.681,-5.681,-5.681,-5.681,-5.6686,-5.6146,-5.6023,-5.5838,-5.5161,-5.5037,-5.4976,-5.4714,-5.4314,-5.3976,-5.3976,-5.3652,-5.3283,-5.3067,-5.3037,-5.2944,-5.2729,-5.2698,-5.2698,-5.2698,-5.2698,-5.2698,-5.2698,-5.2698,-5.2698,-5.2698,-5.2698,-5.2698,-5.2698,-5.2698,-5.2698,-5.2698,-5.2698,-5.2698,-5.2698,-5.2698,-5.2698,-5.2698,-5.2698,-5.2698,-5.2698,-5.2698,-5.2698,-5.2698,-5.2698,-5.2698,-5.2698,-5.2698,-5.2698,-5.2698,-5.2698,-5.2698,-5.2698,-6.0794,-6.0794,-6.0794,-6.0794,-6.0794,-6.0794,-6.0794,-6.0794,-6.0794,-6.0794,-6.0794,-6.0547,-5.987,-5.9193,-5.8516,-5.7888,-5.721,-5.681,-5.681,-5.681,-5.681,-5.681,-5.681,-5.681,-5.681,-5.681,-5.681,-5.681,-5.681,-5.681,-5.681,-5.681,-5.681,-5.681,-5.681,-5.681,-5.681,-5.681,-5.681,-5.681,-5.681,-5.681,-5.681,-5.681,-5.681,-5.681,-5.681,-5.681,-5.681,-5.681,-5.681,-5.681,-5.681,-5.681,-5.681,-5.681,-5.681,-5.681,-5.681,-5.681,-5.681,-5.681,-5.681,-5.681,-5.681,-5.681,-5.6594,-5.5838,-5.5715,-5.5499,-5.4806,-5.4683,-5.4683,-5.4683,-5.4683,-5.4437,-5.3837,-5.3745,-5.3468,-5.2821,-5.2729,-5.2729,-5.2729,-5.2698,-5.2698,-5.2698,-5.2698,-5.2698,-5.2698,-5.2698,-5.2698,-5.2698,-5.2698,-5.2698,-5.2698,-5.2698,-5.2698,-5.2698,-5.2698,-5.2698,-5.2698,-5.2698,-5.2698,-5.2698,-5.2698,-5.2698,-5.2698,-5.2698,-5.2698,-5.2698,-5.2698,-5.2698,-5.2698,-5.2698,-5.2698,-5.2698,-6.0794,-6.0794,-6.0794,-6.0794,-6.0794,-6.0794,-6.0794,-6.0794,-6.0794,-6.0794,-6.0794,-6.0547,-5.987,-5.9193,-5.8516,-5.7888,-5.721,-5.681,-5.681,-5.681,-5.681,-5.681,-5.681,-5.681,-5.681,-5.681,-5.681,-5.681,-5.681,-5.681,-5.681,-5.681,-5.681,-5.681,-5.681,-5.681,-5.681,-5.681,-5.681,-5.681,-5.681,-5.681,-5.681,-5.681,-5.681,-5.681,-5.681,-5.681,-5.681,-5.681,-5.681,-5.681,-5.681,-5.681,-5.681,-5.681,-5.681,-5.681,-5.681,-5.681,-5.681,-5.681,-5.681,-5.681,-5.681,-5.681,-5.6748,-5.6532,-5.6502,-5.644,-5.6207,-5.5745,-5.5407,-5.5407,-5.5037,-5.4621,-5.4406,-5.4375,-5.4314,-5.4099,-5.3714,-5.3406,-5.3406,-5.3006,-5.2698,-5.2698,-5.2698,-5.2698,-5.2698,-5.2698,-5.2698,-5.2698,-5.2698,-5.2698,-5.2698,-5.2698,-5.2698,-5.2698,-5.2698,-5.2698,-5.2698,-5.2698,-5.2698,-5.2698,-5.2698,-5.2698,-5.2698,-5.2698,-5.2698,-5.2698,-5.2698,-5.2698,-5.2698,-5.2698,-5.2698,-5.2698,-6.0794,-6.0794,-6.0794,-6.0794,-6.0794,-6.0794,-6.0794,-6.0794,-6.0794,-6.0794,-6.0794,-6.064,-6.024,-5.9593,-5.8916,-5.8239,-5.7364,-5.681,-5.681,-5.681,-5.681,-5.681,-5.681,-5.681,-5.681,-5.681,-5.681,-5.681,-5.681,-5.681,-5.681,-5.681,-5.681,-5.681,-5.681,-5.681,-5.681,-5.681,-5.681,-5.681,-5.681,-5.681,-5.681,-5.681,-5.681,-5.681,-5.681,-5.681,-5.681,-5.681,-5.681,-5.681,-5.681,-5.681,-5.681,-5.681,-5.681,-5.681,-5.681,-5.681,-5.681,-5.681,-5.681,-5.681,-5.681,-5.681,-5.681,-5.681,-5.681,-5.681,-5.681,-5.6471,-5.6115,-5.6115,-5.5807,-5.5438,-5.5161,-5.513,-5.5007,-5.4714,-5.4314,-5.4068,-5.4068,-5.3498,-5.3006,-5.2729,-5.2698,-5.2698,-5.2698,-5.2698,-5.2698,-5.2698,-5.2698,-5.2698,-5.2698,-5.2698,-5.2698,-5.2698,-5.2698,-5.2698,-5.2698,-5.2698,-5.2698,-5.2698,-5.2698,-5.2698,-5.2698,-5.2698,-5.2698,-5.2698,-5.2698,-5.2698,-5.2698,-5.2698,-5.2698,-5.2698,-6.0794,-6.0794,-6.0794,-6.0794,-6.0794,-6.0794,-6.0794,-6.0794,-6.0794,-6.0794,-6.0794,-6.0794,-6.0794,-6.0178,-5.9532,-5.8916,-5.7672,-5.6871,-5.681,-5.681,-5.681,-5.681,-5.681,-5.681,-5.681,-5.681,-5.681,-5.681,-5.681,-5.681,-5.681,-5.681,-5.681,-5.681,-5.681,-5.681,-5.681,-5.681,-5.681,-5.681,-5.681,-5.681,-5.681,-5.681,-5.681,-5.681,-5.681,-5.681,-5.681,-5.681,-5.681,-5.681,-5.681,-5.681,-5.681,-5.681,-5.681,-5.681,-5.681,-5.681,-5.681,-5.681,-5.681,-5.681,-5.681,-5.681,-5.681,-5.681,-5.681,-5.681,-5.681,-5.681,-5.681,-5.681,-5.681,-5.6594,-5.5869,-5.5776,-5.5561,-5.4976,-5.4806,-5.4775,-5.4775,-5.416,-5.3529,-5.2852,-5.279,-5.276,-5.2698,-5.2698,-5.2698,-5.2698,-5.2698,-5.2698,-5.2698,-5.2698,-5.2698,-5.2698,-5.2698,-5.2698,-5.2698,-5.2698,-5.2698,-5.2698,-5.2698,-5.2698,-5.2698,-5.2698,-5.2698,-5.2698,-5.2698,-5.2698,-5.2698,-5.2698,-5.2698,-5.2698,-6.0794,-6.0794,-6.0794,-6.0794,-6.0794,-6.0794,-6.0794,-6.0794,-6.0794,-6.0794,-6.0794,-6.0794,-6.0794,-6.0178,-5.9716,-5.9593,-5.8331,-5.7364,-5.684,-5.681,-5.681,-5.681,-5.681,-5.681,-5.681,-5.681,-5.681,-5.681,-5.681,-5.681,-5.681,-5.681,-5.681,-5.681,-5.681,-5.681,-5.681,-5.681,-5.681,-5.681,-5.681,-5.681,-5.681,-5.681,-5.681,-5.681,-5.681,-5.681,-5.681,-5.681,-5.681,-5.681,-5.681,-5.681,-5.681,-5.681,-5.681,-5.681,-5.681,-5.681,-5.681,-5.681,-5.681,-5.681,-5.681,-5.681,-5.681,-5.681,-5.681,-5.681,-5.681,-5.681,-5.681,-5.681,-5.681,-5.6748,-5.6594,-5.6594,-5.6532,-5.633,-5.5807,-5.5468,-5.5468,-5.4884,-5.4237,-5.3514,-5.3498,-5.3283,-5.2729,-5.2698,-5.2698,-5.2698,-5.2698,-5.2698,-5.2698,-5.2698,-5.2698,-5.2698,-5.2698,-5.2698,-5.2698,-5.2698,-5.2698,-5.2698,-5.2698,-5.2698,-5.2698,-5.2698,-5.2698,-5.2698,-5.2698,-5.2698,-5.2698,-5.2698,-5.2698,-5.2698,-6.0794,-6.0794,-6.0794,-6.0794,-6.0794,-6.0794,-6.0794,-6.0794,-6.0794,-6.0794,-6.0794,-6.0794,-6.0794,-6.0486,-6.0147,-5.9809,-5.8547,-5.7672,-5.7303,-5.6994,-5.681,-5.681,-5.681,-5.681,-5.681,-5.681,-5.681,-5.681,-5.681,-5.681,-5.681,-5.681,-5.681,-5.681,-5.681,-5.681,-5.681,-5.681,-5.681,-5.681,-5.681,-5.681,-5.681,-5.681,-5.681,-5.681,-5.681,-5.681,-5.681,-5.681,-5.681,-5.681,-5.681,-5.681,-5.681,-5.681,-5.681,-5.681,-5.681,-5.681,-5.681,-5.681,-5.681,-5.681,-5.681,-5.681,-5.681,-5.681,-5.681,-5.681,-5.681,-5.681,-5.681,-5.681,-5.681,-5.681,-5.681,-5.681,-5.681,-5.681,-5.6471,-5.6084,-5.5715,-5.5376,-5.4914,-5.4222,-5.3899,-5.356,-5.3221,-5.2883,-5.2698,-5.2698,-5.2698,-5.2698,-5.2698,-5.2698,-5.2698,-5.2698,-5.2698,-5.2698,-5.2698,-5.2698,-5.2698,-5.2698,-5.2698,-5.2698,-5.2698,-5.2698,-5.2698,-5.2698,-5.2698,-5.2698,-5.2698,-5.2698,-5.2698,-5.2698,-6.0794,-6.0794,-6.0794,-6.0794,-6.0794,-6.0794,-6.0794,-6.0794,-6.0794,-6.0794,-6.0794,-6.0794,-6.0794,-6.0794,-6.0517,-5.9839,-5.867,-5.7949,-5.7826,-5.7179,-5.681,-5.681,-5.681,-5.681,-5.681,-5.681,-5.681,-5.681,-5.681,-5.681,-5.681,-5.681,-5.681,-5.681,-5.681,-5.681,-5.681,-5.681,-5.681,-5.681,-5.681,-5.681,-5.681,-5.681,-5.681,-5.681,-5.681,-5.681,-5.681,-5.681,-5.681,-5.681,-5.681,-5.681,-5.681,-5.681,-5.681,-5.681,-5.681,-5.681,-5.681,-5.681,-5.681,-5.681,-5.681,-5.681,-5.681,-5.681,-5.681,-5.681,-5.681,-5.681,-5.681,-5.681,-5.681,-5.681,-5.681,-5.681,-5.681,-5.681,-5.681,-5.6594,-5.593,-5.5869,-5.5592,-5.4898,-5.4391,-5.396,-5.3745,-5.3191,-5.2821,-5.2698,-5.2698,-5.2698,-5.2698,-5.2698,-5.2698,-5.2698,-5.2698,-5.2698,-5.2698,-5.2698,-5.2698,-5.2698,-5.2698,-5.2698,-5.2698,-5.2698,-5.2698,-5.2698,-5.2698,-5.2698,-5.2698,-5.2698,-5.2698,-5.2698,-6.0794,-6.0794,-6.0794,-6.0794,-6.0794,-6.0794,-6.0794,-6.0794,-6.0794,-6.0794,-6.0794,-6.0794,-6.0794,-6.0794,-6.0517,-5.9839,-5.907,-5.8442,-5.7857,-5.7179,-5.681,-5.681,-5.681,-5.681,-5.681,-5.681,-5.681,-5.681,-5.681,-5.681,-5.681,-5.681,-5.681,-5.681,-5.681,-5.681,-5.681,-5.681,-5.681,-5.681,-5.681,-5.681,-5.681,-5.681,-5.681,-5.681,-5.681,-5.681,-5.681,-5.681,-5.681,-5.681,-5.681,-5.681,-5.681,-5.681,-5.681,-5.681,-5.681,-5.681,-5.681,-5.681,-5.681,-5.681,-5.681,-5.681,-5.681,-5.681,-5.681,-5.681,-5.681,-5.681,-5.681,-5.681,-5.681,-5.681,-5.681,-5.681,-5.681,-5.681,-5.681,-5.6779,-5.6686,-5.6656,-5.6378,-5.5622,-5.5468,-5.4914,-5.373,-5.3622,-5.3314,-5.2729,-5.2698,-5.2698,-5.2698,-5.2698,-5.2698,-5.2698,-5.2698,-5.2698,-5.2698,-5.2698,-5.2698,-5.2698,-5.2698,-5.2698,-5.2698,-5.2698,-5.2698,-5.2698,-5.2698,-5.2698,-5.2698,-5.2698,-5.2698,-5.2698,-6.0794,-6.0794,-6.0794,-6.0794,-6.0794,-6.0794,-6.0794,-6.0794,-6.0794,-6.0794,-6.0794,-6.0794,-6.0794,-6.0794,-6.0671,-6.0363,-5.9747,-5.907,-5.8362,-5.7734,-5.721,-5.684,-5.681,-5.681,-5.681,-5.681,-5.681,-5.681,-5.681,-5.681,-5.681,-5.681,-5.681,-5.681,-5.681,-5.681,-5.681,-5.681,-5.681,-5.681,-5.681,-5.681,-5.681,-5.681,-5.681,-5.681,-5.681,-5.681,-5.681,-5.681,-5.681,-5.681,-5.681,-5.681,-5.681,-5.681,-5.681,-5.681,-5.681,-5.681,-5.681,-5.681,-5.681,-5.681,-5.681,-5.681,-5.681,-5.681,-5.681,-5.681,-5.681,-5.681,-5.681,-5.681,-5.681,-5.681,-5.681,-5.681,-5.681,-5.681,-5.681,-5.681,-5.681,-5.681,-5.6686,-5.6347,-5.593,-5.5438,-5.4853,-5.4114,-5.3591,-5.3283,-5.2914,-5.2698,-5.2698,-5.2698,-5.2698,-5.2698,-5.2698,-5.2698,-5.2698,-5.2698,-5.2698,-5.2698,-5.2698,-5.2698,-5.2698,-5.2698,-5.2698,-5.2698,-5.2698,-5.2698,-5.2698,-5.2698,-5.2698,-5.2698]},{"header":{"parameterUnit":"m.s-1","parameterCategory":1,"la1":30.6,"la2":28.766,"lo1":-90.7593,"lo2":-88.6598,"dy":0.0162,"dx":0.0183,"nx":116,"ny":114,"refTime":"2023-03-21T06:00:00:Z","depth":0,"parameterNumber":3,"parameterNumberName":"V-component_of_WINDS"},"data":[0.0,0.0,0.0,0.0,0.0,0.0,0.0,0.0,0.0,0.0,0.0,0.0,0.0,0.0,0.0,0.0,0.0,0.0,0.0,0.0,0.0,0.0,0.0,0.0,0.0,0.0,0.0,0.0,0.0,0.0,0.0,0.0,0.0,0.0,0.0,0.0,0.0,0.0,0.0,0.0,0.0,0.0,0.0,0.0,0.0,0.0,0.0,0.0,0.0,0.0,0.0,0.0,0.0,0.0,0.0,0.0,0.0,0.0,0.0,0.0,0.0,0.0,0.0,0.0,0.0,0.0,0.0,0.0,0.0,0.0,0.0,0.0,0.0,0.0,0.0,0.0,0.0,0.0,0.0,0.0,0.0,0.0,0.0,0.0,0.0,0.0,0.0,0.0,0.0,0.0,0.0,0.0,0.0,0.0,0.0,0.0,0.0,0.0,0.0,0.0,0.0,0.0,0.0,0.0,0.0,0.0,0.0,0.0,0.0,0.0,0.0,0.0,0.0,0.0,0.0,0.0,0.0,0.0,0.0,0.0,0.0,0.0,0.0,0.0,0.0,0.0,0.0,0.0,0.0,0.0,0.0,0.0,0.0,0.0,0.0,0.0,0.0,0.0,0.0,0.0,0.0,0.0,0.0,0.0,0.0,0.0,0.0,0.0,0.0,0.0,0.0,0.0,0.0,0.0,0.0,0.0,0.0,0.0,0.0,0.0,0.0,0.0,0.0,0.0,0.0,0.0,0.0,0.0,0.0,0.0,0.0,0.0,0.0,0.0,0.0,0.0,0.0,0.0,0.0,0.0,0.0,0.0,0.0,0.0,0.0,0.0,0.0,0.0,0.0,0.0,0.0,0.0,0.0,0.0,0.0,0.0,0.0,0.0,0.0,0.0,0.0,0.0,0.0,0.0,0.0,0.0,0.0,0.0,0.0,0.0,0.0,0.0,0.0,0.0,0.0,0.0,0.0,0.0,0.0,0.0,0.0,0.0,0.0,0.0,0.0,0.0,0.0,0.0,0.0,0.0,0.0,0.0,0.0,0.0,0.0,0.0,0.0,0.0,0.0,0.0,0.0,0.0,0.0,0.0,0.0,0.0,0.0,0.0,0.0,0.0,0.0,0.0,0.0,0.0,0.0,0.0,0.0,0.0,0.0,0.0,0.0,0.0,0.0,0.0,0.0,0.0,0.0,0.0,0.0,0.0,0.0,0.0,0.0,0.0,0.0,0.0,0.0,0.0,0.0,0.0,0.0,0.0,0.0,0.0,0.0,0.0,0.0,0.0,0.0,0.0,0.0,0.0,0.0,0.0,0.0,0.0,0.0,0.0,0.0,0.0,0.0,0.0,0.0,0.0,0.0,0.0,0.0,0.0,0.0,0.0,0.0,0.0,0.0,0.0,0.0,0.0,0.0,0.0,0.0,0.0,0.0,0.0,0.0,0.0,0.0,0.0,0.0,0.0,0.0,0.0,0.0,0.0,0.0,0.0,0.0,0.0,0.0,0.0,0.0,0.0,0.0,0.0,0.0,0.0,0.0,0.0,0.0,0.0,0.0,0.0,0.0,0.0,0.0,0.0,0.0,0.0,0.0,0.0,0.0,0.0,0.0,0.0,0.0,0.0,0.0,0.0,0.0,0.0,0.0,0.0,0.0,0.0,0.0,0.0,0.0,0.0,0.0,0.0,0.0,0.0,0.0,0.0,0.0,0.0,0.0,0.0,0.0,0.0,0.0,0.0,0.0,0.0,0.0,0.0,0.0,0.0,0.0,0.0,0.0,0.0,0.0,0.0,0.0,0.0,0.0,0.0,0.0,0.0,0.0,0.0,0.0,0.0,0.0,0.0,0.0,0.0,0.0,0.0,0.0,0.0,0.0,0.0,0.0,0.0,0.0,0.0,0.0,0.0,0.0,0.0,0.0,0.0,0.0,0.0,0.0,0.0,0.0,0.0,0.0,0.0,0.0,0.0,0.0,0.0,0.0,0.0,0.0,0.0,0.0,0.0,0.0,0.0,0.0,0.0,0.0,0.0,0.0,0.0,0.0,0.0,0.0,0.0,0.0,0.0,0.0,0.0,0.0,0.0,0.0,0.0,0.0,0.0,0.0,0.0,0.0,0.0,0.0,0.0,0.0,0.0,0.0,0.0,0.0,0.0,0.0,0.0,0.0,0.0,0.0,0.0,0.0,0.0,0.0,0.0,0.0,0.0,0.0,0.0,0.0,0.0,0.0,0.0,0.0,0.0,0.0,0.0,0.0,0.0,0.0,0.0,0.0,0.0,0.0,0.0,0.0,0.0,0.0,0.0,0.0,0.0,0.0,0.0,0.0,0.0,0.0,0.0,0.0,0.0,0.0,0.0,0.0,0.0,0.0,0.0,0.0,0.0,0.0,0.0,0.0,0.0,0.0,0.0,0.0,0.0,0.0,0.0,0.0,0.0,0.0,0.0,0.0,0.0,0.0,0.0,0.0,0.0,0.0,0.0,0.0,0.0,0.0,0.0,0.0,0.0,0.0,0.0,0.0,0.0,0.0,0.0,0.0,0.0,0.0,0.0,0.0,0.0,0.0,0.0,0.0,0.0,0.0,0.0,0.0,0.0,0.0,0.0,0.0,0.0,0.0,0.0,0.0,0.0,0.0,0.0,0.0,0.0,0.0,0.0,0.0,0.0,0.0,0.0,0.0,0.0,0.0,0.0,0.0,0.0,0.0,0.0,0.0,0.0,0.0,0.0,0.0,0.0,0.0,0.0,0.0,0.0,0.0,0.0,0.0,0.0,0.0,0.0,0.0,0.0,0.0,0.0,0.0,0.0,0.0,0.0,0.0,0.0,0.0,0.0,0.0,0.0,0.0,0.0,0.0,0.0,0.0,0.0,0.0,0.0,0.0,0.0,0.0,0.0,0.0,0.0,0.0,0.0,0.0,0.0,0.0,0.0,0.0,0.0,0.0,0.0,0.0,0.0,0.0,0.0,0.0,0.0,0.0,0.0,0.0,0.0,0.0,0.0,0.0,0.0,0.0,0.0,0.0,0.0,0.0,0.0,0.0,0.0,0.0,0.0,0.0,0.0,0.0,0.0,0.0,0.0,0.0,0.0,0.0,0.0,0.0,0.0,0.0,0.0,0.0,0.0,0.0,0.0,0.0,0.0,0.0,0.0,0.0,0.0,0.0,0.0,0.0,0.0,0.0,0.0,0.0,0.0,0.0,0.0,0.0,0.0,0.0,0.0,0.0,0.0,0.0,0.0,0.0,0.0,0.0,0.0,0.0,0.0,0.0,0.0,0.0,0.0,0.0,0.0,0.0,0.0,0.0,0.0,0.0,0.0,0.0,0.0,0.0,0.0,0.0,0.0,0.0,0.0,0.0,0.0,0.0,0.0,0.0,0.0,0.0,0.0,0.0,0.0,0.0,0.0,0.0,0.0,0.0,0.0,0.0,0.0,0.0,0.0,0.0,0.0,0.0,0.0,0.0,0.0,0.0,0.0,0.0,0.0,0.0,0.0,0.0,0.0,0.0,0.0,0.0,0.0,0.0,0.0,0.0,0.0,0.0,0.0,0.0,0.0,0.0,0.0,0.0,0.0,0.0,0.0,0.0,0.0,0.0,0.0,0.0,0.0,0.0,0.0,0.0,0.0,0.0,0.0,0.0,0.0,0.0,0.0,0.0,0.0,0.0,0.0,0.0,0.0,0.0,0.0,0.0,0.0,0.0,0.0,0.0,0.0,0.0,0.0,0.0,0.0,0.0,0.0,0.0,0.0,0.0,0.0,0.0,0.0,0.0,0.0,0.0,0.0,0.0,0.0,0.0,0.0,0.0,0.0,0.0,0.0,0.0,0.0,0.0,0.0,0.0,0.0,0.0,0.0,0.0,0.0,0.0,0.0,0.0,0.0,0.0,0.0,0.0,0.0,0.0,0.0,0.0,0.0,0.0,0.0,0.0,0.0,0.0,0.0,0.0,0.0,0.0,0.0,0.0,0.0,0.0,0.0,0.0,0.0,0.0,0.0,0.0,0.0,0.0,0.0,0.0,0.0,0.0,0.0,0.0,0.0,0.0,0.0,0.0,0.0,0.0,0.0,0.0,0.0,0.0,0.0,0.0,0.0,0.0,0.0,0.0,0.0,0.0,0.0,0.0,0.0,0.0,0.0,0.0,0.0,0.0,0.0,0.0,0.0,0.0,0.0,0.0,0.0,0.0,0.0,0.0,0.0,0.0,0.0,0.0,0.0,0.0,0.0,0.0,0.0,0.0,0.0,0.0,0.0,0.0,0.0,0.0,0.0,0.0,0.0,0.0,0.0,0.0,0.0,0.0,0.0,0.0,0.0,0.0,0.0,0.0,0.0,0.0,0.0,0.0,0.0,0.0,0.0,0.0,0.0,0.0,0.0,0.0,0.0,0.0,0.0,0.0,0.0,0.0,0.0,0.0,0.0,0.0,0.0,0.0,0.0,0.0,0.0,0.0,0.0,0.0,0.0,0.0,0.0,0.0,0.0,0.0,0.0,0.0,0.0,0.0,0.0,0.0,0.0,0.0,0.0,0.0,0.0,0.0,0.0,0.0,0.0,0.0,0.0,0.0,0.0,0.0,0.0,0.0,0.0,0.0,0.0,0.0,0.0,0.0,0.0,0.0,0.0,0.0,0.0,0.0,0.0,0.0,0.0,0.0,0.0,0.0,0.0,0.0,0.0,0.0,0.0,0.0,0.0,0.0,0.0,0.0,0.0,0.0,0.0,0.0,0.0,0.0,0.0,0.0,0.0,0.0,0.0,0.0,0.0,0.0,0.0,0.0,0.0,0.0,0.0,0.0,0.0,0.0,0.0,0.0,0.0,0.0,0.0,0.0,0.0,0.0,0.0,0.0,0.0,0.0,0.0,0.0,0.0,0.0,0.0,0.0,0.0,0.0,0.0,0.0,0.0,0.0,0.0,0.0,0.0,0.0,0.0,0.0,0.0,0.0,0.0,0.0,0.0,0.0,0.0,0.0,0.0,0.0,0.0,0.0,0.0,0.0,0.0,0.0,0.0,0.0,0.0,0.0,0.0,0.0,0.0,0.0,0.0,0.0,0.0,0.0,0.0,0.0,0.0,0.0,0.0,0.0,0.0,0.0,0.0,0.0,0.0,0.0,0.0,0.0,0.0,0.0,0.0,0.0,0.0,0.0,0.0,0.0,0.0,0.0,0.0,0.0,0.0,0.0,0.0,0.0,0.0,0.0,0.0,0.0,0.0,0.0,0.0,0.0,0.0,0.0,0.0,0.0,0.0,0.0,0.0,0.0,0.0,0.0,0.0,0.0,0.0,0.0,0.0,0.0,0.0,0.0,0.0,0.0,0.0,0.0,0.0,0.0,0.0,0.0,0.0,0.0,0.0,0.0,0.0,0.0,0.0,0.0,0.0,0.0,0.0,0.0,0.0,0.0,0.0,0.0,0.0,0.0,0.0,0.0,0.0,0.0,0.0,0.0,0.0,0.0,0.0,0.0,0.0,0.0,0.0,0.0,0.0,0.0,0.0,0.0,0.0,0.0,0.0,0.0,0.0,0.0,0.0,0.0,0.0,0.0,0.0,0.0,0.0,0.0,0.0,0.0,0.0,0.0,0.0,0.0,0.0,0.0,0.0,0.0,0.0,0.0,0.0,0.0,0.0,0.0,0.0,0.0,0.0,0.0,0.0,0.0,0.0,0.0,0.0,0.0,0.0,0.0,0.0,0.0,0.0,0.0,0.0,0.0,0.0,0.0,0.0,0.0,0.0,0.0,0.0,0.0,0.0,0.0,0.0,0.0,0.0,0.0,0.0,0.0,0.0,0.0,0.0,0.0,0.0,0.0,0.0,0.0,0.0,0.0,0.0,0.0,0.0,0.0,0.0,0.0,0.0,0.0,0.0,0.0,0.0,0.0,0.0,0.0,0.0,0.0,0.0,0.0,0.0,0.0,0.0,0.0,0.0,0.0,0.0,0.0,0.0,0.0,0.0,0.0,0.0,0.0,0.0,0.0,0.0,0.0,0.0,0.0,0.0,0.0,0.0,0.0,0.0,0.0,0.0,0.0,0.0,0.0,0.0,0.0,0.0,0.0,0.0,0.0,0.0,0.0,0.0,0.0,0.0,0.0,0.0,0.0,0.0,3.3887,3.2848,0.0,0.0,0.0,0.0,0.0,0.0,0.0,0.0,0.0,0.0,0.0,0.0,0.0,0.0,0.0,0.0,0.0,0.0,0.0,0.0,0.0,0.0,0.0,0.0,0.0,0.0,0.0,0.0,0.0,0.0,0.0,0.0,0.0,0.0,0.0,0.0,0.0,0.0,1.9275,1.9409,1.9642,1.9696,1.9685,1.9665,0.0,0.0,0.0,0.0,0.0,0.0,0.0,0.0,0.0,0.0,0.0,0.0,0.0,0.0,0.0,0.0,0.0,0.0,0.0,0.0,0.0,0.0,0.0,0.0,0.0,0.0,0.0,0.0,0.0,0.0,0.0,0.0,0.0,0.0,0.0,0.0,0.0,0.0,0.0,0.0,0.0,0.0,0.0,0.0,0.0,0.0,0.0,0.0,0.0,0.0,0.0,0.0,0.0,0.0,0.0,0.0,0.0,0.0,0.0,0.0,0.0,0.0,0.0,0.0,0.0,0.0,0.0,0.0,0.0,0.0,3.5355,3.434,0.0,0.0,0.0,0.0,0.0,0.0,0.0,0.0,0.0,0.0,0.0,0.0,0.0,0.0,0.0,0.0,0.0,0.0,0.0,0.0,0.0,0.0,0.0,0.0,0.0,0.0,0.0,0.0,0.0,0.0,0.0,0.0,0.0,0.0,0.0,0.0,0.0,2.0139,1.991,2.0202,2.1044,2.2297,2.2229,2.1,2.1574,0.0,0.0,0.0,0.0,0.0,0.0,0.0,0.0,0.0,0.0,0.0,0.0,0.0,0.0,0.0,0.0,0.0,0.0,0.0,0.0,0.0,0.0,0.0,0.0,0.0,0.0,0.0,0.0,0.0,0.0,0.0,0.0,0.0,0.0,0.0,0.0,0.0,0.0,0.0,0.0,0.0,0.0,0.0,0.0,0.0,0.0,0.0,0.0,0.0,0.0,0.0,0.0,0.0,0.0,0.0,0.0,0.0,0.0,0.0,0.0,0.0,0.0,0.0,3.8757,3.8898,3.8876,3.8639,3.8639,3.878,3.6985,3.5971,3.554,3.55,0.0,0.0,0.0,0.0,0.0,0.0,0.0,0.0,0.0,0.0,0.0,0.0,0.0,0.0,0.0,0.0,0.0,0.0,0.0,0.0,0.0,0.0,2.4636,2.4636,2.4636,0.0,0.0,0.0,0.0,0.0,0.0,0.0,0.0,2.387,2.345,2.3236,2.2688,2.2444,2.2585,2.2791,2.2791,2.2598,2.2941,2.317,2.342,0.0,0.0,0.0,0.0,0.0,0.0,0.0,0.0,0.0,0.0,0.0,0.0,0.0,0.0,0.0,0.0,0.0,0.0,0.0,0.0,0.0,0.0,0.0,0.0,0.0,0.0,0.0,0.0,0.0,0.0,0.0,0.0,0.0,0.0,0.0,0.0,0.0,0.0,0.0,0.0,0.0,3.2825,3.4305,0.0,0.0,0.0,0.0,0.0,0.0,0.0,0.0,0.0,0.0,0.0,0.0,0.0,3.8074,3.8253,3.9334,3.9838,3.9838,4.1009,4.1606,4.1549,4.0384,4.0442,4.1492,4.0094,0.0,3.6194,3.5867,0.0,0.0,0.0,0.0,0.0,0.0,0.0,0.0,0.0,0.0,0.0,0.0,0.0,0.0,0.0,0.0,0.0,0.0,0.0,0.0,0.0,0.0,2.4636,2.4636,2.4636,2.4636,0.0,0.0,0.0,0.0,0.0,0.0,2.4636,2.4356,2.3981,2.3527,2.3073,2.2928,2.2928,2.2928,2.2928,2.2941,2.3006,2.3166,2.3367,2.3955,0.0,0.0,0.0,0.0,0.0,0.0,0.0,0.0,0.0,0.0,0.0,0.0,0.0,0.0,0.0,0.0,0.0,0.0,0.0,0.0,0.0,0.0,0.0,0.0,0.0,0.0,0.0,0.0,0.0,0.0,0.0,0.0,0.0,0.0,0.0,0.0,0.0,0.0,0.0,3.3462,3.3868,3.431,3.4551,3.4609,0.0,0.0,0.0,0.0,0.0,0.0,0.0,0.0,0.0,3.9464,3.9522,3.9989,4.0904,4.1444,4.1728,4.1728,4.2344,4.2594,4.2594,4.198,4.2037,4.2594,4.198,4.0673,3.8935,3.8461,3.7385,3.6072,0.0,0.0,0.0,0.0,3.646,3.646,0.0,0.0,0.0,0.0,0.0,0.0,0.0,0.0,0.0,0.0,0.0,0.0,2.4636,2.4636,2.4636,2.4636,2.4636,2.4636,0.0,0.0,0.0,0.0,0.0,2.4596,2.4529,2.4168,2.3728,2.3207,2.2979,2.2928,2.2928,2.2928,2.2928,2.2996,2.2996,2.3131,2.3386,2.3977,2.4507,2.4966,0.0,0.0,0.0,0.0,0.0,0.0,0.0,0.0,0.0,0.0,0.0,0.0,0.0,0.0,0.0,0.0,0.0,0.0,0.0,0.0,0.0,0.0,0.0,0.0,0.0,0.0,0.0,0.0,0.0,0.0,0.0,0.0,0.0,0.0,0.0,0.0,0.0,3.4453,3.4258,3.3945,3.4502,3.4754,0.0,0.0,0.0,0.0,0.0,0.0,3.8817,3.8817,3.9522,4.1191,4.1191,4.1785,4.2986,4.2986,4.2986,4.2986,4.2986,4.2986,4.2986,4.2986,4.2986,4.2986,4.2986,4.2457,4.1501,4.0616,3.937,3.7985,3.7865,3.7648,3.7467,3.7708,3.779,3.779,0.0,0.0,0.0,0.0,0.0,0.0,0.0,0.0,0.0,0.0,0.0,0.0,0.0,2.4636,2.4636,2.4636,2.4636,2.4636,0.0,0.0,0.0,0.0,0.0,2.4502,2.4235,2.3661,2.322,2.2886,2.2941,2.2928,2.2928,2.2928,2.3065,2.3338,2.3338,2.3406,2.3393,2.4077,2.5285,2.6858,2.6113,0.0,0.0,0.0,0.0,0.0,0.0,0.0,0.0,0.0,0.0,0.0,0.0,0.0,0.0,0.0,0.0,0.0,0.0,0.0,0.0,0.0,0.0,0.0,0.0,0.0,0.0,0.0,0.0,0.0,0.0,0.0,0.0,0.0,0.0,0.0,0.0,0.0,0.0,3.3457,3.4568,0.0,0.0,0.0,0.0,3.7708,3.7746,3.858,4.0361,4.0476,4.1248,4.2849,4.2849,4.293,4.2986,4.2986,4.2986,4.2986,4.2986,4.2986,4.2986,4.2986,4.2986,4.2986,4.2986,4.2986,4.2793,4.1248,3.9838,3.8602,3.7985,3.7805,3.7865,3.8803,3.9098,3.9098,0.0,0.0,0.0,0.0,0.0,0.0,0.0,0.0,0.0,0.0,0.0,0.0,0.0,2.4636,2.4636,2.4636,2.4636,2.4636,2.4636,0.0,0.0,0.0,0.0,2.4128,2.3647,2.3434,2.318,2.2928,2.2928,2.2996,2.3201,2.3201,2.3406,2.3816,2.3816,2.3884,2.4184,2.527,2.624,2.7161,2.8256,2.9154,0.0,0.0,0.0,0.0,0.0,0.0,0.0,0.0,0.0,0.0,0.0,0.0,0.0,0.0,0.0,0.0,0.0,0.0,0.0,0.0,0.0,0.0,0.0,0.0,0.0,0.0,0.0,0.0,0.0,0.0,0.0,0.0,0.0,0.0,0.0,0.0,0.0,3.459,3.5232,0.0,3.6864,3.8461,3.9487,3.9581,4.0534,4.1419,4.2093,4.215,4.2375,4.2986,4.2986,4.2986,4.2986,4.2986,4.2986,4.2986,4.2986,4.2986,4.2986,4.2986,4.2986,4.2986,4.2986,4.2986,4.2986,4.2375,4.1728,4.11,4.0904,4.0755,4.0605,4.0952,4.1091,4.1091,0.0,0.0,0.0,0.0,0.0,0.0,0.0,0.0,0.0,0.0,0.0,2.4119,2.4562,2.4636,2.4636,2.4636,2.4636,2.4636,2.4636,0.0,0.0,0.0,2.4115,0.0,2.334,2.322,2.3073,2.2928,2.2928,2.2996,2.3201,2.3338,2.3611,2.4034,2.4088,2.4374,2.4849,2.6651,2.7725,2.8324,2.9388,3.059,3.1772,0.0,0.0,0.0,0.0,0.0,0.0,0.0,0.0,0.0,0.0,0.0,0.0,0.0,0.0,0.0,0.0,0.0,0.0,0.0,0.0,0.0,0.0,0.0,0.0,0.0,0.0,0.0,0.0,0.0,0.0,0.0,0.0,0.0,0.0,3.3974,3.4403,3.5314,3.6316,3.7325,3.8186,3.9896,4.0961,4.11,4.215,4.2874,4.2961,4.2986,4.2986,4.2986,4.2986,4.2986,4.2986,4.2986,4.2986,4.2986,4.2986,4.2986,4.2986,4.2986,4.2986,4.2986,4.2986,4.2986,4.2986,4.2986,4.2849,4.2625,4.2513,4.2369,4.2199,4.2029,4.1915,4.1915,0.0,0.0,0.0,0.0,0.0,0.0,0.0,0.0,0.0,0.0,2.3735,2.4119,2.4562,2.4636,2.4636,2.4636,2.4636,2.4636,2.4636,2.4549,0.0,0.0,0.0,0.0,2.3313,2.302,2.2928,2.2928,2.2928,2.2928,2.2928,2.327,2.3611,2.4034,2.4374,2.4713,2.5255,2.8015,2.9676,3.0395,2.9404,3.0956,3.3692,0.0,0.0,0.0,0.0,0.0,0.0,0.0,0.0,0.0,0.0,0.0,0.0,0.0,0.0,0.0,0.0,0.0,0.0,0.0,0.0,0.0,0.0,0.0,0.0,0.0,0.0,0.0,0.0,0.0,0.0,0.0,0.0,0.0,3.3418,3.4528,3.5376,3.5438,3.767,3.9216,3.9275,4.0697,4.1777,4.211,4.2369,4.2625,4.2986,4.2986,4.2986,4.2986,4.2986,4.2986,4.2986,4.2986,4.2986,4.2986,4.2986,4.2986,4.2986,4.2986,4.2986,4.2986,4.2986,4.2986,4.2986,4.2986,4.2986,4.2986,4.2625,4.2513,4.2457,4.1834,4.1606,4.1606,0.0,0.0,0.0,0.0,0.0,0.0,0.0,0.0,0.0,0.0,2.3674,2.3822,2.4488,2.4636,2.4636,2.4636,2.4636,2.4636,2.4636,0.0,0.0,0.0,0.0,0.0,2.2993,2.2968,2.2928,2.2928,2.2928,2.2996,2.327,2.3338,2.3747,2.436,2.4428,2.4713,2.5187,2.6953,2.876,3.0649,3.2375,3.4018,3.5245,0.0,0.0,0.0,0.0,0.0,0.0,0.0,0.0,0.0,0.0,0.0,0.0,0.0,0.0,0.0,0.0,0.0,0.0,0.0,0.0,0.0,0.0,0.0,0.0,0.0,0.0,0.0,0.0,0.0,0.0,0.0,3.3496,3.3418,3.3418,3.3733,3.4632,3.6581,3.7768,3.9134,4.0779,4.1777,4.2287,4.2369,4.2457,4.2625,4.2986,4.2986,4.2986,4.2986,4.2986,4.2986,4.2986,4.2986,4.2986,4.2986,4.2986,4.2986,4.2986,4.2986,4.2986,4.2986,4.2986,4.2986,4.2986,4.2986,4.2986,4.2986,4.293,4.2874,4.2793,4.24,4.2142,4.1915,0.0,0.0,0.0,0.0,0.0,0.0,0.0,0.0,0.0,0.0,2.3451,2.3525,2.4488,2.4488,2.4414,2.4562,2.4636,2.4636,2.4636,0.0,0.0,0.0,0.0,2.322,2.2941,2.2928,2.2928,2.2928,2.2928,2.2996,2.3201,2.3338,2.3747,2.4292,2.4442,2.4713,2.5187,2.6553,2.8089,2.9833,3.2685,3.4681,3.5879,3.504,3.5245,3.5879,3.504,3.4746,3.4815,3.5743,0.0,0.0,0.0,0.0,0.0,0.0,0.0,0.0,0.0,0.0,0.0,0.0,0.0,0.0,0.0,0.0,0.0,0.0,0.0,0.0,0.0,0.0,0.0,0.0,3.3418,3.3607,3.4153,3.4694,3.5602,3.7127,3.8566,4.0059,4.1492,4.2004,4.2369,4.2457,4.2625,4.2793,4.2986,4.2986,4.2986,4.2986,4.2986,4.2986,4.2986,4.2986,4.2986,4.2986,4.2986,4.2986,4.2986,4.2986,4.2986,4.2986,4.2986,4.2986,4.2986,4.2986,4.2986,4.2986,0.0,0.0,0.0,0.0,4.2231,4.1859,0.0,0.0,0.0,0.0,0.0,0.0,0.0,0.0,0.0,0.0,0.0,2.3302,2.4414,2.4193,2.4119,2.4341,2.4341,2.424,0.0,0.0,0.0,2.3501,2.3124,2.2899,2.2928,2.2928,2.2928,2.2928,2.2928,2.2928,2.2928,2.3201,2.3611,2.402,2.4306,2.4713,2.5187,2.6553,2.755,2.8546,3.146,3.3876,3.5743,3.5947,3.6016,3.6016,3.6016,3.6016,3.6016,3.6016,0.0,0.0,0.0,0.0,0.0,0.0,0.0,0.0,0.0,0.0,0.0,0.0,0.0,0.0,0.0,0.0,0.0,0.0,0.0,0.0,0.0,0.0,0.0,0.0,3.3418,3.3859,3.5191,3.652,3.7347,3.7489,3.9592,4.1206,4.1549,4.1915,4.2256,4.2457,4.2762,4.293,4.2986,4.2986,0.0,0.0,0.0,4.2986,4.2986,4.2986,4.2986,4.2986,4.2986,4.2986,4.2986,4.2986,4.2986,4.2986,4.2986,4.2986,4.2986,4.2986,4.2986,4.2986,4.2986,4.2986,4.293,4.2625,4.2118,4.1663,0.0,0.0,0.0,0.0,0.0,0.0,0.0,0.0,0.0,2.0737,2.2085,2.3228,2.4044,2.4044,2.3661,2.2744,2.267,2.1977,0.0,0.0,2.3314,2.1549,2.2574,2.3113,2.2873,2.2928,2.2928,2.2928,2.2928,2.2928,2.2928,2.2996,2.3338,2.4034,2.4088,2.4442,2.5187,2.6553,2.755,2.8546,3.146,3.325,3.4333,3.5538,3.6016,3.6016,3.6016,3.6016,3.6016,3.6016,3.6016,3.6016,3.6016,3.6016,0.0,0.0,0.0,0.0,0.0,0.0,0.0,0.0,0.0,0.0,0.0,0.0,0.0,0.0,0.0,0.0,0.0,0.0,0.0,3.3437,3.3418,3.3859,3.5191,3.652,3.767,3.8744,3.9686,4.0639,4.1549,4.2118,4.2425,4.2513,4.2369,4.2481,4.2986,4.2762,4.2737,4.2986,4.2986,4.2986,4.2986,4.2986,4.2986,4.2986,4.2986,0.0,4.2986,4.2986,4.2986,4.2986,4.2986,4.2986,4.2986,4.2986,4.2986,4.2986,4.2986,4.2793,4.2569,4.2513,4.2312,4.1972,0.0,0.0,0.0,0.0,0.0,0.0,0.0,0.0,0.0,0.0,1.98,2.0414,2.1227,2.1314,2.1164,2.0703,2.0864,0.0,0.0,2.1013,2.128,2.0078,2.0675,2.1258,2.1747,2.1747,2.2091,2.2928,2.2928,2.2928,2.2928,2.2928,2.3201,2.3679,2.3884,2.4306,2.4849,2.5712,2.6496,2.7316,2.956,3.1322,3.291,3.5177,3.6016,3.6016,3.6016,3.6016,3.6016,3.6016,3.6016,3.6016,3.6016,3.6016,3.6016,0.0,0.0,0.0,0.0,0.0,0.0,0.0,0.0,0.0,0.0,0.0,0.0,0.0,0.0,3.375,3.375,0.0,3.3418,3.3418,3.3418,3.3859,3.5191,3.652,3.779,3.9039,4.0059,4.0894,4.1549,4.1891,4.2174,4.2457,4.2369,4.2481,4.2986,4.2874,4.2737,4.2737,4.2737,4.2706,4.2538,4.2538,4.2538,4.2538,4.2538,4.265,4.2737,4.2737,4.2874,4.2986,4.2986,4.2986,4.2986,4.2986,4.293,4.2737,4.2737,4.2737,4.2737,4.2737,4.2594,4.2256,0.0,0.0,0.0,0.0,0.0,0.0,0.0,0.0,0.0,0.0,1.7511,1.7683,1.8421,1.8507,1.8517,0.0,0.0,0.0,0.0,1.9223,1.9138,1.8675,1.8659,1.9134,2.0144,2.0421,2.1183,2.2448,2.2722,2.2928,2.2928,2.2928,2.3065,2.3406,2.3747,2.413,2.4596,2.4936,2.5451,2.6246,2.7757,2.9449,3.1367,3.4107,3.5451,3.6016,3.6016,3.6016,3.6016,3.6016,3.6016,3.6016,3.6016,3.6016,3.5996,3.5918,3.5898,0.0,0.0,0.0,0.0,0.0,0.0,0.0,0.0,3.418,3.3945,3.3945,3.3672,3.3418,3.3418,3.3418,3.3418,3.3418,3.3418,3.3965,3.5561,3.6642,3.785,3.9416,4.0571,4.1344,4.1606,4.1663,4.1891,4.2369,4.2344,4.2457,4.2818,4.2737,4.2625,4.2425,4.2425,4.2312,4.211,4.211,4.211,4.211,4.211,4.2199,4.2425,4.2425,4.2594,4.2818,4.2818,4.2818,4.2818,4.2818,4.265,4.2425,4.2425,4.2594,4.2818,4.2818,4.2575,4.2195,0.0,0.0,0.0,0.0,0.0,0.0,0.0,0.0,0.0,0.0,0.0,0.0,0.0,0.0,0.0,0.0,0.0,0.0,1.565,1.7951,1.8695,1.7077,1.8083,1.8709,1.867,1.9924,2.0698,2.0837,2.2229,2.2928,2.2928,2.2928,2.3065,2.3406,2.3475,2.4037,2.4925,2.4994,2.5577,2.6585,2.8115,2.9042,2.9663,3.1367,3.3692,3.6016,3.6016,3.6016,3.6016,3.6016,3.6016,3.6016,3.6016,3.6016,3.5937,3.5566,3.5469,3.5371,3.4961,3.4805,3.4668,3.4258,3.4141,3.4043,0.0,3.3535,3.3496,3.3496,3.3457,3.3418,3.3418,3.3418,3.3418,3.3418,3.3418,3.4278,3.6764,3.7248,3.8209,4.0687,4.132,4.1549,4.1606,4.1859,4.211,4.2167,4.1834,4.1834,4.2142,4.1891,4.1891,4.2167,4.2167,4.211,4.211,4.211,4.211,4.211,4.211,4.211,4.2167,4.2167,4.2167,4.2224,4.2224,4.2224,4.2224,4.2224,4.2167,4.2167,4.2167,4.2167,4.2224,4.2224,4.1847,4.1373,0.0,0.0,0.0,0.0,0.0,0.0,0.0,0.0,0.0,0.0,0.0,0.0,0.0,0.0,0.0,0.0,0.0,0.0,1.5045,1.6183,1.6428,1.5567,1.6064,1.667,1.7247,1.8736,1.9865,2.0629,2.216,2.2928,2.2928,2.2928,2.3021,2.3334,2.3611,2.4053,2.4624,2.482,2.5215,2.5841,2.6471,2.7508,2.8644,2.9504,3.1051,3.2874,3.4245,3.5245,0.0,0.0,3.6016,3.5976,3.5742,3.5664,3.5566,3.5117,3.498,3.4883,3.4453,3.4336,3.4238,3.3789,3.3691,3.3652,3.3457,3.3418,3.3418,3.3418,3.3418,3.3418,3.3418,3.3418,3.3418,3.3418,3.3418,3.4027,3.5909,3.6824,3.797,3.9826,4.0803,4.1402,4.1402,4.1459,4.1631,4.1802,4.1663,4.172,4.211,4.1972,4.1859,4.1802,4.1802,4.1745,4.1598,4.1598,4.1598,4.1598,4.1598,4.1631,4.1802,4.1802,4.1915,4.211,4.211,4.211,4.211,4.2256,4.2142,4.181,4.1685,4.1394,4.1169,4.1531,4.1496,4.1194,0.0,0.0,0.0,0.0,0.0,0.0,0.0,0.0,0.0,0.0,0.0,0.0,0.0,0.0,0.0,0.0,0.0,0.0,0.0,1.4968,1.4887,1.4716,1.4708,1.5076,1.5822,1.7765,1.9255,2.0216,2.2185,2.3182,2.3182,2.3182,2.3233,2.3447,2.3714,2.4088,2.4446,2.4717,2.5027,2.5464,2.5464,2.6229,2.7505,2.7795,2.8644,3.0042,3.27,3.4333,0.0,0.0,3.5869,3.5801,3.5488,3.5312,3.5117,3.4668,3.4434,3.4277,3.3984,3.3887,3.3828,3.3496,3.3418,3.3418,3.3418,3.3418,3.3418,3.3418,3.3418,3.3418,3.3418,3.3418,3.3418,3.3418,3.3418,3.3965,3.5684,3.6703,3.791,3.9533,4.0629,4.1172,4.1172,4.1172,4.1287,4.1492,4.1492,4.1631,4.1826,4.1883,4.1745,4.1492,4.1492,4.1402,4.1172,4.1172,4.1172,4.1172,4.1172,4.1287,4.1492,4.1492,4.1631,4.1883,4.1883,4.1883,4.1883,4.2086,4.1948,4.1558,4.1216,4.0852,4.0523,4.0568,4.0636,4.0508,0.0,0.0,0.0,0.0,0.0,0.0,0.0,0.0,0.0,0.0,0.0,0.0,0.0,0.0,0.0,0.0,0.0,0.0,0.0,1.4814,1.4887,1.4716,1.4708,1.4619,1.4424,1.7487,1.9079,1.9152,2.2287,2.3741,2.3741,2.3741,2.3754,2.3754,2.3825,2.4188,2.4819,2.4819,2.5216,2.5786,2.5786,2.5786,2.5873,2.5873,2.6867,2.8629,3.2,0.0,0.0,0.0,3.5491,3.541,3.5391,3.5078,3.4629,3.4219,3.3789,3.3457,3.3437,3.3437,3.3437,3.3418,3.3418,3.3418,3.3418,3.3418,3.3418,3.3418,3.3418,3.3418,3.3418,3.3418,3.3418,3.3418,3.3418,3.4278,3.6885,3.7309,3.8268,4.0826,4.1196,4.1172,4.1172,4.1172,4.1172,4.1172,4.1172,4.1254,4.1254,4.1254,4.123,4.1172,4.1172,4.1172,4.1172,4.1172,4.1172,4.1172,4.1172,4.1172,4.1172,4.1172,4.123,4.1254,4.1254,4.1254,4.1254,4.123,4.1402,4.1501,4.0708,4.0604,4.0626,3.9334,3.8864,3.8864,0.0,0.0,0.0,0.0,0.0,0.0,0.0,0.0,0.0,0.0,0.0,0.0,0.0,0.0,0.0,0.0,0.0,0.0,0.0,1.4361,1.4568,1.4512,1.4726,1.4797,1.4619,1.6601,1.7561,1.7497,2.0633,2.2156,2.2169,2.3255,2.3875,2.4062,2.4062,2.4294,2.4709,2.4709,2.4837,2.4991,2.4991,2.4991,2.4991,2.5299,2.558,2.6064,0.0,0.0,0.0,0.0,3.3761,3.3643,3.4602,3.4629,3.4199,3.3769,3.3535,3.3418,3.3418,3.3418,3.3418,3.3418,3.3418,3.3418,3.3418,3.3418,3.3418,3.3418,3.3418,3.3418,3.3418,3.3418,3.3418,3.3418,3.3418,3.434,3.6946,3.7309,3.8268,4.0884,4.1172,4.1172,4.1172,4.1172,4.1172,4.1172,4.1172,4.1172,4.1172,4.1172,4.1172,4.1172,4.1172,4.1172,4.1172,4.1172,4.1172,4.1172,4.1172,4.1172,4.1172,4.1172,4.1172,4.1172,4.1172,4.1172,4.1254,4.1631,4.1525,4.1023,4.0599,4.0184,3.9606,3.8634,3.8262,3.8262,0.0,0.0,0.0,0.0,0.0,0.0,0.0,0.0,0.0,0.0,0.0,0.0,0.0,0.0,0.0,0.0,0.0,1.3197,0.0,0.0,1.413,1.413,1.4592,1.4766,1.4578,1.6219,1.7049,1.6926,2.0094,2.1643,2.1643,2.3339,2.4182,2.4356,2.4356,2.4462,2.4636,2.4636,2.4703,2.4783,2.4676,2.4703,2.4783,2.4898,2.4857,0.0,0.0,0.0,0.0,0.0,3.2102,3.2458,3.3425,3.3758,3.3789,3.3496,3.3418,3.3418,3.3418,3.3418,3.3418,3.3418,3.3418,3.3418,3.3418,3.3418,3.3418,3.3418,3.3418,3.3418,3.3418,3.3418,3.3418,3.3418,3.3418,3.4153,3.6338,3.7006,3.8089,4.0199,4.0942,4.1172,4.1172,4.1172,4.1172,4.1172,4.1172,4.1172,4.1172,4.1172,4.1172,4.1172,4.1172,4.1172,4.1172,4.1172,4.1172,4.1172,4.1172,4.1172,4.1172,4.1172,4.1172,4.1172,4.1172,4.1172,4.123,4.1379,4.1201,4.0731,4.0111,3.9623,3.915,3.8297,3.7974,3.7974,0.0,0.0,0.0,0.0,0.0,0.0,0.0,0.0,0.0,0.0,0.0,0.0,0.0,0.0,0.0,0.0,0.0,0.0,0.0,0.0,0.0,1.3667,1.413,1.4368,1.4368,1.6262,1.7255,1.7255,2.0414,2.1999,2.2073,2.3735,2.4488,2.4636,2.4636,2.4636,2.4636,2.4636,2.4796,2.5037,2.4756,2.481,2.5024,2.4743,0.0,0.0,0.0,0.0,2.5139,2.8557,3.07,3.1913,3.1944,3.2618,3.3418,3.3418,3.3418,3.3418,3.3418,3.3418,3.3418,3.3418,3.3418,3.3418,3.3418,3.3418,3.3418,3.3418,3.3418,3.3418,3.3418,3.3418,3.3418,3.3418,3.3418,3.3859,3.5191,3.652,3.779,3.9039,4.0374,4.1172,4.1172,4.1172,4.1172,4.1172,4.1172,4.1172,4.1172,4.1172,4.1172,4.1172,4.1172,4.1172,4.1172,4.1172,4.1172,4.1172,4.1172,4.1172,4.1172,4.1172,4.1172,4.1172,4.1172,4.1172,4.1148,4.0619,4.0523,4.0602,3.931,3.9008,3.915,3.8273,3.7974,3.7974,0.0,0.0,0.0,0.0,0.0,0.0,0.0,0.0,0.0,0.0,0.0,0.0,0.0,0.0,0.0,0.0,0.0,0.0,0.0,0.0,0.0,0.0,0.0,0.0,0.0,0.0,0.0,0.0,0.0,1.9208,2.0414,2.2073,2.3426,2.4636,2.4636,2.4636,2.4636,2.4636,2.4676,2.4743,0.0,2.4676,2.4743,0.0,0.0,0.0,0.0,0.0,2.4991,2.7288,2.9794,3.2023,3.2747,3.3212,3.3418,3.3418,3.3418,3.3418,3.3418,3.3418,3.3418,3.3418,3.3418,3.3418,3.3418,3.3418,3.3418,3.3418,3.3418,3.3418,3.3418,3.3418,3.3418,3.3418,3.3418,3.3859,3.5191,3.652,3.779,3.9039,4.0374,4.1172,4.1172,4.1172,4.1172,4.1172,4.1172,4.1172,4.1172,4.1172,4.1172,4.1172,4.1172,4.1172,4.1172,4.1172,4.1172,4.1172,4.1172,4.1172,4.1172,4.1172,4.1172,4.1172,4.1172,4.1172,4.1206,4.0821,4.0529,4.0147,3.9437,3.8927,3.8562,3.8152,3.7974,3.7974,0.0,0.0,0.0,0.0,0.0,0.0,0.0,0.0,0.0,0.0,0.0,0.0,0.0,0.0,0.0,0.0,0.0,0.0,0.0,0.0,0.0,0.0,0.0,0.0,0.0,0.0,0.0,0.0,0.0,0.0,0.0,2.1464,2.3054,2.4636,2.4636,2.4636,2.4636,0.0,0.0,0.0,0.0,0.0,0.0,0.0,0.0,0.0,0.0,2.4556,2.4788,2.7117,2.9484,3.1619,3.2976,3.3418,3.3418,3.3418,3.3418,3.3418,3.3418,3.3418,3.3418,3.3418,3.3418,3.3418,3.3418,3.3418,3.3418,3.3418,3.3418,3.3418,3.3418,3.3418,3.3418,3.3418,3.3418,3.367,3.4403,3.6154,3.755,3.8268,4.0024,4.1172,4.1172,4.1172,4.1172,4.1172,4.1172,4.1172,4.1172,4.1172,4.1172,4.1172,4.1172,4.1172,4.1172,4.1172,4.1172,4.1172,4.1172,4.1172,4.1172,4.1172,4.1172,4.1172,4.1172,4.1172,4.1182,4.0523,4.0072,3.9733,3.9013,3.8529,3.821,3.8027,3.7974,3.7974,0.0,0.0,0.0,0.0,0.0,0.0,0.0,0.0,0.0,0.0,0.0,0.0,0.0,0.0,0.0,0.0,0.0,0.0,0.0,0.0,0.0,0.0,0.0,0.0,0.0,0.0,0.0,0.0,0.0,0.0,0.0,0.0,0.0,0.0,0.0,0.0,0.0,0.0,0.0,0.0,0.0,0.0,0.0,0.0,0.0,0.0,0.0,2.4522,2.485,2.7377,2.9209,3.0768,3.2708,3.3355,3.3355,3.3355,3.3355,3.3418,3.3418,3.3418,3.3418,3.3418,3.3418,3.3418,3.3418,3.3418,3.3418,3.3418,3.3418,3.3418,3.3418,3.3418,3.3418,3.3418,3.3418,3.3418,3.3418,3.5664,3.7309,3.7309,3.9592,4.1172,4.1172,4.1172,4.1172,4.1172,4.1172,4.1172,4.1172,4.1172,4.1172,4.1172,4.1172,4.1172,4.1172,4.1172,4.1172,4.1172,4.1172,4.1172,4.1172,4.1172,4.1172,4.1172,4.1172,4.1172,4.11,4.0042,3.9609,3.9489,3.8407,3.7974,3.7974,3.7974,3.7974,3.7974,0.0,0.0,0.0,0.0,0.0,0.0,0.0,0.0,0.0,0.0,1.3478,1.3403,0.0,0.0,0.0,0.0,0.0,0.0,0.0,0.0,0.0,0.0,0.0,0.0,0.0,0.0,1.3428,1.3821,1.4515,0.0,0.0,0.0,0.0,0.0,0.0,0.0,0.0,0.0,0.0,0.0,0.0,0.0,0.0,0.0,0.0,0.0,2.4636,2.5153,2.6041,2.6608,2.771,2.9377,3.181,3.2912,3.3355,3.3038,3.3165,3.3418,3.3418,3.3418,3.3418,3.3418,3.3418,3.3418,3.3418,3.3418,3.3418,3.3418,3.3418,3.3418,3.3418,3.3418,3.3418,3.3418,3.3418,3.3418,3.3418,3.5664,3.7309,3.7309,3.9592,4.1172,4.1172,4.1172,4.1172,4.1172,4.1172,4.1172,4.1172,4.1172,4.1172,4.1172,4.1172,4.1172,4.1172,4.1172,4.1172,4.1172,4.1172,4.1172,4.1172,4.1172,4.1172,4.1172,4.1172,4.1172,4.11,4.0042,3.9609,3.9489,3.8407,3.7974,3.7974,3.7974,3.7974,3.7974,0.0,0.0,0.0,0.0,0.0,0.0,0.0,1.3953,1.3804,1.3648,1.3566,1.3492,1.341,1.3403,1.3403,0.0,0.0,0.0,0.0,0.0,0.0,0.0,0.0,0.0,0.0,1.2975,1.3211,1.3676,0.0,1.7089,1.987,2.102,2.2785,2.509,2.493,2.4863,0.0,0.0,0.0,0.0,0.0,0.0,0.0,0.0,0.0,0.0,0.0,2.4779,2.5129,2.5877,2.6504,2.7528,3.0408,3.1534,3.1918,3.2657,3.2975,3.3165,3.3355,3.3418,3.3418,3.3418,3.3418,3.3418,3.3418,3.3418,3.3418,3.3418,3.3418,3.3418,3.3418,3.3418,3.3418,3.3418,3.3418,3.3418,3.3418,3.5067,3.6581,3.7248,3.898,4.0455,4.1115,4.1172,4.1172,4.1172,4.1172,4.1172,4.1172,4.1172,4.1172,4.1172,4.1172,4.1172,4.1172,4.1172,4.1172,4.1172,4.1172,4.1172,4.1172,4.1172,4.1172,4.1172,4.1172,4.1172,4.11,4.0042,3.9609,3.9489,3.8407,3.7974,3.7974,3.7974,3.7974,3.7974,0.0,0.0,0.0,0.0,0.0,0.0,0.0,1.4095,1.3987,1.3756,1.3668,1.3587,1.3464,1.3417,1.3403,0.0,0.0,0.0,0.0,0.0,0.0,0.0,0.0,0.0,0.0,0.0,0.0,1.3589,1.5638,0.0,0.0,0.0,0.0,0.0,2.5277,2.517,2.5157,2.4863,0.0,0.0,0.0,2.4636,0.0,0.0,0.0,0.0,0.0,2.4302,2.4062,2.5102,2.5233,2.5472,2.8312,2.9687,3.0531,3.1854,3.253,3.2994,3.3228,3.3355,3.3418,3.3418,3.3418,3.3418,3.3418,3.3418,3.3418,3.3418,3.3418,3.3418,3.3418,3.3418,3.3418,3.3418,3.3418,3.3418,3.3418,3.4528,3.5869,3.7188,3.8447,3.9709,4.1057,4.1172,4.1172,4.1172,4.1172,4.1172,4.1172,4.1172,4.1172,4.1172,4.1172,4.1172,4.1172,4.1172,4.1172,4.1172,4.1172,4.1172,4.1172,4.1172,4.1172,4.1172,4.1172,4.1124,4.0932,3.9994,3.9537,3.9345,3.8359,3.7974,3.7974,3.7974,3.7974,3.7974,0.0,0.0,0.0,0.0,0.0,0.0,0.0,1.4163,1.4061,1.4034,1.3797,1.3627,1.3607,1.3485,1.3403,0.0,0.0,0.0,0.0,0.0,0.0,0.0,0.0,0.0,0.0,0.0,0.0,1.3589,1.5408,0.0,0.0,0.0,0.0,0.0,0.0,2.5478,2.5451,2.5157,0.0,0.0,0.0,0.0,0.0,0.0,0.0,0.0,0.0,2.4436,2.4128,2.4004,2.3752,2.3706,2.5096,2.7701,3.0272,3.016,3.1405,3.2931,3.2931,3.3165,3.3418,3.3418,3.3418,3.3418,3.3418,3.3418,3.3418,3.3418,3.3418,3.3418,3.3418,3.3418,3.3418,3.3418,3.3418,3.3418,3.3418,3.4528,3.5869,3.7188,3.8447,3.9709,4.1057,4.1172,4.1172,4.1172,4.1172,4.1172,4.1172,4.1172,4.1172,4.1172,4.1172,4.1172,4.1172,4.1172,4.1172,4.1172,4.1172,4.1172,4.1172,4.1172,4.1172,4.1172,4.1172,4.0908,4.0427,3.985,3.932,3.8839,3.8214,3.7974,3.7974,3.7974,3.7974,3.7974,0.0,0.0,0.0,0.0,0.0,0.0,1.4299,1.4251,1.4177,1.4082,1.3885,1.3722,1.3641,1.3492,1.3403,1.3403,0.0,0.0,0.0,0.0,0.0,0.0,0.0,0.0,0.0,0.0,1.3309,1.3466,1.6525,0.0,0.0,0.0,0.0,0.0,0.0,2.5785,2.5745,2.5277,0.0,0.0,0.0,0.0,0.0,0.0,0.0,0.0,0.0,0.0,2.3928,2.3808,2.3447,2.3157,2.357,2.5263,2.7453,2.9248,3.0549,3.1534,3.2594,3.3165,3.3418,3.3418,3.3418,3.3418,3.3418,3.3418,3.3418,3.3418,3.3418,3.3418,3.3418,3.3418,3.3418,3.3418,3.3418,3.3418,3.3418,3.3839,3.4943,3.7067,3.779,3.8862,4.1,4.1172,4.1172,4.1172,4.1172,4.1172,4.1172,4.1172,4.1172,4.1172,4.1172,4.1172,4.1172,4.1172,4.1172,4.1172,4.1172,4.1172,4.1172,4.1172,4.1172,4.1172,4.1172,4.0884,4.0355,3.9826,3.9296,3.8767,3.819,3.7974,3.7974,3.7974,3.7974,3.7974,0.0,0.0,0.0,0.0,0.0,1.4299,1.4299,1.4299,1.4265,1.415,1.3966,1.3804,1.3702,1.3519,1.3403,1.3403,1.3403,0.0,0.0,0.0,0.0,0.0,0.0,0.0,0.0,0.0,1.3403,1.3403,1.7238,1.9349,0.0,0.0,2.5911,2.6386,0.0,0.0,0.0,0.0,0.0,0.0,0.0,0.0,0.0,0.0,0.0,0.0,0.0,0.0,0.0,0.0,0.0,2.2928,2.2928,2.3597,2.5008,2.8114,2.9622,3.0678,3.2339,3.3038,3.3418,3.3418,3.3418,3.3418,3.3418,3.3418,3.3418,3.3418,3.3418,3.3418,3.3418,3.3418,3.3418,3.3418,3.3418,3.3418,3.3418,3.3418,3.4215,3.646,3.6764,3.779,4.0397,4.1,4.1172,4.1172,4.1172,4.1172,4.1172,4.1172,4.1172,4.1172,4.1172,4.1172,4.1172,4.1172,4.1172,4.1172,4.1172,4.1172,4.1172,4.1172,4.1172,4.1172,4.1172,4.0787,4.0138,3.9753,3.92,3.8527,3.8142,3.7974,3.7974,3.7974,3.7974,3.7974,0.0,0.0,0.0,0.0,0.0,0.0,1.4299,1.4299,1.4299,1.4299,1.4034,1.3838,1.3838,1.358,1.3403,1.3403,1.3403,0.0,0.0,0.0,0.0,0.0,0.0,0.0,0.0,0.0,1.3403,1.3403,1.691,1.9024,1.9988,2.3496,2.5607,2.6386,0.0,0.0,0.0,0.0,0.0,0.0,0.0,0.0,0.0,0.0,0.0,0.0,0.0,0.0,0.0,0.0,0.0,0.0,0.0,2.2928,2.3461,2.6321,2.8624,3.0613,3.2019,3.2912,3.3418,3.3418,3.3418,3.3418,3.3418,3.3418,3.3418,3.3418,3.3418,3.3418,3.3418,3.3418,3.3418,3.3418,3.3418,3.3418,3.3418,3.3418,3.3902,3.5253,3.5438,3.6399,3.898,4.0455,4.1172,4.1172,4.1172,4.1172,4.1172,4.1172,4.1172,4.1172,4.1172,4.1172,4.1172,4.1172,4.1172,4.1172,4.1172,4.1172,4.1172,4.1172,4.1172,4.1172,4.1172,4.0595,3.9609,3.9609,3.896,3.7998,3.7974,3.7974,3.7974,3.7974,3.7974,3.7974,0.0,0.0,0.0,0.0,0.0,0.0,0.0,1.4299,1.4299,1.4299,1.4122,1.396,1.3851,1.3675,1.3512,1.341,1.3403,0.0,0.0,0.0,0.0,0.0,0.0,0.0,0.0,1.3403,1.3403,1.3403,1.691,1.9024,1.9988,2.3496,2.5607,2.6386,2.6386,2.6279,0.0,0.0,0.0,0.0,0.0,0.0,2.4636,0.0,0.0,0.0,0.0,0.0,0.0,0.0,0.0,0.0,0.0,0.0,0.0,2.5128,2.6988,2.8838,3.0484,3.2001,3.3102,3.3355,3.3418,3.3418,3.3418,3.3418,3.3418,3.3418,3.3418,3.3418,3.3418,3.3418,3.3418,3.3418,3.3418,3.3418,3.3418,3.3418,3.3922,3.5253,3.6946,3.8684,4.0397,4.0942,4.1172,4.1172,4.1172,4.1172,4.1172,4.1172,4.1172,4.1172,4.1172,4.1172,4.1172,4.1172,4.1172,4.1172,4.1172,4.1172,4.1172,4.1172,4.1172,4.1172,4.1172,4.0787,4.0114,3.9753,3.92,3.8503,3.8142,3.7974,3.7974,3.7974,3.7974,3.7974,0.0,0.0,0.0,0.0,0.0,0.0,0.0,1.4299,1.4299,1.4299,1.4163,1.4034,1.3939,1.3749,1.3593,1.3498,1.3437,0.0,0.0,0.0,0.0,0.0,0.0,0.0,1.3403,1.3403,1.3403,1.3403,1.691,1.9024,1.9988,2.3496,2.5607,2.6386,2.6386,2.6226,0.0,0.0,0.0,0.0,0.0,0.0,2.4636,0.0,0.0,0.0,0.0,0.0,0.0,0.0,0.0,0.0,0.0,0.0,0.0,0.0,2.5734,2.7784,2.9622,3.1469,3.2912,3.3165,3.3292,3.3418,3.3418,3.3418,3.3418,3.3418,3.3418,3.3418,3.3418,3.3418,3.3418,3.3418,3.3418,3.3418,3.3418,3.3418,3.3922,3.5253,3.7248,3.898,4.0339,4.0884,4.1172,4.1172,4.1172,4.1172,4.1172,4.1172,4.1172,4.1172,4.1172,4.1172,4.1172,4.1172,4.1172,4.1172,4.1172,4.1172,4.1172,4.1172,4.1172,4.1172,4.1172,4.0884,0.0,3.9826,3.9296,3.8767,3.819,3.7974,3.7974,3.7974,3.7974,3.7974,0.0,0.0,0.0,0.0,0.0,0.0,0.0,1.4299,1.4299,1.4299,1.4177,1.4082,1.4075,1.3824,1.3654,1.3634,0.0,0.0,0.0,0.0,0.0,0.0,0.0,0.0,1.3403,1.3403,1.348,1.3562,1.691,1.9105,2.015,2.3496,2.5527,2.6386,2.6386,2.6213,0.0,0.0,0.0,0.0,2.4636,2.4636,0.0,0.0,0.0,0.0,0.0,0.0,0.0,0.0,0.0,0.0,0.0,0.0,0.0,0.0,0.0,0.0,0.0,3.1212,3.2867,3.2912,3.3165,3.3418,3.3418,3.3418,0.0,3.3418,3.3418,3.3418,3.3418,3.3418,3.3418,3.3418,3.3418,3.3418,3.3418,3.3418,3.3922,3.5253,3.652,3.779,3.9098,4.0374,4.1172,4.1172,4.1172,4.1172,4.1172,4.1172,4.1172,4.1172,4.1172,4.1172,4.1172,4.1172,4.1172,4.1172,4.1172,4.1172,4.1172,4.1172,4.1172,4.1172,4.1172,4.0908,4.0403,3.985,3.932,3.8815,3.8214,3.7974,3.7974,3.7974,3.7974,3.7974,0.0,0.0,0.0,0.0,0.0,0.0,0.0,0.0,0.0,0.0,1.4272,1.4204,1.4082,1.4007,1.3878,0.0,0.0,0.0,0.0,0.0,0.0,0.0,0.0,0.0,1.3403,1.3403,1.4052,1.5358,1.7565,1.9592,2.1453,2.3988,2.5368,2.599,2.6228,2.6106,0.0,0.0,0.0,0.0,2.4636,2.4636,0.0,0.0,0.0,0.0,2.4636,2.4449,0.0,0.0,0.0,0.0,0.0,0.0,0.0,0.0,2.4858,2.7172,2.7652,0.0,3.2613,3.2867,3.3165,3.3418,0.0,3.3418,3.3418,3.3418,3.3418,3.3418,3.3418,3.3418,3.3418,3.3418,3.3418,3.3418,3.3418,3.3418,3.3922,3.5253,3.652,3.779,3.9098,4.0374,4.1172,4.1172,4.1172,4.1172,4.1172,4.1172,4.1172,4.1172,4.1172,4.1172,4.1172,4.1172,4.1172,4.1172,4.1172,4.1172,4.1172,4.1172,4.1172,4.1172,4.1172,4.1124,4.0932,3.9994,3.9537,3.932,3.8359,3.7974,3.7974,3.7974,3.7974,3.7974,0.0,0.0,0.0,0.0,0.0,0.0,0.0,0.0,0.0,0.0,0.0,0.0,0.0,0.0,0.0,0.0,0.0,0.0,0.0,0.0,0.0,0.0,0.0,1.3403,1.3403,1.3403,1.4217,1.6008,1.7728,1.9755,2.1947,2.4068,2.5368,2.5819,2.5949,2.5732,2.5291,2.4823,2.4636,2.4636,2.4636,0.0,0.0,0.0,0.0,0.0,2.4636,2.4529,0.0,2.3915,2.3661,2.3447,0.0,0.0,0.0,0.0,2.5398,2.7254,2.7916,3.0113,3.223,3.2422,3.2785,3.3165,3.3165,3.3292,3.3418,3.3418,3.3418,3.3418,3.3418,3.3418,3.3418,3.3418,3.3418,3.3418,3.3418,3.3418,3.3922,3.5253,3.6032,3.6946,3.8209,3.9533,4.0257,4.0257,4.0884,4.1172,4.1172,4.1172,4.1172,4.1172,4.1172,4.1172,4.1172,4.1172,4.1172,4.1172,4.1172,4.1172,4.1172,4.1172,4.1172,4.1172,4.1172,4.1172,4.11,4.0042,3.9609,3.9489,3.8407,3.7974,3.7974,3.7974,3.7974,3.7974,0.0,0.0,0.0,0.0,0.0,0.0,0.0,0.0,0.0,0.0,0.0,0.0,0.0,0.0,0.0,0.0,0.0,0.0,0.0,0.0,0.0,0.0,1.3403,1.3403,1.3403,1.3403,1.4383,1.6418,1.7892,1.9836,2.2189,2.4148,2.5343,2.5819,2.5604,2.5344,2.5064,2.4756,2.4636,2.4636,2.4636,0.0,0.0,0.0,0.0,0.0,0.0,0.0,0.0,2.3955,2.3741,2.3607,2.3046,0.0,0.0,0.0,0.0,0.0,2.8937,3.0584,3.191,3.1974,3.2422,3.2912,3.2975,3.3165,3.3418,3.3418,3.3418,3.3418,3.3418,3.3418,3.3418,3.3418,3.3418,3.3418,3.3418,3.3418,3.3859,3.4943,3.5253,3.5786,3.6885,3.8328,3.9216,3.9216,4.0455,4.1172,4.1172,4.1172,4.1172,4.1172,4.1172,4.1172,4.1172,4.1172,4.1172,4.1172,4.1172,4.1172,4.1172,4.1172,4.1172,4.1172,4.1172,4.1172,4.11,4.0042,3.9609,3.9489,3.8407,3.7974,3.7974,3.7974,3.7974,3.7974,0.0,0.0,0.0,0.0,0.0,0.0,0.0,0.0,0.0,0.0,0.0,0.0,0.0,0.0,0.0,0.0,0.0,0.0,0.0,0.0,0.0,1.348,1.3403,1.3403,1.3403,1.3403,1.4953,1.8209,1.8463,2.0251,2.3508,2.4559,2.5398,2.5934,2.5665,2.5344,2.5064,2.4756,2.4636,2.4636,2.4636,0.0,0.0,0.0,0.0,0.0,0.0,0.0,0.0,2.3888,2.3607,2.3327,2.2979,0.0,0.0,0.0,0.0,0.0,2.8937,3.0584,3.1974,3.223,3.2613,3.2975,3.3228,3.3355,3.3418,3.3418,3.3418,3.3418,3.3418,3.3418,3.3418,3.3418,3.3418,3.3418,3.3418,3.3418,3.3481,3.367,3.4715,3.55,3.5684,3.7828,3.9216,3.9216,4.0455,4.1172,4.1172,4.1172,4.1172,4.1172,4.1172,4.1172,4.1172,4.1172,4.1172,4.1172,4.1172,4.1172,4.1172,4.1172,4.1172,4.1172,4.1172,4.1172,4.11,4.0042,3.9609,3.9489,3.8407,3.7974,3.7974,3.7974,3.7974,3.7974,0.0,0.0,0.0,0.0,0.0,0.0,0.0,0.0,0.0,0.0,0.0,0.0,0.0,0.0,0.0,0.0,0.0,0.0,0.0,0.0,1.4623,1.4788,1.4788,1.4375,1.3397,1.43,1.6008,1.8626,1.9511,2.1475,2.4172,2.5037,2.5597,2.5718,2.5571,2.5264,2.4836,2.469,2.4636,2.4636,0.0,0.0,0.0,0.0,0.0,0.0,0.0,0.0,0.0,0.0,2.3447,2.3273,2.2953,0.0,0.0,0.0,0.0,0.0,2.9852,3.112,3.1974,3.2294,3.2676,3.2931,3.3102,3.3292,3.3418,3.3418,3.3418,3.3418,3.3418,3.3418,3.3418,3.3418,3.3418,3.3418,3.3418,3.3418,3.3418,3.3418,3.3902,3.434,3.434,3.6642,3.8209,3.8209,4.0024,4.1172,4.1172,4.1172,4.1172,4.1172,4.1172,4.1172,4.1172,4.1172,4.1172,4.1172,4.1172,4.1172,4.1172,4.1172,4.1172,4.1172,4.1172,4.1172,4.1124,4.0355,3.9874,3.9537,3.8743,3.8238,3.7974,3.7974,3.7974,3.7974,0.0,0.0,0.0,0.0,0.0,0.0,0.0,0.0,0.0,0.0,0.0,0.0,0.0,0.0,0.0,0.0,0.0,0.0,0.0,1.5188,1.5727,1.6582,1.6983,1.6418,1.4631,1.5925,1.7474,1.9196,2.0575,2.2361,2.4652,2.5435,2.5675,2.5518,2.5518,2.5184,2.4636,2.4636,2.4636,2.4636,0.0,0.0,0.0,0.0,0.0,0.0,0.0,0.0,0.0,0.0,0.0,0.0,0.0,0.0,0.0,2.6388,2.732,2.818,3.0714,3.1717,3.2102,3.2358,3.2676,3.2931,3.2975,3.3228,3.3418,3.3418,3.3418,3.3418,3.3418,3.3418,3.3418,3.3418,3.3418,3.3418,3.3418,3.3418,3.3418,3.3418,3.3418,3.3418,3.3418,3.5786,3.7309,3.7309,3.9732,4.1172,4.1172,4.1172,4.1172,4.1172,4.1172,4.1172,4.1172,4.1172,4.1172,4.1172,4.1172,4.1172,4.1172,4.1172,4.1172,4.1172,4.1172,4.1172,4.1148,4.0619,4.009,3.9561,3.9032,3.8479,3.7974,3.7974,3.7974,3.7974,0.0,0.0,0.0,0.0,0.0,0.0,0.0,0.0,0.0,0.0,0.0,0.0,0.0,0.0,0.0,0.0,0.0,0.0,0.0,2.0196,2.0231,1.8472,1.9917,1.9998,1.83,1.8381,1.9267,2.098,2.1141,2.2522,2.505,2.5594,2.5675,2.5518,2.5518,2.5184,2.4636,2.4636,2.4636,2.4636,2.4636,0.0,0.0,0.0,0.0,0.0,0.0,0.0,0.0,0.0,0.0,0.0,0.0,0.0,2.5143,2.6655,2.8048,2.9461,3.0972,3.1891,3.2358,3.2422,3.2676,3.2975,3.3292,3.3355,3.3418,3.3418,3.3418,3.3418,3.3418,3.3418,3.3418,3.3418,3.3418,3.3418,3.3418,3.3418,3.3418,3.3418,3.3418,3.3418,3.3418,3.5786,3.7309,3.7309,3.9732,4.1172,4.1172,4.1172,4.1172,4.1172,4.1172,4.1172,4.1172,4.1172,4.1172,4.1172,4.1172,4.1172,4.1172,4.1172,4.1172,4.1172,4.1172,4.1172,4.1148,4.0619,4.009,3.9561,3.9032,3.8479,3.7974,3.7974,3.7974,3.7974,0.0,0.0,0.0,0.0,0.0,0.0,0.0,0.0,0.0,0.0,0.0,0.0,0.0,0.0,0.0,0.0,0.0,0.0,0.0,1.9786,2.0138,2.0467,2.0973,2.1383,2.1797,2.0737,2.0565,2.1222,2.2843,2.4148,2.513,2.5832,2.5923,2.5518,2.5518,2.5184,2.4636,2.4636,2.4636,2.4623,2.4436,2.4302,0.0,0.0,0.0,0.0,0.0,0.0,0.0,0.0,2.2953,2.2928,2.2928,2.387,2.5278,2.6722,2.8114,2.9674,3.1249,3.2038,3.2422,3.2676,3.2975,3.3228,3.3355,3.3418,3.3418,3.3418,3.3418,3.3418,3.3418,3.3418,3.3418,3.3418,3.3418,3.3418,3.3418,3.3418,3.3418,3.3418,3.3418,3.3418,3.3418,3.5067,3.646,3.7248,3.8921,4.0316,4.1172,4.1172,4.1172,4.1172,4.1172,4.1172,4.1172,4.1172,4.1172,4.1172,4.1172,4.1172,4.1172,4.1172,4.1172,4.1172,4.1172,4.1172,4.1172,4.098,4.0571,4.0018,3.9152,3.8479,3.7974,3.7974,3.7974,3.7974,0.0,0.0,0.0,0.0,0.0,0.0,0.0,0.0,0.0,0.0,0.0,0.0,0.0,0.0,0.0,0.0,0.0,0.0,2.1513,2.1066,2.124,2.2337,2.2173,2.2614,2.376,2.2774,2.22,2.2039,2.4068,2.5209,2.5368,2.607,2.6079,2.5518,2.5518,2.5184,2.4636,2.4636,2.4636,2.4609,2.4315,2.4155,0.0,0.0,0.0,0.0,0.0,0.0,0.0,0.0,2.2928,2.2928,2.2928,2.4196,2.5868,2.6855,2.8526,3.039,3.1589,3.223,3.2613,3.2848,3.3165,3.3418,3.3418,3.3418,3.3418,3.3418,3.3418,3.3418,3.3418,3.3418,3.3418,3.3418,3.3418,3.3418,3.3418,3.3418,3.3418,3.3418,3.3418,3.3418,3.3418,3.459,3.5746,3.6642,3.791,3.898,3.9908,4.0339,4.0571,4.0571,4.1,4.1172,4.1172,4.1172,4.1172,4.1172,4.1172,4.1172,4.1172,4.1172,4.1172,4.1172,4.1172,4.1172,4.1172,4.1172,4.086,4.0282,3.9224,3.8575,3.8214,3.8046,3.7974,3.7974,0.0,0.0,0.0,0.0,0.0,0.0,0.0,0.0,0.0,0.0,0.0,0.0,0.0,0.0,0.0,0.0,0.0,0.0,2.5719,2.5019,2.4504,2.4251,2.3985,2.384,2.384,2.4252,2.4252,2.384,2.4652,2.5368,2.5832,2.6228,2.6079,2.5518,2.5518,2.5184,2.4636,2.4636,2.4636,2.4609,2.4315,2.4022,2.3728,0.0,0.0,0.0,0.0,0.0,0.0,0.0,2.2928,2.2928,2.2928,2.4858,2.7105,2.7105,2.9378,3.1929,3.1929,3.2358,3.2912,3.2912,3.3165,3.3418,3.3418,3.3418,3.3418,3.3418,3.3418,3.3418,3.3418,3.3418,3.3418,3.3418,3.3418,3.3418,3.3418,3.3418,3.3418,3.3418,3.3418,3.3418,3.3418,3.459,3.5376,3.5376,3.6581,3.7309,3.7309,3.8506,3.9216,3.9216,4.0513,4.1172,4.1172,4.1172,4.1172,4.1172,4.1172,4.1172,4.1172,4.1172,4.1172,4.1172,4.1172,4.1172,4.1172,4.1172,4.086,4.0282,3.9248,3.8815,3.8743,3.819,3.7998,3.7974,0.0,0.0,0.0,0.0,0.0,0.0,0.0,0.0,0.0,0.0,0.0,0.0,0.0,0.0,0.0,0.0,0.0,0.0,2.65,2.5891,2.5507,2.5432,2.4982,2.4731,2.4731,2.4811,2.4811,2.4731,2.5276,2.5673,2.5832,2.6228,2.6079,2.5518,2.5518,2.5184,2.4636,2.4636,2.4516,2.4302,2.4022,2.3728,2.342,0.0,0.0,0.0,0.0,0.0,0.0,0.0,0.0,0.0,2.4074,2.5667,2.732,2.8328,2.9982,3.1653,3.2102,3.2422,3.2676,3.3102,3.3355,3.3418,3.3418,3.3418,3.3418,3.3418,3.3418,3.3418,3.3418,3.3418,3.3418,3.3418,3.3418,3.3418,3.3418,3.3418,3.3418,3.3418,3.3418,3.3418,3.3418,3.3796,3.4403,3.5314,3.5746,3.6764,3.8566,3.898,3.965,4.0571,4.1,4.1172,4.1172,4.1172,4.1172,4.1172,4.1172,4.1172,4.1172,4.1172,4.1172,4.1172,4.1172,4.1172,4.1172,4.1172,4.086,4.0355,4.0042,3.9465,3.8791,3.8623,3.831,3.7974,0.0,0.0,0.0,0.0,0.0,0.0,0.0,0.0,0.0,0.0,0.0,0.0,0.0,0.0,0.0,0.0,0.0,0.0,0.0,2.6441,2.5969,2.5969,2.5435,2.5209,2.5368,2.5368,2.5448,2.5607,2.5753,2.5911,2.607,2.6307,2.6079,2.5518,2.5518,2.5184,2.4636,2.4636,2.4476,2.4182,2.3888,2.3594,2.3287,0.0,0.0,0.0,0.0,0.0,0.0,0.0,0.0,0.0,2.4535,2.6002,2.7453,2.9051,3.0584,3.1891,3.2485,3.2676,3.2912,3.3292,3.3418,3.3418,3.3418,3.3418,3.3418,3.3418,3.3418,3.3418,3.3418,3.3418,3.3418,3.3418,3.3418,3.3418,3.3418,3.3418,3.3418,3.3418,3.3418,3.3418,3.3418,3.3418,3.3733,3.4528,3.459,3.5314,3.6803,3.7407,3.8268,3.9592,4.0141,4.0629,4.1172,4.1172,4.1172,4.1172,4.1172,4.1172,4.1172,4.1172,4.1172,4.1172,4.1172,4.1172,4.1172,4.1172,4.1004,4.0691,4.0475,4.0018,3.9417,3.9224,3.8791,3.831,0.0,0.0,0.0,0.0,0.0,0.0,0.0,0.0,0.0,0.0,0.0,0.0,0.0,0.0,0.0,0.0,0.0,0.0,0.0,0.0,2.6134,2.6134,2.5503,2.5448,2.5832,2.5832,2.607,2.6386,2.607,2.607,2.6386,2.636,2.6052,2.5518,2.5478,2.5157,2.4636,2.4636,2.4449,2.4142,2.3875,2.3581,2.326,2.2966,0.0,0.0,0.0,0.0,0.0,0.0,0.0,0.0,2.4738,2.6054,2.7437,2.9378,3.1102,3.2422,3.274,3.3102,3.3355,3.3418,3.3418,3.3418,3.3418,3.3418,3.3418,3.3418,3.3418,3.3418,3.3418,3.3418,3.3418,3.3418,3.3418,3.3418,3.3418,3.3418,3.3418,3.3418,3.3418,3.3418,3.3418,3.3418,3.3418,3.3418,3.3418,3.3418,3.3607,3.4777,3.5971,3.7248,3.8566,3.9767,4.1,4.1115,4.1172,4.1172,4.1172,4.1172,4.1172,4.1172,4.1172,4.1172,4.1172,4.1172,4.1172,4.1172,4.1172,4.1124,4.0643,4.0427,4.0331,3.985,3.9345,3.8888,0.0,0.0,0.0,0.0,0.0,0.0,0.0,0.0,0.0,0.0,0.0,0.0,0.0,0.0,0.0,0.0,0.0,0.0,0.0,0.0,2.7023,2.7023,2.6467,2.6149,2.6307,2.6307,2.6307,2.6386,2.6307,2.6307,2.6386,2.6159,2.5865,2.5504,2.5277,2.497,2.4636,2.4636,2.4342,2.3861,2.3794,2.3447,2.2953,2.2886,2.2928,0.0,0.0,0.0,0.0,0.0,0.0,0.0,2.5853,2.6855,2.7652,3.0307,3.1506,3.2102,3.2422,3.274,3.3038,3.3355,3.3418,3.3418,3.3418,3.3418,3.3418,3.3418,3.3418,3.3418,3.3418,3.3418,3.3418,3.3418,3.3418,3.3418,3.3418,3.3418,3.3418,3.3418,3.3418,3.3418,3.3418,3.3418,3.3418,3.3418,3.3418,3.3839,3.4881,3.5253,3.5971,3.7248,3.8566,3.9334,3.965,4.0687,4.1172,4.1172,4.1172,4.1172,4.1172,4.1172,4.1172,4.1172,4.1172,4.1172,4.1172,4.1172,4.1172,4.1172,4.1052,4.0763,4.0379,4.0258,3.9898,3.9441,0.0,0.0,0.0,0.0,0.0,0.0,0.0,0.0,0.0,0.0,0.0,0.0,0.0,0.0,0.0,0.0,0.0,0.0,0.0,0.0,2.7148,2.6854,2.656,2.6386,2.6386,2.6386,2.6386,2.6386,2.6386,2.6386,2.6386,2.6092,2.5798,2.5504,2.5211,2.4917,2.4636,2.4636,2.4302,2.3768,2.3768,2.3407,2.2928,2.2928,2.2928,2.2928,2.2928,0.0,0.0,0.0,0.0,0.0,0.0,0.0,2.7718,3.0779,3.1782,3.1993,3.2485,3.2804,3.2975,3.3292,3.3418,3.3418,3.3418,3.3418,3.3418,3.3418,3.3418,3.3418,3.3418,3.3418,3.3418,3.3418,3.3418,3.3418,3.3418,3.3418,3.3418,3.3418,3.3418,3.3418,3.3418,3.3418,3.3418,3.3418,3.3418,3.3733,3.4403,3.4465,3.5067,3.6338,3.761,3.8566,3.9216,4.0513,4.1172,4.1172,4.1172,4.1172,4.1172,4.1172,4.1172,4.1172,4.1172,4.1172,4.1172,4.1172,4.1172,4.1172,4.1172,4.1028,4.0763,4.0763,4.0427,3.9994,0.0,0.0,0.0,0.0,0.0,0.0,0.0,0.0,0.0,0.0,0.0,0.0,0.0,0.0,0.0,0.0,0.0,0.0,0.0,0.0,0.0,2.6413,2.6386,2.6386,2.6386,2.6386,2.6386,2.6386,2.6386,2.6386,2.6386,2.6039,2.5745,2.5504,2.5157,2.4863,2.4636,2.4636,2.4302,2.3768,2.3768,2.3407,2.2928,2.2928,2.2928,2.2928,2.2928,2.2928,2.2928,2.3201,0.0,0.0,0.0,0.0,2.8048,3.0972,3.1846,3.2038,3.2676,3.2912,3.3038,3.3355,3.3418,3.3418,3.3418,3.3418,3.3418,3.3418,3.3418,3.3418,3.3418,3.3418,3.3418,3.3418,3.3418,3.3418,3.3418,3.3418,3.3418,3.3418,3.3418,3.3418,3.3418,3.3418,3.3418,3.3418,3.3418,3.3418,3.3418,3.3418,3.3902,3.5005,3.652,3.779,3.8862,4.0455,4.1172,4.1172,4.1172,4.1172,4.1172,4.1172,4.1172,4.1172,4.1172,4.1172,4.1172,4.1172,4.1172,4.1172,4.1172,4.1172,4.1172,4.1172,4.0908,4.0523,0.0,0.0,0.0,0.0,0.0,0.0,0.0,0.0,0.0,0.0,2.8221,0.0,0.0,0.0,0.0,0.0,0.0,0.0,0.0,0.0,0.0,2.64,2.6386,2.6386,2.6386,2.6386,2.6386,2.6386,2.6386,2.6386,2.6373,2.5825,2.5545,2.5491,2.4943,2.4676,2.4636,2.4636,2.4302,2.3768,2.3768,2.3407,2.2928,2.2928,2.2928,2.2928,2.2928,2.2928,2.3065,2.4345,2.4738,0.0,0.0,0.0,2.933,3.0972,3.1653,3.1974,3.2358,3.2867,3.3355,3.3355,3.3418,3.3418,3.3418,3.3418,3.3418,3.3418,3.3418,3.3418,3.3418,3.3418,3.3418,3.3418,3.3418,3.3418,3.3418,3.3418,3.3418,3.3418,3.3418,3.3418,3.3418,3.3418,3.3418,3.3418,3.3418,3.3418,3.3418,3.3418,3.3481,3.367,3.6032,3.7347,3.755,3.9966,4.1172,4.1172,4.1172,4.1172,4.1172,4.1172,4.1172,4.1172,4.1172,4.1172,4.1172,4.1172,4.1172,4.1172,4.1172,4.1172,4.1172,4.1172,4.1124,4.1076,0.0,0.0,0.0,0.0,0.0,0.0,0.0,0.0,0.0,0.0,0.0,2.8221,0.0,0.0,0.0,2.8221,0.0,0.0,0.0,0.0,0.0,0.0,2.6386,2.6386,2.6386,2.6386,2.6386,2.6386,2.6386,2.6386,2.6373,2.5785,2.5518,2.5491,2.4903,2.4636,2.4636,2.4636,2.4302,2.3768,2.3768,2.3884,2.4006,2.3201,2.3406,2.4006,2.3201,2.2928,2.2996,2.3597,2.3802,2.421,2.627,0.0,0.0,0.0,3.0926,3.1717,3.223,3.274,3.3165,3.3355,3.3418,3.3418,3.3418,3.3418,3.3418,3.3418,3.3418,3.3418,3.3418,3.3418,3.3418,3.3418,3.3418,3.3418,3.3418,3.3418,3.3418,3.3418,3.3418,3.3418,3.3418,3.3418,3.3418,3.3418,3.3418,3.3418,3.3418,3.3418,3.3418,3.3418,3.5971,3.7309,3.7309,3.9908,4.1172,4.1172,4.1172,4.1172,4.1172,4.1172,4.1172,4.1172,4.1172,4.1172,4.1172,4.1172,4.1172,4.1172,4.1172,4.1172,4.1172,4.1172,4.1172,4.1172,0.0,0.0,0.0,0.0,0.0,0.0,0.0,0.0,0.0,0.0,0.0,0.0,0.0,0.0,0.0,0.0,2.7829,0.0,0.0,0.0,0.0,0.0,0.0,2.6386,2.6386,2.6386,2.6386,2.6386,2.6386,2.6386,2.6373,2.5785,2.5518,2.5491,2.4903,2.4636,2.4636,2.4636,2.4302,2.3839,2.4181,2.4567,2.494,2.4196,2.4602,2.533,2.3938,2.3393,2.3393,2.3393,2.3665,2.4196,2.5667,2.7055,0.0,0.0,0.0,3.1635,3.2166,3.2613,3.2975,3.3228,3.3355,3.3418,3.3418,3.3418,3.3418,3.3418,3.3418,3.3418,3.3418,3.3418,3.3418,3.3418,3.3418,3.3418,3.3418,3.3418,3.3418,3.3418,3.3418,3.3418,3.3418,3.3418,3.3418,3.3418,3.3418,3.3418,3.3418,3.3418,3.3418,3.3418,3.5971,3.7309,3.7309,3.9908,4.1172,4.1172,4.1172,4.1172,4.1172,4.1172,4.1172,4.1172,4.1172,4.1172,4.1172,4.1172,4.1172,4.1172,4.1172,4.1172,4.1172,4.1172,4.1172,4.1172,0.0,0.0,0.0,0.0,0.0,0.0,0.0,0.0,0.0,0.0,0.0,0.0,2.8221,2.8221,2.8114,2.7749,2.7709,2.7455,2.6867,2.656,0.0,0.0,0.0,0.0,2.6386,2.6386,2.6386,2.6386,2.6386,2.6386,2.6373,2.5785,2.5518,2.5491,2.4903,2.4636,2.4636,2.4636,2.4302,2.391,2.5285,2.544,2.5143,2.6388,2.6922,2.6788,2.5398,2.4873,2.4873,2.4873,2.5801,2.7121,2.8592,3.0065,3.1184,0.0,0.0,0.0,3.1929,3.2422,3.2912,3.2931,3.3165,3.3418,3.3418,3.3418,3.3418,3.3418,3.3418,3.3418,3.3418,3.3418,3.3418,3.3418,3.3418,3.3418,3.3418,3.3418,3.3418,3.3418,3.3418,3.3418,3.3418,3.3418,3.3418,3.3418,3.3418,3.3418,3.3418,3.3418,3.3418,3.3418,3.5971,3.7309,3.7309,3.9908,4.1172,4.1172,4.1172,4.1172,4.1172,4.1172,4.1172,4.1172,4.1172,4.1172,4.1172,4.1172,4.1172,4.1172,4.1172,4.1172,4.1172,4.1172,4.1172,4.1172,0.0,0.0,0.0,0.0,0.0,0.0,0.0,0.0,0.0,0.0,0.0,0.0,0.0,2.7976,2.7816,2.7709,2.7362,2.6974,2.6573,2.6453,0.0,0.0,0.0,0.0,2.8011,2.6925,2.6925,2.8011,2.6925,2.6386,2.6373,2.5785,2.6039,2.6909,2.5337,2.4636,2.4636,2.4636,2.4798,2.5215,2.5693,2.668,2.7734,2.7254,2.7718,2.8328,2.7121,2.6522,2.6388,2.6588,2.6855,2.7172,2.7718,2.8854,3.026,3.112,3.1506,3.1653,3.1846,3.2102,3.2358,3.2785,3.2994,3.3102,3.3355,3.3418,3.3418,3.3418,3.3418,3.3418,3.3418,3.3418,3.3418,3.3418,3.3418,3.3418,3.3418,3.3418,3.3418,3.3418,3.3418,3.3418,3.3418,3.3418,3.3418,3.3418,3.3418,3.3418,3.3418,3.3418,3.3418,3.3418,3.5971,3.8089,3.9791,4.0745,4.1172,4.1172,4.1172,4.1172,4.1172,4.1172,4.1172,4.1172,4.1172,4.1172,4.1172,4.1172,4.1172,4.1172,4.1172,4.1172,4.1172,4.1172,4.1172,4.1172,0.0,0.0,0.0,0.0,0.0,0.0,0.0,0.0,0.0,2.8221,0.0,0.0,0.0,0.0,2.7864,2.8221,2.782,2.7685,2.8011,2.7997,2.7997,0.0,0.0,0.0,2.9696,2.8622,2.8622,2.9696,2.8622,2.7997,2.8076,2.7373,2.7679,2.8537,2.685,2.6137,2.6137,2.6137,2.6344,2.6743,2.7338,2.8277,2.9282,2.8858,2.9302,2.987,2.8723,2.818,2.7982,2.785,2.7982,2.8163,2.8048,2.892,3.0195,3.112,3.1377,3.1442,3.1653,3.1782,3.2038,3.2613,3.2804,3.2994,3.3292,3.3418,3.3418,3.3418,3.3418,3.3418,3.3418,3.3418,3.3418,3.3418,3.3418,3.3418,3.3418,3.3418,3.3418,3.3418,3.3418,3.3418,3.3418,3.3418,3.3418,3.3418,3.3418,3.3418,3.3418,3.3418,3.3607,3.4027,3.6154,3.8328,4.0513,4.1,4.1172,4.1172,4.1172,4.1172,4.1172,4.1172,4.1172,4.1172,4.1172,4.1172,4.1172,4.1172,4.1172,4.1172,4.1172,4.1172,4.1172,4.1172,4.1172,4.1172,0.0,0.0,0.0,0.0,0.0,0.0,0.0,0.0,2.8221,2.8221,0.0,0.0,0.0,0.0,0.0,2.9289,2.911,2.9619,3.1223,3.13,3.13,3.13,0.0,0.0,3.1376,3.13,3.13,3.1376,3.13,3.13,3.1284,3.0601,3.0357,3.0325,2.9608,2.9274,2.9345,2.9202,2.8821,2.8441,3.0167,3.0275,2.9595,3.1312,3.1726,3.1313,3.0242,2.99,2.9705,2.8706,2.923,3.0272,2.9965,3.0567,3.1377,3.1377,3.1377,3.1377,0.0,0.0,0.0,3.2294,3.2676,3.2975,3.3292,3.3418,3.3418,3.3418,3.3418,3.3418,3.3418,3.3418,3.3418,3.3418,3.3418,3.3418,3.3418,3.3418,3.3418,3.3418,3.3418,3.3418,3.3418,3.3418,3.3418,3.3418,3.3418,3.3418,3.3418,3.3418,3.4027,3.5438,3.6642,3.791,3.9216,4.0571,4.1172,4.1172,4.1172,4.1172,4.1172,4.1172,4.1172,4.1172,4.1172,4.1172,4.1172,4.1172,4.1172,4.1172,4.1172,4.1172,4.1172,4.1172,4.1172,4.1172,0.0,0.0,0.0,0.0,0.0,0.0,2.8221,2.8221,2.8221,0.0,0.0,0.0,2.7709,2.8355,2.9348,3.0639,3.067,3.0839,3.13,3.13,3.13,3.13,3.13,3.1835,3.307,3.1912,3.1912,3.3146,3.1912,3.13,3.1284,3.0601,3.0875,3.1963,3.1191,3.1508,3.2368,3.0146,2.9601,3.0151,3.0395,3.093,3.1669,3.1829,3.2003,3.2102,3.2065,3.1873,3.168,3.1598,3.1552,3.1377,3.1037,3.1166,3.1377,3.1377,3.1377,3.1377,3.1377,0.0,0.0,0.0,0.0,0.0,3.3292,3.3418,3.3418,3.3418,3.3418,3.3418,3.3418,3.3418,3.3418,3.3418,3.3418,3.3418,3.3418,3.3418,3.3418,3.3418,3.3418,3.3418,3.3418,3.3418,3.3418,3.3418,3.3418,3.3418,3.3418,3.3418,3.4445,3.6703,3.7127,3.8387,4.0629,4.1,4.1172,4.1172,4.1172,4.1172,4.1172,4.1172,4.1172,4.1172,4.1172,4.1172,4.1172,4.1172,4.1172,4.1172,4.1172,4.1172,4.1172,4.1172,4.1172,4.1172,0.0,0.0,0.0,0.0,0.0,2.8221,2.8221,2.8221,2.8181,0.0,0.0,0.0,2.8316,2.9427,3.0748,3.2233,3.2369,3.2598,3.3297,3.3373,3.3373,3.3373,3.3373,3.3827,3.4747,3.3827,3.3827,3.4822,3.3827,3.3373,3.3356,3.2628,3.2728,3.3584,3.2791,3.2945,3.3659,3.186,3.1442,3.1875,3.1992,3.2331,3.2749,3.2702,3.2644,3.2732,3.2861,3.2804,3.2676,3.2975,3.2676,3.2038,3.191,3.1635,3.1377,3.1377,3.1377,3.1377,3.1377,3.1377,3.157,3.223,0.0,0.0,3.3228,3.3418,3.3418,3.3418,3.3418,3.3418,3.3418,3.3418,3.3418,3.3418,3.3418,3.3418,3.3418,3.3418,3.3418,3.3418,3.3418,3.3418,3.3418,3.3418,3.3418,3.3418,3.3418,3.3418,3.3418,3.3418,3.434,3.646,3.7006,3.8268,4.0339,4.0942,4.1172,4.1172,4.1172,4.1172,4.1172,4.1172,4.1172,4.1172,4.1172,4.1172,4.1172,4.1172,4.1172,4.1172,4.1172,4.1172,4.1172,4.1172,4.1172,4.1172,0.0,0.0,0.0,2.8221,2.8389,2.8473,2.8473,2.8615,2.8576,0.0,2.8208,2.8588,2.9656,3.0872,3.2217,3.3919,3.407,3.4672,3.6126,3.6201,3.6201,3.6201,3.6201,3.6201,3.6201,3.6201,3.6201,3.6201,3.6201,3.6182,3.6127,3.5375,3.5009,3.4917,3.4165,3.3817,3.3817,3.3817,3.3615,3.339,3.4046,3.3935,3.3329,3.3634,3.35,3.3184,3.3021,3.2994,3.2975,3.3228,3.2912,3.2422,3.2422,3.1955,3.1506,3.1442,3.1442,3.1442,3.1377,3.1442,3.1635,3.223,3.2422,0.0,3.3228,3.3418,3.3418,3.3418,3.3418,3.3418,3.3418,3.3418,3.3418,3.3418,3.3418,3.3418,3.3418,3.3418,3.3418,3.3418,3.3418,3.3418,3.3418,3.3418,3.3418,3.3418,3.3418,3.3418,3.3418,3.3418,3.409,3.5561,3.6703,3.797,3.9416,4.0629,4.1172,4.1172,4.1172,4.1172,4.1172,4.1172,4.1172,4.1172,4.1172,4.1172,4.1172,4.1172,4.1172,4.1172,4.1172,4.1172,4.1172,4.1172,4.1172,4.1172,0.0,0.0,0.0,2.8221,2.9384,3.0289,3.0289,3.1213,3.1915,3.1838,3.1345,3.1481,3.2763,3.318,3.3995,3.5587,3.5754,3.5829,3.6201,3.6201,3.6201,3.6201,3.6201,3.6201,3.6201,3.6201,3.6201,3.6201,3.6201,3.6054,3.5724,3.5247,3.4844,3.4513,3.4018,3.3817,3.3817,3.3817,3.39,3.4171,3.3997,3.3996,3.404,3.3754,3.3753,3.383,3.3447,3.3292,3.3292,3.3038,3.2912,3.274,3.2485,3.2294,3.2166,3.191,3.1782,3.1717,3.1442,3.1589,3.191,3.2294,3.2613,0.0,3.3292,3.3418,3.3418,3.3418,3.3418,3.3418,3.3418,3.3418,3.3418,3.3418,3.3418,3.3418,3.3418,3.3418,3.3418,3.3418,3.3418,3.3418,3.3418,3.3418,3.3418,3.3418,3.3418,3.3418,3.3418,3.3418,3.4445,3.6885,3.7188,3.8447,4.0803,4.1057,4.1172,4.1172,4.1172,4.1172,4.1172,4.1172,4.1172,4.1172,4.1172,4.1172,4.1172,4.1172,4.1172,4.1172,4.1172,4.1172,4.1172,4.1172,4.1172,4.1172,0.0,2.8221,2.8473,0.0,0.0,3.1061,3.1705,3.2352,3.2681,3.2316,3.2589,3.3042,3.371,3.4521,3.5288,3.6126,3.6201,3.6201,3.6201,3.6201,3.6201,3.6201,3.6201,3.6201,3.6201,3.6201,3.6201,3.6201,3.6201,3.5999,3.5614,3.521,3.4878,3.4667,3.4051,3.3886,3.4094,3.3886,3.4024,3.4421,3.4352,3.455,3.4882,3.4583,3.4459,3.4336,3.3906,3.3613,3.3355,3.3228,3.3038,3.2867,3.2676,3.2549,3.2358,3.1974,3.1929,3.1846,3.1506,3.1506,3.1717,3.2038,3.2294,0.0,0.0,3.2912,3.2912,3.3102,3.3165,3.3165,3.3355,3.3418,3.3418,3.3418,3.3418,3.3418,3.3418,3.3418,3.3418,3.3418,3.3418,3.3418,3.3418,3.3418,3.3418,3.3418,3.3418,3.3418,3.3418,3.3418,3.457,3.7248,3.7309,3.8566,4.1172,4.1172,4.1172,4.1172,4.1172,4.1172,4.1172,4.1172,4.1172,4.1172,4.1172,4.1172,4.1172,4.1172,4.1172,4.1172,4.1172,4.1172,4.1172,4.1172,4.1172,4.1172,2.9188,2.9216,2.9621,0.0,0.0,0.0,0.0,3.3418,3.3332,3.2663,3.3635,3.4371,3.4371,3.5587,3.6423,3.6423,3.6423,3.6442,3.6275,3.6275,3.6275,3.6201,3.6201,3.6201,3.6201,3.6201,3.6201,3.6201,3.6127,3.5889,3.5504,3.51,3.491,3.4855,3.4242,3.4163,3.4508,3.4163,3.4232,3.4646,3.4921,3.5196,3.55,3.5432,3.5156,3.4766,3.4258,3.3789,3.3418,3.3418,3.3228,3.2975,3.2975,3.2785,3.2549,3.2166,3.2038,3.191,3.157,3.1506,3.1635,3.191,3.2038,3.2166,0.0,0.0,0.0,3.2912,3.2975,3.3102,3.3355,3.3418,3.3418,3.3418,3.3418,3.3418,3.3418,3.3418,3.3418,3.3418,3.3418,3.3418,3.3418,3.3418,3.3418,3.3418,3.3418,3.3418,3.3418,3.3418,3.457,3.7248,3.7309,3.8566,4.1172,4.1172,4.1172,4.1172,4.1172,4.1172,4.1172,4.1172,4.1172,4.1172,4.1172,4.1172,4.1172,4.1172,4.1172,4.1172,4.1172,4.1172,4.1172,4.1172,4.1172,4.1172,3.2698,3.2823,3.2905,0.0,0.0,0.0,0.0,0.0,3.6182,3.5713,3.6145,3.6423,3.6423,3.696,3.7255,3.7255,3.7255,3.7107,3.6738,3.6738,3.659,3.6201,3.6201,3.6201,3.6201,3.6201,3.6201,3.6201,3.5852,3.5485,3.5082,3.4678,3.4467,3.4445,3.4389,3.4508,3.4853,3.4784,3.499,3.5421,3.5401,3.547,3.55,3.5432,3.5351,3.5195,3.4375,3.3789,3.3418,3.3418,3.3355,3.3355,3.3355,3.3292,3.3228,3.2848,3.2613,3.2294,3.191,3.2038,3.2294,3.2358,3.2549,3.2867,3.3228,0.0,3.2931,3.3292,0.0,3.3355,3.3418,0.0,0.0,3.3418,3.3418,3.3418,3.3418,3.3418,3.3418,3.3418,3.3418,3.3418,3.3418,3.3418,3.3418,3.3418,3.3418,3.3418,3.3418,3.3418,3.457,3.7248,3.7309,3.8566,4.1172,4.1172,4.1172,4.1172,4.1172,4.1172,4.1172,4.1172,4.1172,4.1172,4.1172,4.1172,4.1172,4.1172,4.1172,4.1172,4.1172,4.1172,4.1172,4.1172,4.1172,4.1172,3.305,3.2697,3.3018,3.4074,0.0,0.0,0.0,0.0,3.6402,3.6237,3.6367,3.6423,3.6423,3.659,3.6812,3.7034,3.7034,3.696,3.6812,3.6812,3.6738,3.659,3.6275,3.6293,3.6516,3.6275,3.6091,3.587,3.5705,3.5284,3.466,3.4477,3.4464,3.4715,3.4508,3.4715,3.5196,3.499,3.5127,3.5489,3.5489,3.5606,3.5792,3.5753,3.5605,3.5273,3.4394,3.3945,3.375,3.3496,3.3418,3.3418,3.3418,3.3418,3.3355,3.2975,3.2804,3.2613,3.2294,3.2294,3.2422,3.2422,3.2485,3.2676,3.2804,3.274,3.2676,3.3038,0.0,0.0,0.0,0.0,0.0,0.0,3.3418,3.3418,3.3418,3.3418,3.3418,3.3418,3.3418,3.3418,3.3418,3.3418,3.3418,3.3418,3.3418,3.3418,3.3418,3.3418,3.457,3.7248,3.7309,3.8566,4.1172,4.1172,4.1172,4.1172,4.1172,4.1172,4.1172,4.1172,4.1172,4.1172,4.1172,4.1172,4.1172,4.1172,4.1172,4.1172,4.1172,4.1172,4.1172,4.1172,4.1172,4.1172,3.3781,3.3479,3.4004,3.5288,3.5452,0.0,3.6488,3.6402,3.6201,3.6201,3.6275,3.6349,3.6349,3.659,3.6812,3.7107,3.7255,3.7255,3.7107,3.7034,3.696,3.696,3.6497,3.6367,3.6812,3.6331,3.5907,3.5614,3.5394,3.499,3.4403,3.4293,3.4511,3.4921,3.4646,3.4921,3.5606,3.5333,3.5401,3.5626,3.5626,3.5743,3.6016,3.6016,3.5762,3.5312,3.4668,3.4277,3.4023,3.3711,3.3516,3.3418,3.3418,3.3418,3.3355,3.3102,3.2975,3.2867,3.2613,3.2549,3.2549,3.2549,3.2549,3.2549,3.2676,3.2613,3.2613,3.2975,3.3038,0.0,0.0,0.0,3.3418,3.3418,0.0,3.3418,3.3418,3.3418,3.3418,3.3418,3.3418,3.3418,3.3418,3.3418,3.3418,3.3418,3.3418,3.3418,3.3418,3.3733,3.5005,3.7248,3.767,3.8921,4.1172,4.1172,4.1172,4.1172,4.1172,4.1172,4.1172,4.1172,4.1172,4.1172,4.1172,4.1172,4.1172,4.1172,4.1172,4.1172,4.1172,4.1172,4.1172,4.1172,4.1172,4.1172,3.6088,3.6728,3.7276,3.7352,3.6947,3.6639,3.6292,3.6219,3.6201,3.6201,3.6516,3.6812,3.6812,3.7495,3.7936,3.7936,3.8282,3.8355,3.8009,3.7568,3.7402,3.7402,3.659,3.6367,3.6812,3.6054,3.5632,3.5614,3.4825,3.4422,3.4385,3.4018,3.4232,3.4921,3.4921,3.5264,3.5947,3.5947,3.5947,3.5947,3.5947,3.6016,3.6016,3.6016,3.5762,3.5391,3.5351,3.4805,3.4082,3.4062,3.3769,3.3418,3.3418,3.3418,3.3418,3.3355,3.3165,3.2912,3.2867,3.2848,3.2848,3.2848,3.2848,3.2975,3.3292,3.3102,3.2975,3.3292,3.3355,3.3355,3.3418,3.3418,3.3418,3.3418,3.3418,0.0,0.0,3.3418,3.3418,3.3418,3.3418,3.3418,3.3418,3.3418,3.3418,3.3418,3.3418,3.3418,3.3418,3.4652,3.5909,3.7248,3.8506,3.9767,4.1196,4.1172,4.1172,4.1172,4.1172,4.1172,4.1172,4.1172,4.1172,4.1172,4.1172,4.1172,4.1172,4.1172,4.1172,4.1172,4.1172,4.1172,4.1172,4.1172,4.1172,4.1172,3.6201,3.6439,3.6622,3.6622,3.6512,3.6366,3.6237,3.6201,3.6275,3.659,3.6738,3.6886,3.7181,3.7421,3.7715,3.8009,3.8155,3.8155,3.8009,3.7594,3.7556,3.777,3.6746,3.6485,3.7204,3.6155,3.546,3.5182,3.4673,3.4275,3.4,3.4149,3.4439,3.4921,3.5196,3.5538,3.6016,3.6016,3.6016,3.6016,3.6016,3.6016,3.6016,3.6016,3.5937,3.5762,3.5488,3.5195,3.4863,3.4258,3.3965,3.3809,3.3516,3.3418,3.3418,3.3418,3.3292,3.3228,3.3228,3.3228,3.3228,3.3228,3.3228,3.3228,3.3355,3.3292,3.3228,3.3355,3.3418,3.3418,3.3418,3.3418,3.3418,3.3418,3.3418,3.3418,0.0,3.3418,3.3418,3.3418,3.3418,3.3418,3.3418,3.3418,3.3418,3.3418,3.3418,3.3796,3.4715,3.5129,3.6338,3.8506,3.898,3.9826,4.1196,4.1172,4.1172,4.1172,4.1172,4.1172,4.1172,4.1172,4.1172,4.1172,4.1172,4.1172,4.1172,4.1172,4.1172,4.1172,4.1172,4.1172,4.1172,4.1172,4.1172,4.1172,3.6201,3.6201,3.6201,3.6201,3.6201,3.6201,3.6201,3.6275,3.6516,3.6738,3.6886,3.7107,3.7329,3.7568,3.7715,3.8009,3.8155,3.817,3.7996,3.7735,3.7658,3.7784,3.6823,3.6599,3.7124,3.6081,3.5459,3.5177,3.4748,3.4473,3.4232,3.4439,3.4784,3.5127,3.5401,3.5675,3.6016,3.6016,3.6016,3.6016,3.6016,3.6016,3.6016,3.6016,3.6016,3.5996,3.5723,3.5527,3.5273,3.4551,3.4199,3.4004,3.3555,3.3418,3.3418,3.3418,3.3418,3.3418,3.3418,3.3418,3.3418,3.3418,3.3418,3.3418,3.3418,3.3418,3.3418,3.3418,3.3418,3.3418,3.3418,3.3418,3.3418,3.3418,3.3418,3.3418,0.0,3.3418,3.3418,3.3418,3.3418,3.3418,3.3418,3.3418,3.3418,3.3418,3.3418,3.3965,3.5314,3.5807,3.7067,3.9098,3.965,4.0316,4.1196,4.1172,4.1172,4.1172,4.1172,4.1172,4.1172,4.1172,4.1172,4.1172,4.1172,4.1172,4.1172,4.1172,4.1172,4.1172,4.1172,4.1172,4.1172,4.1172,4.1172,4.1172,3.6201,3.6201,3.6201,3.6201,3.6201,3.6201,3.6201,3.6516,3.6812,3.6812,3.7181,3.7421,3.7495,3.7789,3.8009,3.8009,3.8375,3.8398,3.7988,3.7958,3.7822,3.7363,3.6962,3.6747,3.6701,3.5927,3.5489,3.5489,3.5111,3.4921,3.4921,3.4921,3.5127,3.5489,3.5557,3.5675,3.6016,3.6016,3.6016,3.6016,3.6016,3.6016,3.6016,3.6016,3.6016,3.6016,3.6016,3.5762,3.5351,3.4883,3.4453,3.4023,3.3594,3.3437,3.3418,3.3418,3.3418,3.3418,3.3418,3.3418,3.3418,3.3418,3.3418,3.3418,3.3418,3.3418,3.3418,3.3418,3.3418,3.3418,3.3418,3.3418,3.3418,3.3418,3.3418,3.3418,3.3418,3.3418,3.3418,3.3418,3.3418,3.3418,3.3418,3.3418,3.3418,3.3418,3.3418,3.4027,3.5438,3.6642,3.791,3.9275,4.0571,4.1172,4.1172,4.1172,4.1172,4.1172,4.1172,4.1172,4.1172,4.1172,4.1172,4.1172,4.1172,4.1172,4.1172,4.1172,4.1172,4.1172,4.1172,4.1172,4.1172,4.1172,4.1172,4.1172,3.6201,3.6201,3.6275,3.659,3.6442,3.6201,3.6201,3.6516,3.6886,3.7181,3.7568,3.7936,3.8282,3.8355,3.8428,3.8428,3.8501,3.8535,3.8418,3.7838,3.7533,3.7754,3.6763,3.6344,3.6677,3.5924,3.5505,3.5505,3.5116,3.4921,3.4921,0.0,0.0,3.547,3.5743,3.5947,3.6016,3.6016,3.6016,3.6016,3.6016,3.6016,3.6016,3.6016,3.6016,3.6016,3.6016,3.5957,3.5801,3.5371,3.4922,3.4473,3.4043,3.3691,3.3418,3.3418,3.3418,3.3418,3.3418,3.3418,3.3418,3.3418,3.3418,3.3418,3.3418,3.3418,3.3418,3.3418,3.3418,3.3418,3.3418,3.3418,3.3418,3.3418,3.3418,3.3418,3.3418,3.3418,3.3418,3.3418,3.3418,3.3418,3.3418,3.3418,3.3418,3.3418,3.3418,3.4403,3.6703,3.7127,3.8328,4.0629,4.1,4.1172,4.1172,4.1172,4.1172,4.1172,4.1172,4.1172,4.1172,4.1172,4.1172,4.1172,4.1172,4.1172,4.1172,4.1172,4.1172,4.1172,4.1172,4.1172,4.1172,4.1172,4.1172,4.1172,3.6738,3.6738,3.6812,3.7034,3.6886,3.6738,3.6738,3.7034,3.7421,3.7642,3.8009,3.8375,3.8574,3.8574,3.8574,3.8574,3.8574,3.8418,3.8047,3.7734,3.7422,3.7109,3.6582,3.6328,3.6387,3.5947,3.5743,3.5743,3.547,3.5401,3.5401,0.0,0.0,3.5743,3.5947,3.6016,3.6016,3.6674,3.6944,3.6991,3.7595,3.7863,0.0,3.7863,3.7863,3.7863,3.7863,3.7059,3.5957,3.5527,3.5215,3.4883,3.4258,3.3906,3.3672,3.3476,3.3418,3.3418,3.3418,3.3418,3.3418,3.3418,3.3418,3.3418,3.3418,3.3418,3.3418,3.3418,3.3418,3.3418,3.3418,3.3418,3.3418,3.3418,3.3418,3.3418,3.3418,3.3418,3.3418,3.3418,3.3418,3.3418,3.3418,3.3418,3.3418,3.3418,3.3418,3.4507,3.7188,3.7309,3.8506,4.1115,4.1172,4.1172,4.1172,4.1172,4.1172,4.1172,4.1172,4.1172,4.1172,4.1172,4.1172,4.1172,4.1172,4.1172,4.1172,4.1172,4.1172,4.1172,4.1172,4.1172,4.1172,4.1172,4.1172,4.1172,3.7421,3.7421,3.7421,3.7495,3.7495,3.7549,3.7843,3.7936,3.8009,3.8009,3.8375,3.8574,3.8574,3.8574,3.8574,3.8574,3.8516,3.8184,3.7422,3.7617,3.7266,3.6152,3.6406,3.6406,3.6035,3.6016,3.6016,3.6016,3.6016,3.6016,0.0,0.0,0.0,3.6016,3.6016,3.6084,3.6355,3.7595,3.8175,3.8507,3.967,4.0192,4.0192,4.0192,4.0192,4.0192,4.0192,3.8507,3.6228,3.5854,3.5697,3.55,3.4479,3.423,3.4241,3.3618,3.3418,3.3418,3.3418,3.3418,3.3418,3.3418,3.3418,3.3418,3.3418,3.3418,3.3418,3.3418,3.3418,3.3418,3.3418,3.3418,3.3418,3.3418,3.3418,3.3418,3.3418,3.3418,3.3418,3.3418,3.3418,0.0,3.3418,3.3418,3.3418,3.3418,3.3418,3.4507,3.7188,3.7309,3.8506,4.1115,4.1172,4.1172,4.1172,4.1172,4.1172,4.1172,4.1172,4.1172,4.1172,4.1172,4.1172,4.1172,4.1172,4.1172,4.1172,4.1172,4.1172,4.1172,4.1172,4.1172,4.1172,4.1172,4.1172,4.1172,3.7421,3.7421,3.7495,3.7862,3.7862,3.8428,3.9962,3.8918,3.8009,3.8009,3.8375,3.8574,3.8574,3.8574,3.8574,3.8574,3.8242,3.7969,3.7812,3.7226,3.6797,3.6562,3.6289,3.6094,3.6016,3.6016,3.6016,3.6016,3.6016,3.6016,3.6016,0.0,3.6016,3.6016,3.6016,3.6674,3.7709,3.7975,3.8772,3.9866,4.0062,4.0192,4.0192,4.0192,4.0192,4.0192,4.0192,3.9167,3.7709,3.7627,3.7427,3.684,3.5139,3.5156,3.5536,3.3851,3.3418,3.3418,3.3418,3.3418,3.3418,3.3418,3.3418,3.3418,3.3418,3.3418,3.3418,3.3418,3.3418,3.3418,3.3418,3.3418,3.3418,3.3418,3.3418,3.3418,3.3418,3.3418,3.3418,3.3418,3.3418,3.3418,3.3418,3.3418,3.3418,3.3418,3.3418,3.4507,3.7188,3.7309,3.8506,4.1115,4.1172,4.1172,4.1172,4.1172,4.1172,4.1172,4.1172,4.1172,4.1172,4.1172,4.1172,4.1172,4.1172,4.1172,4.1172,4.1172,4.1172,4.1172,4.1172,4.1172,4.1172,4.1172,4.1172,4.1172,3.799,3.799,3.8355,3.9261,3.9478,4.0033,4.17,4.1155,4.0586,4.0586,4.0728,4.0871,4.0871,4.0871,4.0503,3.9515,3.9222,3.8567,3.7375,3.6894,3.6562,3.6348,3.6133,3.6355,3.7059,3.7059,3.7059,3.7059,3.7059,3.6742,3.6016,3.6016,3.6016,3.6016,3.6742,3.7461,3.8175,3.967,4.0668,4.1377,4.2079,4.2333,4.2333,4.2333,4.2333,4.2333,4.2333,4.1441,4.0192,3.9408,3.9084,3.8677,3.7522,3.7318,3.7295,3.6144,3.5666,3.5417,3.5417,3.4943,3.4465,3.4465,3.3902,3.3418,3.3418,3.3418,3.3418,3.3418,3.3418,3.3418,3.3418,3.3418,3.3418,3.3418,3.3418,3.3418,3.3418,3.3418,3.3418,3.3418,3.3418,3.3418,3.3418,3.3418,3.3418,3.3418,3.4027,3.5314,3.7188,3.791,3.918,4.1115,4.1172,4.1172,4.1172,4.1172,4.1172,4.1172,4.1172,4.1172,4.1172,4.1172,4.1172,4.1172,4.1172,4.1172,4.1172,4.1172,4.1172,4.1172,4.1172,4.1172,4.1172,4.1172,4.1172,4.1172,3.8991,3.9063,3.955,4.1013,4.1297,4.1771,4.324,4.3517,4.3379,4.3032,4.3032,4.3032,4.3032,4.3032,4.2349,4.0808,4.0543,3.9661,3.7714,3.7182,3.6847,3.6423,3.6471,3.6944,3.8042,3.8374,3.8573,3.8573,3.8242,3.7528,3.6403,3.6152,3.6152,3.6471,3.7595,3.8441,3.9167,4.1377,4.2483,4.2799,4.3888,4.4285,4.4285,4.4285,4.4285,4.4285,4.4285,4.3639,4.2546,4.1441,4.0839,4.0493,3.9708,3.9352,3.8993,3.8345,3.7741,3.7309,3.7309,3.6581,3.5786,3.5786,3.5005,3.4215,3.4215,3.4215,3.4153,3.3859,3.3607,3.3481,3.3796,3.3859,3.3859,3.3859,3.4027,3.4153,3.3839,3.3859,3.3902,3.4215,3.3713,3.3607,3.4153,3.3733,3.3544,3.3796,3.4819,3.5971,3.7248,3.8506,3.9826,4.1172,4.1172,4.1172,4.1172,4.1172,4.1172,4.1172,4.1172,4.1172,4.1172,4.1172,4.1172,4.1172,4.1172,4.1172,4.1172,4.1172,4.1172,4.1172,4.1172,4.1172,4.1172,4.1172,4.1172,4.1172,4.032,4.0586,4.1084,4.2543,4.2823,4.3309,4.4846,4.5074,4.4573,4.3171,4.3032,4.3032,4.3032,4.3032,4.2766,4.217,4.1736,4.119,4.047,3.8866,3.795,3.7909,3.7909,3.7975,3.8109,3.9364,3.9997,3.9997,3.8705,3.8042,3.7842,3.6606,3.6674,3.7909,3.8042,3.954,4.1888,4.2166,4.2988,4.4099,4.4223,4.4285,4.4285,4.4285,4.4285,4.4285,4.4285,4.4223,4.4099,4.395,4.3114,4.1797,4.0049,3.998,4.025,3.8591,3.7741,3.7309,3.7309,3.7248,3.7127,3.7127,3.7067,3.6924,3.6924,3.6924,3.6642,3.5438,3.4278,3.3796,3.5005,3.5191,3.5191,3.5191,3.6154,3.652,3.5376,3.5191,3.5623,3.6824,3.4819,3.434,3.6703,3.4819,3.3902,3.5129,3.5314,3.5971,3.7248,3.8506,3.9826,4.1172,4.1172,4.1172,4.1172,4.1172,4.1172,4.1172,4.1172,4.1172,4.1172,4.1172,4.1172,4.1172,4.1172,4.1172,4.1172,4.1172,4.1172,4.1172,4.1172,4.1172,4.1172,4.1172,4.1172,4.1172,4.1982,4.2123,4.2613,4.4161,4.4367,4.4914,4.6382,4.6607,4.6382,4.5752,4.5685,4.5685,4.5685,4.5407,4.4679,4.3308,4.2746,4.1924,4.052,3.9778,3.9343,3.9343,3.9343,3.9757,4.0581,4.1184,4.1441,4.1441,4.0062,3.897,3.8109,3.7528,3.7975,3.943,4.0257,4.1248,4.2356,4.32,4.3826,4.4285,4.4285,4.4285,4.4285,4.4285,4.4285,4.4285,4.4285,4.4285,4.4285,4.4285,4.395,4.3341,4.2606,4.2412,4.2202,4.1201,4.0509,4.0045,3.9743,3.9039,3.8447,3.8447,3.785,3.7309,3.7309,3.7309,3.7188,3.6642,3.6093,3.5909,3.646,3.652,3.652,3.652,3.6946,3.7127,3.6642,3.652,3.6764,3.7248,3.6399,3.6154,3.7188,3.6338,3.5971,3.652,3.5848,3.5971,3.7248,3.8506,3.9826,4.1172,4.1172,4.1172,4.1172,4.1172,4.1172,4.1172,4.1172,4.1172,4.1172,4.1172,4.1172,4.1172,4.1172,4.1172,4.1172,4.1172,4.1172,4.1172,4.1172,4.1172,4.1172,4.1172,4.1172,4.1172,4.3587,4.3656,4.4138,4.5685,4.5978,4.6315,4.7364,4.7497,4.7497,4.7497,4.7497,4.7449,4.7281,4.6944,4.6025,4.4342,4.3904,4.3014,4.1527,4.1055,4.0797,4.0797,4.0797,4.1312,4.2293,4.2673,4.2862,4.2862,4.1505,4.0322,3.9343,3.8904,3.9474,4.0862,4.1847,4.2546,4.2925,4.3888,4.4285,4.4285,4.4285,4.4285,4.4285,4.4285,4.4285,4.4285,4.4285,4.4285,4.4285,4.4285,4.4285,4.4285,4.4285,4.3962,4.3409,4.2904,4.2458,4.1846,4.1317,4.0513,3.9767,3.9767,3.9121,3.8447,3.8447,3.8447,3.8328,3.797,3.755,3.7407,3.7768,3.785,3.785,3.785,3.8209,3.8328,3.791,3.785,3.8029,3.8387,3.779,3.761,3.8387,3.773,3.7489,3.785,3.6703,3.652,3.7768,3.9098,4.0199,4.1172,4.1172,4.1172,4.1172,4.1172,4.1172,4.1172,4.1172,4.1172,4.1172,4.1172,4.1172,4.1172,4.1172,4.1172,4.1172,4.1172,4.1172,4.1172,4.1172,4.1172,4.1172,4.1172,4.1172,4.1172,4.4983,4.5278,4.5752,4.7232,4.7497,4.7497,4.7497,4.7497,4.7497,4.7497,4.7497,4.7305,4.6776,4.6704,4.6295,4.5173,4.5077,4.4837,4.4309,4.2988,4.2293,4.2293,4.2293,4.2293,4.2293,4.3576,4.4285,4.4285,4.2925,4.2293,4.2229,4.0862,4.0926,4.2293,4.2293,4.3051,4.4285,4.4285,4.4285,4.4285,4.4285,4.4285,4.4285,4.4285,4.4285,4.4285,4.4285,4.4285,4.4285,4.4285,4.4285,4.4285,4.4285,4.3962,4.3409,4.2904,4.2458,4.1846,4.1317,4.1196,4.1196,4.1196,4.1172,4.1115,4.1115,4.1115,4.0769,3.9474,3.8209,3.767,3.8921,3.9157,3.9157,3.9157,4.0257,4.0687,3.9334,3.9157,3.965,4.1,3.8862,3.8328,4.0884,3.8826,3.7828,3.9098,3.8029,3.785,3.9098,4.0455,4.1172,4.1172,4.1172,4.1172,4.1172,4.1172,4.1172,4.1172,4.1172,4.1172,4.1172,4.1172,4.1172,4.1172,4.1172,4.1172,4.1172,4.1172,4.1172,4.1172,4.1172,4.1172,4.1172,4.1172,4.1172,4.1172,4.6741,4.6808,4.6941,4.7431,4.7497,4.7497,4.7497,4.7497,4.7497,4.7497,4.7497,4.7161,4.6271,4.6175,4.5886,4.5125,4.4741,4.4477,4.4285,4.3888,4.3639,4.3639,4.3639,4.3639,4.3639,4.4099,4.4285,4.4285,4.2925,4.2293,4.2293,4.1824,4.2356,4.3639,4.3639,4.3888,4.4285,4.4285,4.4285,4.4285,4.4285,4.4285,4.4285,4.4285,4.4285,4.4285,4.4285,4.4285,4.4285,4.4285,4.4285,4.4285,4.4285,4.4165,4.3914,4.3024,4.2699,4.2386,4.1437,4.1172,4.1172,4.1172,4.1172,4.1172,4.1172,4.1172,4.1057,4.0629,4.0257,4.0083,4.0513,4.0571,4.0571,4.0571,4.0942,4.1057,4.0629,4.0571,4.0687,4.1115,4.0455,4.0281,4.1115,4.0455,4.0141,4.0513,4.0199,3.9732,3.9216,3.9592,4.0257,4.1172,4.1172,4.1172,4.1172,4.1172,4.1172,4.1172,4.1172,4.1172,4.1172,4.1172,4.1172,4.1172,4.1172,4.1172,4.1172,4.1172,4.1172,4.1172,4.1172,4.1172,4.1172,4.1172,4.1172,4.1172,4.7497,4.7497,4.7497,4.7497,4.7497,4.7497,4.7497,4.7497,4.7497,4.7497,4.7329,4.6872,4.603,4.5742,4.5342,4.4813,4.4477,4.4285,4.4285,4.4285,4.4285,4.4285,4.4285,4.4285,4.4285,4.4285,4.4285,4.4285,4.3451,4.3051,4.3051,4.3051,4.3514,4.4285,4.4285,4.4285,4.4285,4.4285,4.4285,4.4285,4.4285,4.4285,4.4285,4.4285,4.4285,4.4285,4.4285,4.4285,4.4285,4.4285,4.4285,4.4285,4.4285,4.4285,4.4069,4.3072,4.2819,4.2602,4.1461,4.1172,4.1172,4.1172,4.1172,4.1172,4.1172,4.1172,4.1172,4.1172,4.1172,4.1172,4.1172,4.1172,4.1172,4.1172,4.1172,4.1172,4.1172,4.1172,4.1172,4.1172,4.1172,4.1172,4.1172,4.1172,4.1172,4.1172,4.1172,4.0826,4.0024,3.9966,4.0316,4.1172,4.1172,4.1172,4.1172,4.1172,4.1172,4.1172,4.1172,4.1172,4.1172,4.1172,4.1172,4.1172,4.1172,4.1172,4.1172,4.1172,4.1172,4.1172,4.1172,4.1172,4.1172,4.1172,4.1172,4.1172,4.7497,4.7497,4.7497,4.7497,4.7497,4.7497,4.7497,4.7497,4.7497,4.7497,4.704,4.6511,4.5982,4.5453,4.4861,4.4333,4.4285,4.4285,4.4285,4.4285,4.4285,4.4285,4.4285,4.4285,4.4285,4.4285,4.4285,4.4285,4.4285,4.4285,4.4285,4.4285,4.4285,4.4285,4.4285,4.4285,4.4285,4.4285,4.4285,4.4285,4.4285,4.4285,4.4285,4.4285,4.4285,4.4285,4.4285,4.4285,4.4285,4.4285,4.4285,4.4285,4.4285,4.4285,4.4093,4.312,4.2843,4.2602,4.1509,4.122,4.1172,4.1172,4.1172,4.1172,4.1172,4.1172,4.1172,4.1172,4.1172,4.1172,4.1172,4.1172,4.1172,4.1172,4.1172,4.1172,4.1172,4.1172,4.1172,4.1172,4.1172,4.1172,4.1172,4.1172,4.1172,4.1172,4.1172,4.1172,4.1172,4.1172,4.1172,4.1172,4.1172,4.1172,4.1172,4.1172,4.1172,4.1172,4.1172,4.1172,4.1172,4.1172,4.1172,4.1172,4.1172,4.1172,4.1172,4.1172,4.1172,4.1172,4.1172,4.1172,4.1172,4.1172,4.1172,4.1172,4.7497,4.7497,4.7497,4.7497,4.7497,4.7497,4.7497,4.7497,4.7497,4.7497,4.704,4.6511,4.5982,4.5453,4.4861,4.4333,4.4285,4.4285,4.4285,4.4285,4.4285,4.4285,4.4285,4.4285,4.4285,4.4285,4.4285,4.4285,4.4285,4.4285,4.4285,4.4285,4.4285,4.4285,4.4285,4.4285,4.4285,4.4285,4.4285,4.4285,4.4285,4.4285,4.4285,4.4285,4.4285,4.4285,4.4285,4.4285,4.4285,4.4285,4.4285,4.4285,4.4285,4.4285,4.4141,4.3529,4.3072,4.2675,4.1966,4.1485,4.1172,4.1172,4.1172,4.1172,4.1172,4.1172,4.1172,4.1172,4.1172,4.1172,4.1172,4.1172,4.1172,4.1172,4.1172,4.1172,4.1172,4.1172,4.1172,4.1172,4.1172,4.1172,4.1172,4.1172,4.1172,4.1172,4.1172,4.1172,4.1172,4.1172,4.1172,4.1172,4.1172,4.1172,4.1172,4.1172,4.1172,4.1172,4.1172,4.1172,4.1172,4.1172,4.1172,4.1172,4.1172,4.1172,4.1172,4.1172,4.1172,4.1172,4.1172,4.1172,4.1172,4.1172,4.1172,4.1172,4.7497,4.7497,4.7497,4.7497,4.7497,4.7497,4.7497,4.7497,4.7497,4.7497,4.6824,4.6247,4.5958,4.5173,4.4597,4.4309,4.4285,4.4285,4.4285,4.4285,4.4285,4.4285,4.4285,4.4285,4.4285,4.4285,4.4285,4.4285,4.4285,4.4285,4.4285,4.4285,4.4285,4.4285,4.4285,4.4285,4.4285,4.4285,4.4285,4.4285,4.4285,4.4285,4.4285,4.4285,4.4285,4.4285,4.4285,4.4285,4.4285,4.4285,4.4285,4.4285,4.4285,4.4285,4.4213,4.3925,4.3529,4.3,4.2471,4.1942,4.1485,4.1244,4.1172,4.1172,4.1172,4.1172,4.1172,4.1172,4.1172,4.1172,4.1172,4.1172,4.1172,4.1172,4.1172,4.1172,4.1172,4.1172,4.1172,4.1172,4.1172,4.1172,4.1172,4.1172,4.1172,4.1172,4.1172,4.1172,4.1172,4.1172,4.1172,4.1172,4.1172,4.1172,4.1172,4.1172,4.1172,4.1172,4.1172,4.1172,4.1172,4.1172,4.1172,4.1172,4.1172,4.1172,4.1172,4.1172,4.1172,4.1172,4.1172,4.1172,4.1172,4.1172,4.1172,4.1172,4.7497,4.7497,4.7497,4.7497,4.7497,4.7497,4.7497,4.7497,4.7497,4.7497,4.6583,4.5934,4.5934,4.4909,4.4285,4.4285,4.4285,4.4285,4.4285,4.4285,4.4285,4.4285,4.4285,4.4285,4.4285,4.4285,4.4285,4.4285,4.4285,4.4285,4.4285,4.4285,4.4285,4.4285,4.4285,4.4285,4.4285,4.4285,4.4285,4.4285,4.4285,4.4285,4.4285,4.4285,4.4285,4.4285,4.4285,4.4285,4.4285,4.4285,4.4285,4.4285,4.4285,4.4285,4.4285,4.4285,4.3949,4.3529,4.3024,4.2554,4.1966,4.1437,4.1293,4.1268,4.1196,4.1172,4.1172,4.1172,4.1172,4.1172,4.1172,4.1172,4.1172,4.1172,4.1172,4.1172,4.1172,4.1172,4.1172,4.1172,4.1172,4.1172,4.1172,4.1172,4.1172,4.1172,4.1172,4.1172,4.1172,4.1172,4.1172,4.1172,4.1172,4.1172,4.1172,4.1172,4.1172,4.1172,4.1172,4.1172,4.1172,4.1172,4.1172,4.1172,4.1172,4.1172,4.1172,4.1172,4.1172,4.1172,4.1172,4.1172,4.1172,4.1172,4.1172,4.1172,4.7497,4.7497,4.7497,4.7497,4.7497,4.7497,4.7497,4.7497,4.7497,4.7497,4.6583,4.5934,4.5934,4.4909,4.4285,4.4285,4.4285,4.4285,4.4285,4.4285,4.4285,4.4285,4.4285,4.4285,4.4285,4.4285,4.4285,4.4285,4.4285,4.4285,4.4285,4.4285,4.4285,4.4285,4.4285,4.4285,4.4285,4.4285,4.4285,4.4285,4.4285,4.4285,4.4285,4.4285,4.4285,4.4285,4.4285,4.4285,4.4285,4.4285,4.4285,4.4285,4.4285,4.4285,4.4285,4.4285,4.4213,4.4045,4.3553,4.3024,4.2578,4.199,4.1904,4.1725,4.1293,4.1172,4.1172,4.1172,4.1172,4.1172,4.1172,4.1172,4.1172,4.1172,4.1172,4.1172,4.1172,4.1172,4.1172,4.1172,4.1172,4.1172,4.1172,4.1172,4.1172,4.1172,4.1172,4.1172,4.1172,4.1172,4.1172,4.1172,4.1172,4.1172,4.1172,4.1172,4.1172,4.1172,4.1172,4.1172,4.1172,4.1172,4.1172,4.1172,4.1172,4.1172,4.1172,4.1172,4.1172,4.1172,4.1172,4.1172,4.1172,4.1172,4.1172,4.1172,4.7497,4.7497,4.7497,4.7497,4.7497,4.7497,4.7497,4.7497,4.7497,4.7497,4.6583,4.5934,4.5934,4.4909,4.4285,4.4285,4.4285,4.4285,4.4285,4.4285,4.4285,4.4285,4.4285,4.4285,4.4285,4.4285,4.4285,4.4285,4.4285,4.4285,4.4285,4.4285,4.4285,4.4285,4.4285,4.4285,4.4285,4.4285,4.4285,4.4285,4.4285,4.4285,4.4285,4.4285,4.4285,4.4285,4.4285,4.4285,4.4285,4.4285,4.4285,4.4285,4.4285,4.4285,4.4285,4.4285,4.4285,4.4165,4.3673,4.3337,4.3048,4.2578,4.2458,4.2313,4.1725,4.1605,4.1533,4.1244,4.1172,4.1172,4.1172,4.1172,4.1172,4.1172,4.1172,4.1172,4.1172,4.1172,4.1172,4.1172,4.1172,4.1172,4.1172,4.1172,4.1172,4.1172,4.1172,4.1172,4.1172,4.1172,4.1172,4.1172,4.1172,4.1172,4.1172,4.1172,4.1172,4.1172,4.1172,4.1172,4.1172,4.1172,4.1172,4.1172,4.1172,4.1172,4.1172,4.1172,4.1172,4.1172,4.1172,4.1172,4.1172,4.1172,4.1172,4.1172,4.7497,4.7497,4.7497,4.7497,4.7497,4.7497,4.7497,4.7497,4.7497,4.7497,4.668,4.6054,4.5934,4.5029,4.4429,4.4285,4.4285,4.4285,4.4285,4.4285,4.4285,4.4285,4.4285,4.4285,4.4285,4.4285,4.4285,4.4285,4.4285,4.4285,4.4285,4.4285,4.4285,4.4285,4.4285,4.4285,4.4285,4.4285,4.4285,4.4285,4.4285,4.4285,4.4285,4.4285,4.4285,4.4285,4.4285,4.4285,4.4285,4.4285,4.4285,4.4285,4.4285,4.4285,4.4285,4.4285,4.4285,4.4189,4.3818,4.3697,4.3577,4.3072,4.2928,4.2808,4.2279,4.2217,4.2014,4.1485,4.1365,4.1317,4.1196,4.1172,4.1172,4.1172,4.1172,4.1172,4.1172,4.1172,4.1172,4.1172,4.1172,4.1172,4.1172,4.1172,4.1172,4.1172,4.1172,4.1172,4.1172,4.1172,4.1172,4.1172,4.1172,4.1172,4.1172,4.1172,4.1172,4.1172,4.1172,4.1172,4.1172,4.1172,4.1172,4.1172,4.1172,4.1172,4.1172,4.1172,4.1172,4.1172,4.1172,4.1172,4.1172,4.1172,4.1172,4.1172,4.7497,4.7497,4.7497,4.7497,4.7497,4.7497,4.7497,4.7497,4.7497,4.7497,4.7016,4.6463,4.5982,4.5429,4.4813,4.4333,4.4285,4.4285,4.4285,4.4285,4.4285,4.4285,4.4285,4.4285,4.4285,4.4285,4.4285,4.4285,4.4285,4.4285,4.4285,4.4285,4.4285,4.4285,4.4285,4.4285,4.4285,4.4285,4.4285,4.4285,4.4285,4.4285,4.4285,4.4285,4.4285,4.4285,4.4285,4.4285,4.4285,4.4285,4.4285,4.4285,4.4285,4.4285,4.4285,4.4285,4.4285,4.4285,4.4237,4.4213,4.4093,4.3601,4.3457,4.3313,4.2867,4.2771,4.2602,4.2073,4.1918,4.1774,4.1268,4.1172,4.1172,4.1172,4.1172,4.1172,4.1172,4.1172,4.1172,4.1172,4.1172,4.1172,4.1172,4.1172,4.1172,4.1172,4.1172,4.1172,4.1172,4.1172,4.1172,4.1172,4.1172,4.1172,4.1172,4.1172,4.1172,4.1172,4.1172,4.1172,4.1172,4.1172,4.1172,4.1172,4.1172,4.1172,4.1172,4.1172,4.1172,4.1172,4.1172,4.1172,4.1172,4.1172,4.1172,4.1172,4.7497,4.7497,4.7497,4.7497,4.7497,4.7497,4.7497,4.7497,4.7497,4.7497,4.704,4.6511,4.5982,4.5453,4.4861,4.4333,4.4285,4.4285,4.4285,4.4285,4.4285,4.4285,4.4285,4.4285,4.4285,4.4285,4.4285,4.4285,4.4285,4.4285,4.4285,4.4285,4.4285,4.4285,4.4285,4.4285,4.4285,4.4285,4.4285,4.4285,4.4285,4.4285,4.4285,4.4285,4.4285,4.4285,4.4285,4.4285,4.4285,4.4285,4.4285,4.4285,4.4285,4.4285,4.4285,4.4285,4.4285,4.4285,4.4285,4.4285,4.4237,4.4021,4.4034,4.389,4.3337,4.3216,4.3072,4.2627,4.253,4.2458,4.2265,4.1894,4.1677,4.1677,4.1389,4.1172,4.1172,4.1172,4.1172,4.1172,4.1172,4.1172,4.1172,4.1172,4.1172,4.1172,4.1172,4.1172,4.1172,4.1172,4.1172,4.1172,4.1172,4.1172,4.1172,4.1172,4.1172,4.1172,4.1172,4.1172,4.1172,4.1172,4.1172,4.1172,4.1172,4.1172,4.1172,4.1172,4.1172,4.1172,4.1172,4.1172,4.1172,4.1172,4.1172,4.1172,4.7497,4.7497,4.7497,4.7497,4.7497,4.7497,4.7497,4.7497,4.7497,4.7497,4.7185,4.6752,4.6223,4.5694,4.5164,4.4573,4.4381,4.4285,4.4285,4.4285,4.4285,4.4285,4.4285,4.4285,4.4285,4.4285,4.4285,4.4285,4.4285,4.4285,4.4285,4.4285,4.4285,4.4285,4.4285,4.4285,4.4285,4.4285,4.4285,4.4285,4.4285,4.4285,4.4285,4.4285,4.4285,4.4285,4.4285,4.4285,4.4285,4.4285,4.4285,4.4285,4.4285,4.4285,4.4285,4.4285,4.4285,4.4285,4.4285,4.4285,4.4285,4.4285,4.4285,4.4189,4.3866,4.377,4.3625,4.3096,4.3,4.2952,4.2843,4.253,4.2265,4.2265,4.1918,4.1629,4.1461,4.1437,4.1365,4.1196,4.1172,4.1172,4.1172,4.1172,4.1172,4.1172,4.1172,4.1172,4.1172,4.1172,4.1172,4.1172,4.1172,4.1172,4.1172,4.1172,4.1172,4.1172,4.1172,4.1172,4.1172,4.1172,4.1172,4.1172,4.1172,4.1172,4.1172,4.1172,4.1172,4.1172,4.1172,4.1172,4.1172,4.1172,4.1172,4.1172,4.7497,4.7497,4.7497,4.7497,4.7497,4.7497,4.7497,4.7497,4.7497,4.7497,4.7497,4.7305,4.6776,4.6247,4.5718,4.5125,4.4597,4.4285,4.4285,4.4285,4.4285,4.4285,4.4285,4.4285,4.4285,4.4285,4.4285,4.4285,4.4285,4.4285,4.4285,4.4285,4.4285,4.4285,4.4285,4.4285,4.4285,4.4285,4.4285,4.4285,4.4285,4.4285,4.4285,4.4285,4.4285,4.4285,4.4285,4.4285,4.4285,4.4285,4.4285,4.4285,4.4285,4.4285,4.4285,4.4285,4.4285,4.4285,4.4285,4.4285,4.4285,4.4285,4.4285,4.4285,4.4285,4.4285,4.4117,4.3625,4.3529,4.3361,4.2916,4.2819,4.2819,4.2819,4.2819,4.2627,4.2062,4.199,4.1774,4.1268,4.1196,4.1196,4.1196,4.1172,4.1172,4.1172,4.1172,4.1172,4.1172,4.1172,4.1172,4.1172,4.1172,4.1172,4.1172,4.1172,4.1172,4.1172,4.1172,4.1172,4.1172,4.1172,4.1172,4.1172,4.1172,4.1172,4.1172,4.1172,4.1172,4.1172,4.1172,4.1172,4.1172,4.1172,4.1172,4.1172,4.7497,4.7497,4.7497,4.7497,4.7497,4.7497,4.7497,4.7497,4.7497,4.7497,4.7497,4.7305,4.6776,4.6247,4.5718,4.5125,4.4597,4.4285,4.4285,4.4285,4.4285,4.4285,4.4285,4.4285,4.4285,4.4285,4.4285,4.4285,4.4285,4.4285,4.4285,4.4285,4.4285,4.4285,4.4285,4.4285,4.4285,4.4285,4.4285,4.4285,4.4285,4.4285,4.4285,4.4285,4.4285,4.4285,4.4285,4.4285,4.4285,4.4285,4.4285,4.4285,4.4285,4.4285,4.4285,4.4285,4.4285,4.4285,4.4285,4.4285,4.4285,4.4285,4.4285,4.4285,4.4285,4.4285,4.4237,4.4069,4.4045,4.3997,4.3914,4.3553,4.3289,4.3289,4.3,4.2771,4.2602,4.2578,4.253,4.2362,4.1966,4.1725,4.1725,4.1413,4.1172,4.1172,4.1172,4.1172,4.1172,4.1172,4.1172,4.1172,4.1172,4.1172,4.1172,4.1172,4.1172,4.1172,4.1172,4.1172,4.1172,4.1172,4.1172,4.1172,4.1172,4.1172,4.1172,4.1172,4.1172,4.1172,4.1172,4.1172,4.1172,4.1172,4.1172,4.1172,4.7497,4.7497,4.7497,4.7497,4.7497,4.7497,4.7497,4.7497,4.7497,4.7497,4.7497,4.7377,4.7064,4.6559,4.603,4.5501,4.4717,4.4285,4.4285,4.4285,4.4285,4.4285,4.4285,4.4285,4.4285,4.4285,4.4285,4.4285,4.4285,4.4285,4.4285,4.4285,4.4285,4.4285,4.4285,4.4285,4.4285,4.4285,4.4285,4.4285,4.4285,4.4285,4.4285,4.4285,4.4285,4.4285,4.4285,4.4285,4.4285,4.4285,4.4285,4.4285,4.4285,4.4285,4.4285,4.4285,4.4285,4.4285,4.4285,4.4285,4.4285,4.4285,4.4285,4.4285,4.4285,4.4285,4.4285,4.4285,4.4285,4.4285,4.4285,4.4021,4.3842,4.3842,4.3601,4.3313,4.3096,4.3072,4.2976,4.2843,4.253,4.2338,4.2338,4.1798,4.1413,4.1196,4.1172,4.1172,4.1172,4.1172,4.1172,4.1172,4.1172,4.1172,4.1172,4.1172,4.1172,4.1172,4.1172,4.1172,4.1172,4.1172,4.1172,4.1172,4.1172,4.1172,4.1172,4.1172,4.1172,4.1172,4.1172,4.1172,4.1172,4.1172,4.1172,4.1172,4.7497,4.7497,4.7497,4.7497,4.7497,4.7497,4.7497,4.7497,4.7497,4.7497,4.7497,4.7497,4.7497,4.7016,4.6511,4.603,4.4957,4.4333,4.4285,4.4285,4.4285,4.4285,4.4285,4.4285,4.4285,4.4285,4.4285,4.4285,4.4285,4.4285,4.4285,4.4285,4.4285,4.4285,4.4285,4.4285,4.4285,4.4285,4.4285,4.4285,4.4285,4.4285,4.4285,4.4285,4.4285,4.4285,4.4285,4.4285,4.4285,4.4285,4.4285,4.4285,4.4285,4.4285,4.4285,4.4285,4.4285,4.4285,4.4285,4.4285,4.4285,4.4285,4.4285,4.4285,4.4285,4.4285,4.4285,4.4285,4.4285,4.4285,4.4285,4.4285,4.4285,4.4285,4.4285,4.4117,4.3649,4.3577,4.3409,4.2952,4.2916,4.2891,4.2891,4.241,4.1822,4.1293,4.1244,4.122,4.1172,4.1172,4.1172,4.1172,4.1172,4.1172,4.1172,4.1172,4.1172,4.1172,4.1172,4.1172,4.1172,4.1172,4.1172,4.1172,4.1172,4.1172,4.1172,4.1172,4.1172,4.1172,4.1172,4.1172,4.1172,4.1172,4.1172,4.1172,4.7497,4.7497,4.7497,4.7497,4.7497,4.7497,4.7497,4.7497,4.7497,4.7497,4.7497,4.7497,4.7497,4.7016,4.6655,4.6559,4.5573,4.4717,4.4309,4.4285,4.4285,4.4285,4.4285,4.4285,4.4285,4.4285,4.4285,4.4285,4.4285,4.4285,4.4285,4.4285,4.4285,4.4285,4.4285,4.4285,4.4285,4.4285,4.4285,4.4285,4.4285,4.4285,4.4285,4.4285,4.4285,4.4285,4.4285,4.4285,4.4285,4.4285,4.4285,4.4285,4.4285,4.4285,4.4285,4.4285,4.4285,4.4285,4.4285,4.4285,4.4285,4.4285,4.4285,4.4285,4.4285,4.4285,4.4285,4.4285,4.4285,4.4285,4.4285,4.4285,4.4285,4.4285,4.4285,4.4237,4.4117,4.4117,4.4069,4.401,4.3601,4.3337,4.3337,4.288,4.2375,4.1904,4.1798,4.1629,4.1196,4.1172,4.1172,4.1172,4.1172,4.1172,4.1172,4.1172,4.1172,4.1172,4.1172,4.1172,4.1172,4.1172,4.1172,4.1172,4.1172,4.1172,4.1172,4.1172,4.1172,4.1172,4.1172,4.1172,4.1172,4.1172,4.1172,4.1172,4.7497,4.7497,4.7497,4.7497,4.7497,4.7497,4.7497,4.7497,4.7497,4.7497,4.7497,4.7497,4.7497,4.7257,4.6992,4.6728,4.5742,4.4957,4.4669,4.4429,4.4285,4.4285,4.4285,4.4285,4.4285,4.4285,4.4285,4.4285,4.4285,4.4285,4.4285,4.4285,4.4285,4.4285,4.4285,4.4285,4.4285,4.4285,4.4285,4.4285,4.4285,4.4285,4.4285,4.4285,4.4285,4.4285,4.4285,4.4285,4.4285,4.4285,4.4285,4.4285,4.4285,4.4285,4.4285,4.4285,4.4285,4.4285,4.4285,4.4285,4.4285,4.4285,4.4285,4.4285,4.4285,4.4285,4.4285,4.4285,4.4285,4.4285,4.4285,4.4285,4.4285,4.4285,4.4285,4.4285,4.4285,4.4285,4.4285,4.4285,4.4021,4.3818,4.3529,4.3265,4.2904,4.2458,4.211,4.1846,4.1581,4.1317,4.1172,4.1172,4.1172,4.1172,4.1172,4.1172,4.1172,4.1172,4.1172,4.1172,4.1172,4.1172,4.1172,4.1172,4.1172,4.1172,4.1172,4.1172,4.1172,4.1172,4.1172,4.1172,4.1172,4.1172,4.1172,4.1172,4.7497,4.7497,4.7497,4.7497,4.7497,4.7497,4.7497,4.7497,4.7497,4.7497,4.7497,4.7497,4.7497,4.7497,4.7281,4.6752,4.5838,4.5173,4.5077,4.4573,4.4285,4.4285,4.4285,4.4285,4.4285,4.4285,4.4285,4.4285,4.4285,4.4285,4.4285,4.4285,4.4285,4.4285,4.4285,4.4285,4.4285,4.4285,4.4285,4.4285,4.4285,4.4285,4.4285,4.4285,4.4285,4.4285,4.4285,4.4285,4.4285,4.4285,4.4285,4.4285,4.4285,4.4285,4.4285,4.4285,4.4285,4.4285,4.4285,4.4285,4.4285,4.4285,4.4285,4.4285,4.4285,4.4285,4.4285,4.4285,4.4285,4.4285,4.4285,4.4285,4.4285,4.4285,4.4285,4.4285,4.4285,4.4285,4.4285,4.4285,4.4285,4.4117,4.3697,4.3649,4.3433,4.2988,4.2495,4.2158,4.199,4.1557,4.1268,4.1172,4.1172,4.1172,4.1172,4.1172,4.1172,4.1172,4.1172,4.1172,4.1172,4.1172,4.1172,4.1172,4.1172,4.1172,4.1172,4.1172,4.1172,4.1172,4.1172,4.1172,4.1172,4.1172,4.1172,4.1172,4.7497,4.7497,4.7497,4.7497,4.7497,4.7497,4.7497,4.7497,4.7497,4.7497,4.7497,4.7497,4.7497,4.7497,4.7281,4.6752,4.615,4.5558,4.5101,4.4573,4.4285,4.4285,4.4285,4.4285,4.4285,4.4285,4.4285,4.4285,4.4285,4.4285,4.4285,4.4285,4.4285,4.4285,4.4285,4.4285,4.4285,4.4285,4.4285,4.4285,4.4285,4.4285,4.4285,4.4285,4.4285,4.4285,4.4285,4.4285,4.4285,4.4285,4.4285,4.4285,4.4285,4.4285,4.4285,4.4285,4.4285,4.4285,4.4285,4.4285,4.4285,4.4285,4.4285,4.4285,4.4285,4.4285,4.4285,4.4285,4.4285,4.4285,4.4285,4.4285,4.4285,4.4285,4.4285,4.4285,4.4285,4.4285,4.4285,4.4285,4.4285,4.4261,4.4189,4.4165,4.3949,4.3457,4.3337,4.2904,4.2073,4.1894,4.1653,4.1196,4.1172,4.1172,4.1172,4.1172,4.1172,4.1172,4.1172,4.1172,4.1172,4.1172,4.1172,4.1172,4.1172,4.1172,4.1172,4.1172,4.1172,4.1172,4.1172,4.1172,4.1172,4.1172,4.1172,4.1172,4.7497,4.7497,4.7497,4.7497,4.7497,4.7497,4.7497,4.7497,4.7497,4.7497,4.7497,4.7497,4.7497,4.7497,4.7401,4.7161,4.668,4.615,4.5597,4.5005,4.4597,4.4309,4.4285,4.4285,4.4285,4.4285,4.4285,4.4285,4.4285,4.4285,4.4285,4.4285,4.4285,4.4285,4.4285,4.4285,4.4285,4.4285,4.4285,4.4285,4.4285,4.4285,4.4285,4.4285,4.4285,4.4285,4.4285,4.4285,4.4285,4.4285,4.4285,4.4285,4.4285,4.4285,4.4285,4.4285,4.4285,4.4285,4.4285,4.4285,4.4285,4.4285,4.4285,4.4285,4.4285,4.4285,4.4285,4.4285,4.4285,4.4285,4.4285,4.4285,4.4285,4.4285,4.4285,4.4285,4.4285,4.4285,4.4285,4.4285,4.4285,4.4285,4.4285,4.4285,4.4189,4.3925,4.3697,4.3313,4.2856,4.2279,4.187,4.1629,4.1341,4.1172,4.1172,4.1172,4.1172,4.1172,4.1172,4.1172,4.1172,4.1172,4.1172,4.1172,4.1172,4.1172,4.1172,4.1172,4.1172,4.1172,4.1172,4.1172,4.1172,4.1172,4.1172,4.1172]}]]